<?xml version="1.0" encoding="UTF-8"?>
<gpx creator="Wikiloc - http://www.wikiloc.com" version="1.1" xmlns="http://www.topografix.com/GPX/1/1" xmlns:xsi="http://www.w3.org/2001/XMLSchema-instance" xsi:schemaLocation="http://www.topografix.com/GPX/1/1 http://www.topografix.com/GPX/1/1/gpx.xsd">
  <trk>
    <name>Ruta Begues  parc Garraf Sitges</name>
    <cmt>Ruta Begues _ Olivella _ Sitges. Durada aprox. 1:00h  22 km ruta facil recomanat 4x4 dons al costat d'Olivella, esta el cami mes trencat
</cmt>
    <desc>Ruta Begues _ Olivella _ Sitges. Durada aprox. 1:00h  22 km ruta facil recomanat 4x4 dons al costat d'Olivella, esta el cami mes trencat
</desc>
    <trkseg>
      <trkpt lat="41.327154" lon="1.926785">
        <ele>0.0</ele>
        <time>2008-07-05T18:52:38Z</time>
      </trkpt>
      <trkpt lat="41.327159" lon="1.926788">
        <ele>386.0</ele>
        <time>2008-07-05T18:52:40Z</time>
      </trkpt>
      <trkpt lat="41.327159" lon="1.926788">
        <ele>385.0</ele>
        <time>2008-07-05T18:52:42Z</time>
      </trkpt>
      <trkpt lat="41.327159" lon="1.926788">
        <ele>383.0</ele>
        <time>2008-07-05T18:52:44Z</time>
      </trkpt>
      <trkpt lat="41.327159" lon="1.926771">
        <ele>381.0</ele>
        <time>2008-07-05T18:52:46Z</time>
      </trkpt>
      <trkpt lat="41.327175" lon="1.926771">
        <ele>378.0</ele>
        <time>2008-07-05T18:52:48Z</time>
      </trkpt>
      <trkpt lat="41.327175" lon="1.926771">
        <ele>377.0</ele>
        <time>2008-07-05T18:52:50Z</time>
      </trkpt>
      <trkpt lat="41.327175" lon="1.926771">
        <ele>375.0</ele>
        <time>2008-07-05T18:52:52Z</time>
      </trkpt>
      <trkpt lat="41.327192" lon="1.926771">
        <ele>376.0</ele>
        <time>2008-07-05T18:52:54Z</time>
      </trkpt>
      <trkpt lat="41.327192" lon="1.926788">
        <ele>375.0</ele>
        <time>2008-07-05T18:52:56Z</time>
      </trkpt>
      <trkpt lat="41.327192" lon="1.926788">
        <ele>377.0</ele>
        <time>2008-07-05T18:52:58Z</time>
      </trkpt>
      <trkpt lat="41.327175" lon="1.926788">
        <ele>379.0</ele>
        <time>2008-07-05T18:52:59Z</time>
      </trkpt>
      <trkpt lat="41.327175" lon="1.926788">
        <ele>379.0</ele>
        <time>2008-07-05T18:53:00Z</time>
      </trkpt>
      <trkpt lat="41.327175" lon="1.926805">
        <ele>378.0</ele>
        <time>2008-07-05T18:53:02Z</time>
      </trkpt>
      <trkpt lat="41.327159" lon="1.926805">
        <ele>377.0</ele>
        <time>2008-07-05T18:53:04Z</time>
      </trkpt>
      <trkpt lat="41.327159" lon="1.926805">
        <ele>377.0</ele>
        <time>2008-07-05T18:53:06Z</time>
      </trkpt>
      <trkpt lat="41.327142" lon="1.926788">
        <ele>378.0</ele>
        <time>2008-07-05T18:53:08Z</time>
      </trkpt>
      <trkpt lat="41.327142" lon="1.926788">
        <ele>378.0</ele>
        <time>2008-07-05T18:53:10Z</time>
      </trkpt>
      <trkpt lat="41.327142" lon="1.926788">
        <ele>379.0</ele>
        <time>2008-07-05T18:53:12Z</time>
      </trkpt>
      <trkpt lat="41.327142" lon="1.926788">
        <ele>377.0</ele>
        <time>2008-07-05T18:53:14Z</time>
      </trkpt>
      <trkpt lat="41.327142" lon="1.926788">
        <ele>377.0</ele>
        <time>2008-07-05T18:53:16Z</time>
      </trkpt>
      <trkpt lat="41.327159" lon="1.926788">
        <ele>376.0</ele>
        <time>2008-07-05T18:53:18Z</time>
      </trkpt>
      <trkpt lat="41.327159" lon="1.926788">
        <ele>376.0</ele>
        <time>2008-07-05T18:53:20Z</time>
      </trkpt>
      <trkpt lat="41.327159" lon="1.926788">
        <ele>377.0</ele>
        <time>2008-07-05T18:53:22Z</time>
      </trkpt>
      <trkpt lat="41.327159" lon="1.926788">
        <ele>378.0</ele>
        <time>2008-07-05T18:53:24Z</time>
      </trkpt>
      <trkpt lat="41.327159" lon="1.926788">
        <ele>378.0</ele>
        <time>2008-07-05T18:53:26Z</time>
      </trkpt>
      <trkpt lat="41.327175" lon="1.926788">
        <ele>377.0</ele>
        <time>2008-07-05T18:53:28Z</time>
      </trkpt>
      <trkpt lat="41.327175" lon="1.926788">
        <ele>377.0</ele>
        <time>2008-07-05T18:53:30Z</time>
      </trkpt>
      <trkpt lat="41.327192" lon="1.926788">
        <ele>378.0</ele>
        <time>2008-07-05T18:53:32Z</time>
      </trkpt>
      <trkpt lat="41.327192" lon="1.926788">
        <ele>379.0</ele>
        <time>2008-07-05T18:53:34Z</time>
      </trkpt>
      <trkpt lat="41.327192" lon="1.926788">
        <ele>381.0</ele>
        <time>2008-07-05T18:53:36Z</time>
      </trkpt>
      <trkpt lat="41.327192" lon="1.926788">
        <ele>383.0</ele>
        <time>2008-07-05T18:53:38Z</time>
      </trkpt>
      <trkpt lat="41.327192" lon="1.926788">
        <ele>383.0</ele>
        <time>2008-07-05T18:53:40Z</time>
      </trkpt>
      <trkpt lat="41.327192" lon="1.926805">
        <ele>383.0</ele>
        <time>2008-07-05T18:53:42Z</time>
      </trkpt>
      <trkpt lat="41.327209" lon="1.926788">
        <ele>380.0</ele>
        <time>2008-07-05T18:53:44Z</time>
      </trkpt>
      <trkpt lat="41.327209" lon="1.926805">
        <ele>377.0</ele>
        <time>2008-07-05T18:53:46Z</time>
      </trkpt>
      <trkpt lat="41.327209" lon="1.926788">
        <ele>374.0</ele>
        <time>2008-07-05T18:53:48Z</time>
      </trkpt>
      <trkpt lat="41.327225" lon="1.926788">
        <ele>370.0</ele>
        <time>2008-07-05T18:53:50Z</time>
      </trkpt>
      <trkpt lat="41.327225" lon="1.926771">
        <ele>369.0</ele>
        <time>2008-07-05T18:53:52Z</time>
      </trkpt>
      <trkpt lat="41.327225" lon="1.926771">
        <ele>368.0</ele>
        <time>2008-07-05T18:53:54Z</time>
      </trkpt>
      <trkpt lat="41.327225" lon="1.926771">
        <ele>369.0</ele>
        <time>2008-07-05T18:53:56Z</time>
      </trkpt>
      <trkpt lat="41.327225" lon="1.926788">
        <ele>370.0</ele>
        <time>2008-07-05T18:53:58Z</time>
      </trkpt>
      <trkpt lat="41.327225" lon="1.926788">
        <ele>372.0</ele>
        <time>2008-07-05T18:54:00Z</time>
      </trkpt>
      <trkpt lat="41.327225" lon="1.926788">
        <ele>375.0</ele>
        <time>2008-07-05T18:54:02Z</time>
      </trkpt>
      <trkpt lat="41.327225" lon="1.926788">
        <ele>379.0</ele>
        <time>2008-07-05T18:54:04Z</time>
      </trkpt>
      <trkpt lat="41.327209" lon="1.926788">
        <ele>382.0</ele>
        <time>2008-07-05T18:54:06Z</time>
      </trkpt>
      <trkpt lat="41.327209" lon="1.926788">
        <ele>382.0</ele>
        <time>2008-07-05T18:54:08Z</time>
      </trkpt>
      <trkpt lat="41.327209" lon="1.926788">
        <ele>382.0</ele>
        <time>2008-07-05T18:54:10Z</time>
      </trkpt>
      <trkpt lat="41.327209" lon="1.926788">
        <ele>383.0</ele>
        <time>2008-07-05T18:54:12Z</time>
      </trkpt>
      <trkpt lat="41.327209" lon="1.926788">
        <ele>385.0</ele>
        <time>2008-07-05T18:54:14Z</time>
      </trkpt>
      <trkpt lat="41.327192" lon="1.926771">
        <ele>385.0</ele>
        <time>2008-07-05T18:54:16Z</time>
      </trkpt>
      <trkpt lat="41.327192" lon="1.926788">
        <ele>386.0</ele>
        <time>2008-07-05T18:54:18Z</time>
      </trkpt>
      <trkpt lat="41.327192" lon="1.926788">
        <ele>384.0</ele>
        <time>2008-07-05T18:54:20Z</time>
      </trkpt>
      <trkpt lat="41.327192" lon="1.926788">
        <ele>381.0</ele>
        <time>2008-07-05T18:54:22Z</time>
      </trkpt>
      <trkpt lat="41.327175" lon="1.926805">
        <ele>381.0</ele>
        <time>2008-07-05T18:54:24Z</time>
      </trkpt>
      <trkpt lat="41.327175" lon="1.926805">
        <ele>382.0</ele>
        <time>2008-07-05T18:54:26Z</time>
      </trkpt>
      <trkpt lat="41.327175" lon="1.926788">
        <ele>380.0</ele>
        <time>2008-07-05T18:54:28Z</time>
      </trkpt>
      <trkpt lat="41.327175" lon="1.926788">
        <ele>378.0</ele>
        <time>2008-07-05T18:54:30Z</time>
      </trkpt>
      <trkpt lat="41.327175" lon="1.926788">
        <ele>378.0</ele>
        <time>2008-07-05T18:54:31Z</time>
      </trkpt>
      <trkpt lat="41.327175" lon="1.926771">
        <ele>379.0</ele>
        <time>2008-07-05T18:54:32Z</time>
      </trkpt>
      <trkpt lat="41.327159" lon="1.926771">
        <ele>380.0</ele>
        <time>2008-07-05T18:54:34Z</time>
      </trkpt>
      <trkpt lat="41.327159" lon="1.926771">
        <ele>381.0</ele>
        <time>2008-07-05T18:54:36Z</time>
      </trkpt>
      <trkpt lat="41.327159" lon="1.926771">
        <ele>382.0</ele>
        <time>2008-07-05T18:54:38Z</time>
      </trkpt>
      <trkpt lat="41.327159" lon="1.926771">
        <ele>381.0</ele>
        <time>2008-07-05T18:54:40Z</time>
      </trkpt>
      <trkpt lat="41.327159" lon="1.926771">
        <ele>381.0</ele>
        <time>2008-07-05T18:54:42Z</time>
      </trkpt>
      <trkpt lat="41.327159" lon="1.926755">
        <ele>382.0</ele>
        <time>2008-07-05T18:54:44Z</time>
      </trkpt>
      <trkpt lat="41.327159" lon="1.926771">
        <ele>381.0</ele>
        <time>2008-07-05T18:54:46Z</time>
      </trkpt>
      <trkpt lat="41.327159" lon="1.926771">
        <ele>380.0</ele>
        <time>2008-07-05T18:54:48Z</time>
      </trkpt>
      <trkpt lat="41.327125" lon="1.926771">
        <ele>380.0</ele>
        <time>2008-07-05T18:54:50Z</time>
      </trkpt>
      <trkpt lat="41.327059" lon="1.926755">
        <ele>380.0</ele>
        <time>2008-07-05T18:54:52Z</time>
      </trkpt>
      <trkpt lat="41.326992" lon="1.926738">
        <ele>380.0</ele>
        <time>2008-07-05T18:54:54Z</time>
      </trkpt>
      <trkpt lat="41.326925" lon="1.926721">
        <ele>380.0</ele>
        <time>2008-07-05T18:54:56Z</time>
      </trkpt>
      <trkpt lat="41.326859" lon="1.926688">
        <ele>379.0</ele>
        <time>2008-07-05T18:54:58Z</time>
      </trkpt>
      <trkpt lat="41.326809" lon="1.926688">
        <ele>379.0</ele>
        <time>2008-07-05T18:54:59Z</time>
      </trkpt>
      <trkpt lat="41.326775" lon="1.926671">
        <ele>379.0</ele>
        <time>2008-07-05T18:55:00Z</time>
      </trkpt>
      <trkpt lat="41.326692" lon="1.926655">
        <ele>378.0</ele>
        <time>2008-07-05T18:55:02Z</time>
      </trkpt>
      <trkpt lat="41.326609" lon="1.926621">
        <ele>377.0</ele>
        <time>2008-07-05T18:55:04Z</time>
      </trkpt>
      <trkpt lat="41.326525" lon="1.926588">
        <ele>376.0</ele>
        <time>2008-07-05T18:55:06Z</time>
      </trkpt>
      <trkpt lat="41.326425" lon="1.926555">
        <ele>374.0</ele>
        <time>2008-07-05T18:55:08Z</time>
      </trkpt>
      <trkpt lat="41.326342" lon="1.926505">
        <ele>374.0</ele>
        <time>2008-07-05T18:55:10Z</time>
      </trkpt>
      <trkpt lat="41.326242" lon="1.926471">
        <ele>373.0</ele>
        <time>2008-07-05T18:55:12Z</time>
      </trkpt>
      <trkpt lat="41.326109" lon="1.926421">
        <ele>372.0</ele>
        <time>2008-07-05T18:55:14Z</time>
      </trkpt>
      <trkpt lat="41.325959" lon="1.926388">
        <ele>372.0</ele>
        <time>2008-07-05T18:55:16Z</time>
      </trkpt>
      <trkpt lat="41.325809" lon="1.926321">
        <ele>371.0</ele>
        <time>2008-07-05T18:55:18Z</time>
      </trkpt>
      <trkpt lat="41.325675" lon="1.926271">
        <ele>371.0</ele>
        <time>2008-07-05T18:55:20Z</time>
      </trkpt>
      <trkpt lat="41.325575" lon="1.926221">
        <ele>370.0</ele>
        <time>2008-07-05T18:55:22Z</time>
      </trkpt>
      <trkpt lat="41.325475" lon="1.926188">
        <ele>371.0</ele>
        <time>2008-07-05T18:55:24Z</time>
      </trkpt>
      <trkpt lat="41.325409" lon="1.926155">
        <ele>373.0</ele>
        <time>2008-07-05T18:55:26Z</time>
      </trkpt>
      <trkpt lat="41.325342" lon="1.926138">
        <ele>373.0</ele>
        <time>2008-07-05T18:55:28Z</time>
      </trkpt>
      <trkpt lat="41.325275" lon="1.926105">
        <ele>372.0</ele>
        <time>2008-07-05T18:55:30Z</time>
      </trkpt>
      <trkpt lat="41.325192" lon="1.926071">
        <ele>372.0</ele>
        <time>2008-07-05T18:55:32Z</time>
      </trkpt>
      <trkpt lat="41.325109" lon="1.926055">
        <ele>372.0</ele>
        <time>2008-07-05T18:55:34Z</time>
      </trkpt>
      <trkpt lat="41.325025" lon="1.926038">
        <ele>372.0</ele>
        <time>2008-07-05T18:55:36Z</time>
      </trkpt>
      <trkpt lat="41.324959" lon="1.925988">
        <ele>372.0</ele>
        <time>2008-07-05T18:55:38Z</time>
      </trkpt>
      <trkpt lat="41.324875" lon="1.925955">
        <ele>372.0</ele>
        <time>2008-07-05T18:55:40Z</time>
      </trkpt>
      <trkpt lat="41.324792" lon="1.925905">
        <ele>372.0</ele>
        <time>2008-07-05T18:55:42Z</time>
      </trkpt>
      <trkpt lat="41.324725" lon="1.925871">
        <ele>372.0</ele>
        <time>2008-07-05T18:55:44Z</time>
      </trkpt>
      <trkpt lat="41.324659" lon="1.925821">
        <ele>372.0</ele>
        <time>2008-07-05T18:55:46Z</time>
      </trkpt>
      <trkpt lat="41.324592" lon="1.925738">
        <ele>373.0</ele>
        <time>2008-07-05T18:55:48Z</time>
      </trkpt>
      <trkpt lat="41.324542" lon="1.925621">
        <ele>374.0</ele>
        <time>2008-07-05T18:55:50Z</time>
      </trkpt>
      <trkpt lat="41.324509" lon="1.925505">
        <ele>375.0</ele>
        <time>2008-07-05T18:55:52Z</time>
      </trkpt>
      <trkpt lat="41.324509" lon="1.925371">
        <ele>375.0</ele>
        <time>2008-07-05T18:55:54Z</time>
      </trkpt>
      <trkpt lat="41.324509" lon="1.925221">
        <ele>376.0</ele>
        <time>2008-07-05T18:55:56Z</time>
      </trkpt>
      <trkpt lat="41.324509" lon="1.925071">
        <ele>377.0</ele>
        <time>2008-07-05T18:55:58Z</time>
      </trkpt>
      <trkpt lat="41.324525" lon="1.924921">
        <ele>378.0</ele>
        <time>2008-07-05T18:56:00Z</time>
      </trkpt>
      <trkpt lat="41.324525" lon="1.924755">
        <ele>379.0</ele>
        <time>2008-07-05T18:56:02Z</time>
      </trkpt>
      <trkpt lat="41.324525" lon="1.924588">
        <ele>380.0</ele>
        <time>2008-07-05T18:56:04Z</time>
      </trkpt>
      <trkpt lat="41.324509" lon="1.924421">
        <ele>381.0</ele>
        <time>2008-07-05T18:56:06Z</time>
      </trkpt>
      <trkpt lat="41.324492" lon="1.924238">
        <ele>382.0</ele>
        <time>2008-07-05T18:56:08Z</time>
      </trkpt>
      <trkpt lat="41.324459" lon="1.924055">
        <ele>383.0</ele>
        <time>2008-07-05T18:56:10Z</time>
      </trkpt>
      <trkpt lat="41.324409" lon="1.923888">
        <ele>384.0</ele>
        <time>2008-07-05T18:56:12Z</time>
      </trkpt>
      <trkpt lat="41.324325" lon="1.923738">
        <ele>384.0</ele>
        <time>2008-07-05T18:56:14Z</time>
      </trkpt>
      <trkpt lat="41.324225" lon="1.923588">
        <ele>384.0</ele>
        <time>2008-07-05T18:56:16Z</time>
      </trkpt>
      <trkpt lat="41.324142" lon="1.923438">
        <ele>385.0</ele>
        <time>2008-07-05T18:56:18Z</time>
      </trkpt>
      <trkpt lat="41.324075" lon="1.923271">
        <ele>385.0</ele>
        <time>2008-07-05T18:56:20Z</time>
      </trkpt>
      <trkpt lat="41.323992" lon="1.923138">
        <ele>386.0</ele>
        <time>2008-07-05T18:56:22Z</time>
      </trkpt>
      <trkpt lat="41.323892" lon="1.923021">
        <ele>387.0</ele>
        <time>2008-07-05T18:56:24Z</time>
      </trkpt>
      <trkpt lat="41.323759" lon="1.922938">
        <ele>387.0</ele>
        <time>2008-07-05T18:56:26Z</time>
      </trkpt>
      <trkpt lat="41.323642" lon="1.922871">
        <ele>387.0</ele>
        <time>2008-07-05T18:56:28Z</time>
      </trkpt>
      <trkpt lat="41.323492" lon="1.922821">
        <ele>387.0</ele>
        <time>2008-07-05T18:56:30Z</time>
      </trkpt>
      <trkpt lat="41.323359" lon="1.922788">
        <ele>388.0</ele>
        <time>2008-07-05T18:56:32Z</time>
      </trkpt>
      <trkpt lat="41.323225" lon="1.922788">
        <ele>389.0</ele>
        <time>2008-07-05T18:56:34Z</time>
      </trkpt>
      <trkpt lat="41.323075" lon="1.922788">
        <ele>391.0</ele>
        <time>2008-07-05T18:56:36Z</time>
      </trkpt>
      <trkpt lat="41.322925" lon="1.922805">
        <ele>392.0</ele>
        <time>2008-07-05T18:56:38Z</time>
      </trkpt>
      <trkpt lat="41.322759" lon="1.922805">
        <ele>393.0</ele>
        <time>2008-07-05T18:56:40Z</time>
      </trkpt>
      <trkpt lat="41.322592" lon="1.922805">
        <ele>394.0</ele>
        <time>2008-07-05T18:56:42Z</time>
      </trkpt>
      <trkpt lat="41.322442" lon="1.922788">
        <ele>395.0</ele>
        <time>2008-07-05T18:56:44Z</time>
      </trkpt>
      <trkpt lat="41.322275" lon="1.922788">
        <ele>396.0</ele>
        <time>2008-07-05T18:56:46Z</time>
      </trkpt>
      <trkpt lat="41.322125" lon="1.922805">
        <ele>397.0</ele>
        <time>2008-07-05T18:56:48Z</time>
      </trkpt>
      <trkpt lat="41.321975" lon="1.922821">
        <ele>398.0</ele>
        <time>2008-07-05T18:56:50Z</time>
      </trkpt>
      <trkpt lat="41.321825" lon="1.922838">
        <ele>398.0</ele>
        <time>2008-07-05T18:56:52Z</time>
      </trkpt>
      <trkpt lat="41.321675" lon="1.922855">
        <ele>399.0</ele>
        <time>2008-07-05T18:56:54Z</time>
      </trkpt>
      <trkpt lat="41.321525" lon="1.922888">
        <ele>400.0</ele>
        <time>2008-07-05T18:56:56Z</time>
      </trkpt>
      <trkpt lat="41.321392" lon="1.922988">
        <ele>401.0</ele>
        <time>2008-07-05T18:56:58Z</time>
      </trkpt>
      <trkpt lat="41.321325" lon="1.923055">
        <ele>402.0</ele>
        <time>2008-07-05T18:56:59Z</time>
      </trkpt>
      <trkpt lat="41.321275" lon="1.923121">
        <ele>402.0</ele>
        <time>2008-07-05T18:57:00Z</time>
      </trkpt>
      <trkpt lat="41.321159" lon="1.923271">
        <ele>404.0</ele>
        <time>2008-07-05T18:57:02Z</time>
      </trkpt>
      <trkpt lat="41.321025" lon="1.923371">
        <ele>405.0</ele>
        <time>2008-07-05T18:57:04Z</time>
      </trkpt>
      <trkpt lat="41.320892" lon="1.923438">
        <ele>406.0</ele>
        <time>2008-07-05T18:57:06Z</time>
      </trkpt>
      <trkpt lat="41.320759" lon="1.923488">
        <ele>406.0</ele>
        <time>2008-07-05T18:57:08Z</time>
      </trkpt>
      <trkpt lat="41.320642" lon="1.923504">
        <ele>407.0</ele>
        <time>2008-07-05T18:57:10Z</time>
      </trkpt>
      <trkpt lat="41.320525" lon="1.923521">
        <ele>408.0</ele>
        <time>2008-07-05T18:57:12Z</time>
      </trkpt>
      <trkpt lat="41.320375" lon="1.923571">
        <ele>410.0</ele>
        <time>2008-07-05T18:57:14Z</time>
      </trkpt>
      <trkpt lat="41.320242" lon="1.923604">
        <ele>410.0</ele>
        <time>2008-07-05T18:57:16Z</time>
      </trkpt>
      <trkpt lat="41.320092" lon="1.923621">
        <ele>411.0</ele>
        <time>2008-07-05T18:57:18Z</time>
      </trkpt>
      <trkpt lat="41.319959" lon="1.923638">
        <ele>412.0</ele>
        <time>2008-07-05T18:57:20Z</time>
      </trkpt>
      <trkpt lat="41.319809" lon="1.923654">
        <ele>414.0</ele>
        <time>2008-07-05T18:57:22Z</time>
      </trkpt>
      <trkpt lat="41.319692" lon="1.923704">
        <ele>416.0</ele>
        <time>2008-07-05T18:57:24Z</time>
      </trkpt>
      <trkpt lat="41.319576" lon="1.923771">
        <ele>418.0</ele>
        <time>2008-07-05T18:57:26Z</time>
      </trkpt>
      <trkpt lat="41.319459" lon="1.923854">
        <ele>419.0</ele>
        <time>2008-07-05T18:57:28Z</time>
      </trkpt>
      <trkpt lat="41.319326" lon="1.923954">
        <ele>421.0</ele>
        <time>2008-07-05T18:57:30Z</time>
      </trkpt>
      <trkpt lat="41.319209" lon="1.924071">
        <ele>423.0</ele>
        <time>2008-07-05T18:57:32Z</time>
      </trkpt>
      <trkpt lat="41.319092" lon="1.924188">
        <ele>424.0</ele>
        <time>2008-07-05T18:57:34Z</time>
      </trkpt>
      <trkpt lat="41.318976" lon="1.924271">
        <ele>426.0</ele>
        <time>2008-07-05T18:57:36Z</time>
      </trkpt>
      <trkpt lat="41.318842" lon="1.924321">
        <ele>428.0</ele>
        <time>2008-07-05T18:57:38Z</time>
      </trkpt>
      <trkpt lat="41.318709" lon="1.924254">
        <ele>430.0</ele>
        <time>2008-07-05T18:57:40Z</time>
      </trkpt>
      <trkpt lat="41.318592" lon="1.924221">
        <ele>432.0</ele>
        <time>2008-07-05T18:57:42Z</time>
      </trkpt>
      <trkpt lat="41.318442" lon="1.924221">
        <ele>433.0</ele>
        <time>2008-07-05T18:57:44Z</time>
      </trkpt>
      <trkpt lat="41.318309" lon="1.924254">
        <ele>435.0</ele>
        <time>2008-07-05T18:57:46Z</time>
      </trkpt>
      <trkpt lat="41.318159" lon="1.924304">
        <ele>436.0</ele>
        <time>2008-07-05T18:57:48Z</time>
      </trkpt>
      <trkpt lat="41.318009" lon="1.924371">
        <ele>437.0</ele>
        <time>2008-07-05T18:57:50Z</time>
      </trkpt>
      <trkpt lat="41.317876" lon="1.924454">
        <ele>438.0</ele>
        <time>2008-07-05T18:57:52Z</time>
      </trkpt>
      <trkpt lat="41.317726" lon="1.924521">
        <ele>439.0</ele>
        <time>2008-07-05T18:57:54Z</time>
      </trkpt>
      <trkpt lat="41.317592" lon="1.924538">
        <ele>440.0</ele>
        <time>2008-07-05T18:57:56Z</time>
      </trkpt>
      <trkpt lat="41.317492" lon="1.924521">
        <ele>439.0</ele>
        <time>2008-07-05T18:57:58Z</time>
      </trkpt>
      <trkpt lat="41.317459" lon="1.924504">
        <ele>440.0</ele>
        <time>2008-07-05T18:58:00Z</time>
      </trkpt>
      <trkpt lat="41.317476" lon="1.924504">
        <ele>440.0</ele>
        <time>2008-07-05T18:58:02Z</time>
      </trkpt>
      <trkpt lat="41.317509" lon="1.924504">
        <ele>440.0</ele>
        <time>2008-07-05T18:58:04Z</time>
      </trkpt>
      <trkpt lat="41.317526" lon="1.924521">
        <ele>439.0</ele>
        <time>2008-07-05T18:58:06Z</time>
      </trkpt>
      <trkpt lat="41.317542" lon="1.924504">
        <ele>439.0</ele>
        <time>2008-07-05T18:58:08Z</time>
      </trkpt>
      <trkpt lat="41.317542" lon="1.924504">
        <ele>441.0</ele>
        <time>2008-07-05T18:58:10Z</time>
      </trkpt>
      <trkpt lat="41.317542" lon="1.924504">
        <ele>442.0</ele>
        <time>2008-07-05T18:58:12Z</time>
      </trkpt>
      <trkpt lat="41.317542" lon="1.924504">
        <ele>442.0</ele>
        <time>2008-07-05T18:58:14Z</time>
      </trkpt>
      <trkpt lat="41.317526" lon="1.924504">
        <ele>442.0</ele>
        <time>2008-07-05T18:58:16Z</time>
      </trkpt>
      <trkpt lat="41.317492" lon="1.924488">
        <ele>442.0</ele>
        <time>2008-07-05T18:58:18Z</time>
      </trkpt>
      <trkpt lat="41.317426" lon="1.924471">
        <ele>442.0</ele>
        <time>2008-07-05T18:58:20Z</time>
      </trkpt>
      <trkpt lat="41.317376" lon="1.924388">
        <ele>444.0</ele>
        <time>2008-07-05T18:58:22Z</time>
      </trkpt>
      <trkpt lat="41.317309" lon="1.924271">
        <ele>444.0</ele>
        <time>2008-07-05T18:58:24Z</time>
      </trkpt>
      <trkpt lat="41.317259" lon="1.924171">
        <ele>445.0</ele>
        <time>2008-07-05T18:58:26Z</time>
      </trkpt>
      <trkpt lat="41.317209" lon="1.924071">
        <ele>445.0</ele>
        <time>2008-07-05T18:58:28Z</time>
      </trkpt>
      <trkpt lat="41.317159" lon="1.923971">
        <ele>447.0</ele>
        <time>2008-07-05T18:58:30Z</time>
      </trkpt>
      <trkpt lat="41.317109" lon="1.923854">
        <ele>448.0</ele>
        <time>2008-07-05T18:58:32Z</time>
      </trkpt>
      <trkpt lat="41.317076" lon="1.923738">
        <ele>451.0</ele>
        <time>2008-07-05T18:58:34Z</time>
      </trkpt>
      <trkpt lat="41.317059" lon="1.923604">
        <ele>453.0</ele>
        <time>2008-07-05T18:58:36Z</time>
      </trkpt>
      <trkpt lat="41.317042" lon="1.923471">
        <ele>456.0</ele>
        <time>2008-07-05T18:58:38Z</time>
      </trkpt>
      <trkpt lat="41.317076" lon="1.923338">
        <ele>458.0</ele>
        <time>2008-07-05T18:58:40Z</time>
      </trkpt>
      <trkpt lat="41.317109" lon="1.923204">
        <ele>459.0</ele>
        <time>2008-07-05T18:58:42Z</time>
      </trkpt>
      <trkpt lat="41.317159" lon="1.923071">
        <ele>461.0</ele>
        <time>2008-07-05T18:58:44Z</time>
      </trkpt>
      <trkpt lat="41.317209" lon="1.922921">
        <ele>462.0</ele>
        <time>2008-07-05T18:58:46Z</time>
      </trkpt>
      <trkpt lat="41.317242" lon="1.922821">
        <ele>463.0</ele>
        <time>2008-07-05T18:58:48Z</time>
      </trkpt>
      <trkpt lat="41.317259" lon="1.922688">
        <ele>464.0</ele>
        <time>2008-07-05T18:58:50Z</time>
      </trkpt>
      <trkpt lat="41.317259" lon="1.922554">
        <ele>463.0</ele>
        <time>2008-07-05T18:58:52Z</time>
      </trkpt>
      <trkpt lat="41.317259" lon="1.922404">
        <ele>463.0</ele>
        <time>2008-07-05T18:58:54Z</time>
      </trkpt>
      <trkpt lat="41.317259" lon="1.922254">
        <ele>462.0</ele>
        <time>2008-07-05T18:58:56Z</time>
      </trkpt>
      <trkpt lat="41.317276" lon="1.922121">
        <ele>462.0</ele>
        <time>2008-07-05T18:58:58Z</time>
      </trkpt>
      <trkpt lat="41.317309" lon="1.921971">
        <ele>462.0</ele>
        <time>2008-07-05T18:59:00Z</time>
      </trkpt>
      <trkpt lat="41.317342" lon="1.921838">
        <ele>462.0</ele>
        <time>2008-07-05T18:59:02Z</time>
      </trkpt>
      <trkpt lat="41.317409" lon="1.921721">
        <ele>462.0</ele>
        <time>2008-07-05T18:59:04Z</time>
      </trkpt>
      <trkpt lat="41.317492" lon="1.921604">
        <ele>461.0</ele>
        <time>2008-07-05T18:59:06Z</time>
      </trkpt>
      <trkpt lat="41.317592" lon="1.921504">
        <ele>461.0</ele>
        <time>2008-07-05T18:59:08Z</time>
      </trkpt>
      <trkpt lat="41.317692" lon="1.921388">
        <ele>460.0</ele>
        <time>2008-07-05T18:59:10Z</time>
      </trkpt>
      <trkpt lat="41.317792" lon="1.921271">
        <ele>459.0</ele>
        <time>2008-07-05T18:59:12Z</time>
      </trkpt>
      <trkpt lat="41.317876" lon="1.921154">
        <ele>457.0</ele>
        <time>2008-07-05T18:59:14Z</time>
      </trkpt>
      <trkpt lat="41.317959" lon="1.921054">
        <ele>456.0</ele>
        <time>2008-07-05T18:59:16Z</time>
      </trkpt>
      <trkpt lat="41.318042" lon="1.920921">
        <ele>454.0</ele>
        <time>2008-07-05T18:59:18Z</time>
      </trkpt>
      <trkpt lat="41.318142" lon="1.920788">
        <ele>452.0</ele>
        <time>2008-07-05T18:59:20Z</time>
      </trkpt>
      <trkpt lat="41.318226" lon="1.920654">
        <ele>451.0</ele>
        <time>2008-07-05T18:59:22Z</time>
      </trkpt>
      <trkpt lat="41.318342" lon="1.920538">
        <ele>450.0</ele>
        <time>2008-07-05T18:59:24Z</time>
      </trkpt>
      <trkpt lat="41.318442" lon="1.920421">
        <ele>449.0</ele>
        <time>2008-07-05T18:59:26Z</time>
      </trkpt>
      <trkpt lat="41.318576" lon="1.920338">
        <ele>447.0</ele>
        <time>2008-07-05T18:59:28Z</time>
      </trkpt>
      <trkpt lat="41.318692" lon="1.920238">
        <ele>445.0</ele>
        <time>2008-07-05T18:59:30Z</time>
      </trkpt>
      <trkpt lat="41.318792" lon="1.920121">
        <ele>443.0</ele>
        <time>2008-07-05T18:59:32Z</time>
      </trkpt>
      <trkpt lat="41.318876" lon="1.919955">
        <ele>442.0</ele>
        <time>2008-07-05T18:59:34Z</time>
      </trkpt>
      <trkpt lat="41.318926" lon="1.919771">
        <ele>439.0</ele>
        <time>2008-07-05T18:59:36Z</time>
      </trkpt>
      <trkpt lat="41.318959" lon="1.919605">
        <ele>437.0</ele>
        <time>2008-07-05T18:59:38Z</time>
      </trkpt>
      <trkpt lat="41.318992" lon="1.919405">
        <ele>435.0</ele>
        <time>2008-07-05T18:59:40Z</time>
      </trkpt>
      <trkpt lat="41.319009" lon="1.919221">
        <ele>435.0</ele>
        <time>2008-07-05T18:59:42Z</time>
      </trkpt>
      <trkpt lat="41.319009" lon="1.919071">
        <ele>434.0</ele>
        <time>2008-07-05T18:59:44Z</time>
      </trkpt>
      <trkpt lat="41.319009" lon="1.918921">
        <ele>433.0</ele>
        <time>2008-07-05T18:59:46Z</time>
      </trkpt>
      <trkpt lat="41.319009" lon="1.918755">
        <ele>433.0</ele>
        <time>2008-07-05T18:59:48Z</time>
      </trkpt>
      <trkpt lat="41.319026" lon="1.918571">
        <ele>432.0</ele>
        <time>2008-07-05T18:59:50Z</time>
      </trkpt>
      <trkpt lat="41.319042" lon="1.918405">
        <ele>431.0</ele>
        <time>2008-07-05T18:59:52Z</time>
      </trkpt>
      <trkpt lat="41.319059" lon="1.918221">
        <ele>429.0</ele>
        <time>2008-07-05T18:59:54Z</time>
      </trkpt>
      <trkpt lat="41.319092" lon="1.918038">
        <ele>428.0</ele>
        <time>2008-07-05T18:59:56Z</time>
      </trkpt>
      <trkpt lat="41.319109" lon="1.917855">
        <ele>426.0</ele>
        <time>2008-07-05T18:59:58Z</time>
      </trkpt>
      <trkpt lat="41.319109" lon="1.917655">
        <ele>424.0</ele>
        <time>2008-07-05T19:00:00Z</time>
      </trkpt>
      <trkpt lat="41.319092" lon="1.917471">
        <ele>423.0</ele>
        <time>2008-07-05T19:00:02Z</time>
      </trkpt>
      <trkpt lat="41.319092" lon="1.917271">
        <ele>421.0</ele>
        <time>2008-07-05T19:00:04Z</time>
      </trkpt>
      <trkpt lat="41.319092" lon="1.917071">
        <ele>420.0</ele>
        <time>2008-07-05T19:00:06Z</time>
      </trkpt>
      <trkpt lat="41.319092" lon="1.916971">
        <ele>420.0</ele>
        <time>2008-07-05T19:00:07Z</time>
      </trkpt>
      <trkpt lat="41.319092" lon="1.916855">
        <ele>419.0</ele>
        <time>2008-07-05T19:00:08Z</time>
      </trkpt>
      <trkpt lat="41.319109" lon="1.916638">
        <ele>417.0</ele>
        <time>2008-07-05T19:00:10Z</time>
      </trkpt>
      <trkpt lat="41.319126" lon="1.916421">
        <ele>415.0</ele>
        <time>2008-07-05T19:00:12Z</time>
      </trkpt>
      <trkpt lat="41.319142" lon="1.916221">
        <ele>415.0</ele>
        <time>2008-07-05T19:00:14Z</time>
      </trkpt>
      <trkpt lat="41.319159" lon="1.916005">
        <ele>413.0</ele>
        <time>2008-07-05T19:00:16Z</time>
      </trkpt>
      <trkpt lat="41.319176" lon="1.915805">
        <ele>412.0</ele>
        <time>2008-07-05T19:00:18Z</time>
      </trkpt>
      <trkpt lat="41.319192" lon="1.915621">
        <ele>411.0</ele>
        <time>2008-07-05T19:00:20Z</time>
      </trkpt>
      <trkpt lat="41.319192" lon="1.915438">
        <ele>409.0</ele>
        <time>2008-07-05T19:00:22Z</time>
      </trkpt>
      <trkpt lat="41.319192" lon="1.915271">
        <ele>408.0</ele>
        <time>2008-07-05T19:00:24Z</time>
      </trkpt>
      <trkpt lat="41.319209" lon="1.915105">
        <ele>407.0</ele>
        <time>2008-07-05T19:00:26Z</time>
      </trkpt>
      <trkpt lat="41.319209" lon="1.914938">
        <ele>407.0</ele>
        <time>2008-07-05T19:00:28Z</time>
      </trkpt>
      <trkpt lat="41.319226" lon="1.914771">
        <ele>406.0</ele>
        <time>2008-07-05T19:00:30Z</time>
      </trkpt>
      <trkpt lat="41.319209" lon="1.914621">
        <ele>406.0</ele>
        <time>2008-07-05T19:00:32Z</time>
      </trkpt>
      <trkpt lat="41.319192" lon="1.914471">
        <ele>406.0</ele>
        <time>2008-07-05T19:00:34Z</time>
      </trkpt>
      <trkpt lat="41.319176" lon="1.914321">
        <ele>405.0</ele>
        <time>2008-07-05T19:00:36Z</time>
      </trkpt>
      <trkpt lat="41.319159" lon="1.914188">
        <ele>404.0</ele>
        <time>2008-07-05T19:00:38Z</time>
      </trkpt>
      <trkpt lat="41.319159" lon="1.914038">
        <ele>403.0</ele>
        <time>2008-07-05T19:00:40Z</time>
      </trkpt>
      <trkpt lat="41.319126" lon="1.913888">
        <ele>403.0</ele>
        <time>2008-07-05T19:00:42Z</time>
      </trkpt>
      <trkpt lat="41.319092" lon="1.913738">
        <ele>402.0</ele>
        <time>2008-07-05T19:00:44Z</time>
      </trkpt>
      <trkpt lat="41.319076" lon="1.913571">
        <ele>402.0</ele>
        <time>2008-07-05T19:00:46Z</time>
      </trkpt>
      <trkpt lat="41.319076" lon="1.913421">
        <ele>404.0</ele>
        <time>2008-07-05T19:00:48Z</time>
      </trkpt>
      <trkpt lat="41.319059" lon="1.913271">
        <ele>404.0</ele>
        <time>2008-07-05T19:00:50Z</time>
      </trkpt>
      <trkpt lat="41.319009" lon="1.913121">
        <ele>405.0</ele>
        <time>2008-07-05T19:00:52Z</time>
      </trkpt>
      <trkpt lat="41.318926" lon="1.913005">
        <ele>404.0</ele>
        <time>2008-07-05T19:00:54Z</time>
      </trkpt>
      <trkpt lat="41.318809" lon="1.912905">
        <ele>403.0</ele>
        <time>2008-07-05T19:00:56Z</time>
      </trkpt>
      <trkpt lat="41.318676" lon="1.912838">
        <ele>404.0</ele>
        <time>2008-07-05T19:00:58Z</time>
      </trkpt>
      <trkpt lat="41.318542" lon="1.912771">
        <ele>404.0</ele>
        <time>2008-07-05T19:01:00Z</time>
      </trkpt>
      <trkpt lat="41.318426" lon="1.912705">
        <ele>406.0</ele>
        <time>2008-07-05T19:01:02Z</time>
      </trkpt>
      <trkpt lat="41.318309" lon="1.912621">
        <ele>408.0</ele>
        <time>2008-07-05T19:01:04Z</time>
      </trkpt>
      <trkpt lat="41.318209" lon="1.912555">
        <ele>409.0</ele>
        <time>2008-07-05T19:01:06Z</time>
      </trkpt>
      <trkpt lat="41.318092" lon="1.912471">
        <ele>411.0</ele>
        <time>2008-07-05T19:01:08Z</time>
      </trkpt>
      <trkpt lat="41.317992" lon="1.912371">
        <ele>412.0</ele>
        <time>2008-07-05T19:01:10Z</time>
      </trkpt>
      <trkpt lat="41.317892" lon="1.912288">
        <ele>414.0</ele>
        <time>2008-07-05T19:01:12Z</time>
      </trkpt>
      <trkpt lat="41.317792" lon="1.912155">
        <ele>415.0</ele>
        <time>2008-07-05T19:01:14Z</time>
      </trkpt>
      <trkpt lat="41.317692" lon="1.911988">
        <ele>415.0</ele>
        <time>2008-07-05T19:01:16Z</time>
      </trkpt>
      <trkpt lat="41.317626" lon="1.911788">
        <ele>415.0</ele>
        <time>2008-07-05T19:01:18Z</time>
      </trkpt>
      <trkpt lat="41.317609" lon="1.911571">
        <ele>415.0</ele>
        <time>2008-07-05T19:01:20Z</time>
      </trkpt>
      <trkpt lat="41.317626" lon="1.911355">
        <ele>418.0</ele>
        <time>2008-07-05T19:01:22Z</time>
      </trkpt>
      <trkpt lat="41.317642" lon="1.911138">
        <ele>421.0</ele>
        <time>2008-07-05T19:01:24Z</time>
      </trkpt>
      <trkpt lat="41.317692" lon="1.910955">
        <ele>423.0</ele>
        <time>2008-07-05T19:01:26Z</time>
      </trkpt>
      <trkpt lat="41.317759" lon="1.910755">
        <ele>425.0</ele>
        <time>2008-07-05T19:01:28Z</time>
      </trkpt>
      <trkpt lat="41.317809" lon="1.910571">
        <ele>427.0</ele>
        <time>2008-07-05T19:01:30Z</time>
      </trkpt>
      <trkpt lat="41.317876" lon="1.910405">
        <ele>428.0</ele>
        <time>2008-07-05T19:01:32Z</time>
      </trkpt>
      <trkpt lat="41.317909" lon="1.910221">
        <ele>429.0</ele>
        <time>2008-07-05T19:01:34Z</time>
      </trkpt>
      <trkpt lat="41.317942" lon="1.910055">
        <ele>430.0</ele>
        <time>2008-07-05T19:01:36Z</time>
      </trkpt>
      <trkpt lat="41.317959" lon="1.909855">
        <ele>431.0</ele>
        <time>2008-07-05T19:01:38Z</time>
      </trkpt>
      <trkpt lat="41.317942" lon="1.909671">
        <ele>431.0</ele>
        <time>2008-07-05T19:01:40Z</time>
      </trkpt>
      <trkpt lat="41.317942" lon="1.909488">
        <ele>430.0</ele>
        <time>2008-07-05T19:01:42Z</time>
      </trkpt>
      <trkpt lat="41.317926" lon="1.909321">
        <ele>428.0</ele>
        <time>2008-07-05T19:01:44Z</time>
      </trkpt>
      <trkpt lat="41.317892" lon="1.909155">
        <ele>427.0</ele>
        <time>2008-07-05T19:01:46Z</time>
      </trkpt>
      <trkpt lat="41.317876" lon="1.908988">
        <ele>425.0</ele>
        <time>2008-07-05T19:01:48Z</time>
      </trkpt>
      <trkpt lat="41.317859" lon="1.908805">
        <ele>423.0</ele>
        <time>2008-07-05T19:01:50Z</time>
      </trkpt>
      <trkpt lat="41.317842" lon="1.908605">
        <ele>421.0</ele>
        <time>2008-07-05T19:01:52Z</time>
      </trkpt>
      <trkpt lat="41.317826" lon="1.908388">
        <ele>419.0</ele>
        <time>2008-07-05T19:01:54Z</time>
      </trkpt>
      <trkpt lat="41.317809" lon="1.908155">
        <ele>417.0</ele>
        <time>2008-07-05T19:01:56Z</time>
      </trkpt>
      <trkpt lat="41.317809" lon="1.907921">
        <ele>415.0</ele>
        <time>2008-07-05T19:01:58Z</time>
      </trkpt>
      <trkpt lat="41.317809" lon="1.907688">
        <ele>413.0</ele>
        <time>2008-07-05T19:02:00Z</time>
      </trkpt>
      <trkpt lat="41.317776" lon="1.907471">
        <ele>412.0</ele>
        <time>2008-07-05T19:02:02Z</time>
      </trkpt>
      <trkpt lat="41.317726" lon="1.907271">
        <ele>411.0</ele>
        <time>2008-07-05T19:02:04Z</time>
      </trkpt>
      <trkpt lat="41.317676" lon="1.907105">
        <ele>411.0</ele>
        <time>2008-07-05T19:02:06Z</time>
      </trkpt>
      <trkpt lat="41.317642" lon="1.906955">
        <ele>410.0</ele>
        <time>2008-07-05T19:02:08Z</time>
      </trkpt>
      <trkpt lat="41.317609" lon="1.906805">
        <ele>409.0</ele>
        <time>2008-07-05T19:02:10Z</time>
      </trkpt>
      <trkpt lat="41.317576" lon="1.906638">
        <ele>408.0</ele>
        <time>2008-07-05T19:02:12Z</time>
      </trkpt>
      <trkpt lat="41.317559" lon="1.906471">
        <ele>407.0</ele>
        <time>2008-07-05T19:02:14Z</time>
      </trkpt>
      <trkpt lat="41.317559" lon="1.906288">
        <ele>407.0</ele>
        <time>2008-07-05T19:02:16Z</time>
      </trkpt>
      <trkpt lat="41.317542" lon="1.906105">
        <ele>406.0</ele>
        <time>2008-07-05T19:02:18Z</time>
      </trkpt>
      <trkpt lat="41.317526" lon="1.905905">
        <ele>405.0</ele>
        <time>2008-07-05T19:02:20Z</time>
      </trkpt>
      <trkpt lat="41.317459" lon="1.905738">
        <ele>404.0</ele>
        <time>2008-07-05T19:02:22Z</time>
      </trkpt>
      <trkpt lat="41.317359" lon="1.905621">
        <ele>403.0</ele>
        <time>2008-07-05T19:02:24Z</time>
      </trkpt>
      <trkpt lat="41.317276" lon="1.905488">
        <ele>404.0</ele>
        <time>2008-07-05T19:02:26Z</time>
      </trkpt>
      <trkpt lat="41.317209" lon="1.905338">
        <ele>405.0</ele>
        <time>2008-07-05T19:02:28Z</time>
      </trkpt>
      <trkpt lat="41.317159" lon="1.905171">
        <ele>405.0</ele>
        <time>2008-07-05T19:02:30Z</time>
      </trkpt>
      <trkpt lat="41.317126" lon="1.904988">
        <ele>404.0</ele>
        <time>2008-07-05T19:02:32Z</time>
      </trkpt>
      <trkpt lat="41.317109" lon="1.904788">
        <ele>404.0</ele>
        <time>2008-07-05T19:02:34Z</time>
      </trkpt>
      <trkpt lat="41.317092" lon="1.904605">
        <ele>403.0</ele>
        <time>2008-07-05T19:02:36Z</time>
      </trkpt>
      <trkpt lat="41.317076" lon="1.904421">
        <ele>402.0</ele>
        <time>2008-07-05T19:02:38Z</time>
      </trkpt>
      <trkpt lat="41.317042" lon="1.904238">
        <ele>402.0</ele>
        <time>2008-07-05T19:02:40Z</time>
      </trkpt>
      <trkpt lat="41.317009" lon="1.904055">
        <ele>401.0</ele>
        <time>2008-07-05T19:02:42Z</time>
      </trkpt>
      <trkpt lat="41.316992" lon="1.903888">
        <ele>401.0</ele>
        <time>2008-07-05T19:02:44Z</time>
      </trkpt>
      <trkpt lat="41.316959" lon="1.903738">
        <ele>400.0</ele>
        <time>2008-07-05T19:02:46Z</time>
      </trkpt>
      <trkpt lat="41.316942" lon="1.903571">
        <ele>400.0</ele>
        <time>2008-07-05T19:02:48Z</time>
      </trkpt>
      <trkpt lat="41.316909" lon="1.903405">
        <ele>400.0</ele>
        <time>2008-07-05T19:02:50Z</time>
      </trkpt>
      <trkpt lat="41.316892" lon="1.903255">
        <ele>400.0</ele>
        <time>2008-07-05T19:02:52Z</time>
      </trkpt>
      <trkpt lat="41.316859" lon="1.903105">
        <ele>399.0</ele>
        <time>2008-07-05T19:02:54Z</time>
      </trkpt>
      <trkpt lat="41.316809" lon="1.902955">
        <ele>397.0</ele>
        <time>2008-07-05T19:02:56Z</time>
      </trkpt>
      <trkpt lat="41.316709" lon="1.902821">
        <ele>396.0</ele>
        <time>2008-07-05T19:02:58Z</time>
      </trkpt>
      <trkpt lat="41.316592" lon="1.902705">
        <ele>395.0</ele>
        <time>2008-07-05T19:03:00Z</time>
      </trkpt>
      <trkpt lat="41.316459" lon="1.902605">
        <ele>395.0</ele>
        <time>2008-07-05T19:03:02Z</time>
      </trkpt>
      <trkpt lat="41.316342" lon="1.902505">
        <ele>394.0</ele>
        <time>2008-07-05T19:03:04Z</time>
      </trkpt>
      <trkpt lat="41.316209" lon="1.902421">
        <ele>392.0</ele>
        <time>2008-07-05T19:03:06Z</time>
      </trkpt>
      <trkpt lat="41.316076" lon="1.902355">
        <ele>392.0</ele>
        <time>2008-07-05T19:03:08Z</time>
      </trkpt>
      <trkpt lat="41.315926" lon="1.902321">
        <ele>391.0</ele>
        <time>2008-07-05T19:03:10Z</time>
      </trkpt>
      <trkpt lat="41.315776" lon="1.902288">
        <ele>390.0</ele>
        <time>2008-07-05T19:03:12Z</time>
      </trkpt>
      <trkpt lat="41.315642" lon="1.902271">
        <ele>388.0</ele>
        <time>2008-07-05T19:03:14Z</time>
      </trkpt>
      <trkpt lat="41.315476" lon="1.902255">
        <ele>387.0</ele>
        <time>2008-07-05T19:03:16Z</time>
      </trkpt>
      <trkpt lat="41.315326" lon="1.902238">
        <ele>386.0</ele>
        <time>2008-07-05T19:03:18Z</time>
      </trkpt>
      <trkpt lat="41.315176" lon="1.902238">
        <ele>384.0</ele>
        <time>2008-07-05T19:03:20Z</time>
      </trkpt>
      <trkpt lat="41.315009" lon="1.902221">
        <ele>382.0</ele>
        <time>2008-07-05T19:03:22Z</time>
      </trkpt>
      <trkpt lat="41.314842" lon="1.902205">
        <ele>381.0</ele>
        <time>2008-07-05T19:03:24Z</time>
      </trkpt>
      <trkpt lat="41.314692" lon="1.902188">
        <ele>380.0</ele>
        <time>2008-07-05T19:03:26Z</time>
      </trkpt>
      <trkpt lat="41.314559" lon="1.902171">
        <ele>379.0</ele>
        <time>2008-07-05T19:03:28Z</time>
      </trkpt>
      <trkpt lat="41.314426" lon="1.902171">
        <ele>379.0</ele>
        <time>2008-07-05T19:03:30Z</time>
      </trkpt>
      <trkpt lat="41.314309" lon="1.902138">
        <ele>379.0</ele>
        <time>2008-07-05T19:03:32Z</time>
      </trkpt>
      <trkpt lat="41.314192" lon="1.902121">
        <ele>380.0</ele>
        <time>2008-07-05T19:03:34Z</time>
      </trkpt>
      <trkpt lat="41.314092" lon="1.902121">
        <ele>379.0</ele>
        <time>2008-07-05T19:03:36Z</time>
      </trkpt>
      <trkpt lat="41.313976" lon="1.902121">
        <ele>381.0</ele>
        <time>2008-07-05T19:03:38Z</time>
      </trkpt>
      <trkpt lat="41.313859" lon="1.902121">
        <ele>382.0</ele>
        <time>2008-07-05T19:03:40Z</time>
      </trkpt>
      <trkpt lat="41.313742" lon="1.902088">
        <ele>382.0</ele>
        <time>2008-07-05T19:03:42Z</time>
      </trkpt>
      <trkpt lat="41.313642" lon="1.902055">
        <ele>382.0</ele>
        <time>2008-07-05T19:03:44Z</time>
      </trkpt>
      <trkpt lat="41.313526" lon="1.901971">
        <ele>381.0</ele>
        <time>2008-07-05T19:03:46Z</time>
      </trkpt>
      <trkpt lat="41.313426" lon="1.901871">
        <ele>379.0</ele>
        <time>2008-07-05T19:03:48Z</time>
      </trkpt>
      <trkpt lat="41.313326" lon="1.901755">
        <ele>379.0</ele>
        <time>2008-07-05T19:03:50Z</time>
      </trkpt>
      <trkpt lat="41.313226" lon="1.901638">
        <ele>378.0</ele>
        <time>2008-07-05T19:03:52Z</time>
      </trkpt>
      <trkpt lat="41.313159" lon="1.901488">
        <ele>377.0</ele>
        <time>2008-07-05T19:03:54Z</time>
      </trkpt>
      <trkpt lat="41.313092" lon="1.901321">
        <ele>376.0</ele>
        <time>2008-07-05T19:03:56Z</time>
      </trkpt>
      <trkpt lat="41.313059" lon="1.901138">
        <ele>375.0</ele>
        <time>2008-07-05T19:03:58Z</time>
      </trkpt>
      <trkpt lat="41.313026" lon="1.900971">
        <ele>375.0</ele>
        <time>2008-07-05T19:04:00Z</time>
      </trkpt>
      <trkpt lat="41.313009" lon="1.900805">
        <ele>375.0</ele>
        <time>2008-07-05T19:04:02Z</time>
      </trkpt>
      <trkpt lat="41.313009" lon="1.900621">
        <ele>375.0</ele>
        <time>2008-07-05T19:04:04Z</time>
      </trkpt>
      <trkpt lat="41.313009" lon="1.900455">
        <ele>373.0</ele>
        <time>2008-07-05T19:04:06Z</time>
      </trkpt>
      <trkpt lat="41.313026" lon="1.900271">
        <ele>373.0</ele>
        <time>2008-07-05T19:04:08Z</time>
      </trkpt>
      <trkpt lat="41.313042" lon="1.900088">
        <ele>372.0</ele>
        <time>2008-07-05T19:04:10Z</time>
      </trkpt>
      <trkpt lat="41.313076" lon="1.899921">
        <ele>372.0</ele>
        <time>2008-07-05T19:04:12Z</time>
      </trkpt>
      <trkpt lat="41.313092" lon="1.899755">
        <ele>371.0</ele>
        <time>2008-07-05T19:04:14Z</time>
      </trkpt>
      <trkpt lat="41.313109" lon="1.899588">
        <ele>369.0</ele>
        <time>2008-07-05T19:04:16Z</time>
      </trkpt>
      <trkpt lat="41.313109" lon="1.899438">
        <ele>367.0</ele>
        <time>2008-07-05T19:04:18Z</time>
      </trkpt>
      <trkpt lat="41.313092" lon="1.899255">
        <ele>366.0</ele>
        <time>2008-07-05T19:04:20Z</time>
      </trkpt>
      <trkpt lat="41.313042" lon="1.899071">
        <ele>365.0</ele>
        <time>2008-07-05T19:04:22Z</time>
      </trkpt>
      <trkpt lat="41.312992" lon="1.898905">
        <ele>365.0</ele>
        <time>2008-07-05T19:04:24Z</time>
      </trkpt>
      <trkpt lat="41.312926" lon="1.898755">
        <ele>366.0</ele>
        <time>2008-07-05T19:04:26Z</time>
      </trkpt>
      <trkpt lat="41.312859" lon="1.898588">
        <ele>366.0</ele>
        <time>2008-07-05T19:04:28Z</time>
      </trkpt>
      <trkpt lat="41.312809" lon="1.898405">
        <ele>366.0</ele>
        <time>2008-07-05T19:04:30Z</time>
      </trkpt>
      <trkpt lat="41.312742" lon="1.898221">
        <ele>365.0</ele>
        <time>2008-07-05T19:04:32Z</time>
      </trkpt>
      <trkpt lat="41.312676" lon="1.898038">
        <ele>364.0</ele>
        <time>2008-07-05T19:04:34Z</time>
      </trkpt>
      <trkpt lat="41.312592" lon="1.897871">
        <ele>363.0</ele>
        <time>2008-07-05T19:04:36Z</time>
      </trkpt>
      <trkpt lat="41.312492" lon="1.897721">
        <ele>363.0</ele>
        <time>2008-07-05T19:04:38Z</time>
      </trkpt>
      <trkpt lat="41.312392" lon="1.897588">
        <ele>364.0</ele>
        <time>2008-07-05T19:04:40Z</time>
      </trkpt>
      <trkpt lat="41.312292" lon="1.897455">
        <ele>364.0</ele>
        <time>2008-07-05T19:04:42Z</time>
      </trkpt>
      <trkpt lat="41.312192" lon="1.897321">
        <ele>365.0</ele>
        <time>2008-07-05T19:04:44Z</time>
      </trkpt>
      <trkpt lat="41.312076" lon="1.897188">
        <ele>366.0</ele>
        <time>2008-07-05T19:04:46Z</time>
      </trkpt>
      <trkpt lat="41.311959" lon="1.897071">
        <ele>367.0</ele>
        <time>2008-07-05T19:04:48Z</time>
      </trkpt>
      <trkpt lat="41.311842" lon="1.896955">
        <ele>367.0</ele>
        <time>2008-07-05T19:04:50Z</time>
      </trkpt>
      <trkpt lat="41.311709" lon="1.896838">
        <ele>364.0</ele>
        <time>2008-07-05T19:04:52Z</time>
      </trkpt>
      <trkpt lat="41.311576" lon="1.896721">
        <ele>362.0</ele>
        <time>2008-07-05T19:04:54Z</time>
      </trkpt>
      <trkpt lat="41.311442" lon="1.896588">
        <ele>358.0</ele>
        <time>2008-07-05T19:04:56Z</time>
      </trkpt>
      <trkpt lat="41.311292" lon="1.896438">
        <ele>355.0</ele>
        <time>2008-07-05T19:04:58Z</time>
      </trkpt>
      <trkpt lat="41.311142" lon="1.896288">
        <ele>353.0</ele>
        <time>2008-07-05T19:05:00Z</time>
      </trkpt>
      <trkpt lat="41.311009" lon="1.896155">
        <ele>352.0</ele>
        <time>2008-07-05T19:05:02Z</time>
      </trkpt>
      <trkpt lat="41.310876" lon="1.896055">
        <ele>353.0</ele>
        <time>2008-07-05T19:05:04Z</time>
      </trkpt>
      <trkpt lat="41.310742" lon="1.895921">
        <ele>355.0</ele>
        <time>2008-07-05T19:05:06Z</time>
      </trkpt>
      <trkpt lat="41.310609" lon="1.895805">
        <ele>357.0</ele>
        <time>2008-07-05T19:05:08Z</time>
      </trkpt>
      <trkpt lat="41.310476" lon="1.895688">
        <ele>359.0</ele>
        <time>2008-07-05T19:05:10Z</time>
      </trkpt>
      <trkpt lat="41.310342" lon="1.895588">
        <ele>360.0</ele>
        <time>2008-07-05T19:05:12Z</time>
      </trkpt>
      <trkpt lat="41.310192" lon="1.895471">
        <ele>360.0</ele>
        <time>2008-07-05T19:05:14Z</time>
      </trkpt>
      <trkpt lat="41.310059" lon="1.895338">
        <ele>359.0</ele>
        <time>2008-07-05T19:05:16Z</time>
      </trkpt>
      <trkpt lat="41.309909" lon="1.895255">
        <ele>357.0</ele>
        <time>2008-07-05T19:05:18Z</time>
      </trkpt>
      <trkpt lat="41.309776" lon="1.895171">
        <ele>357.0</ele>
        <time>2008-07-05T19:05:20Z</time>
      </trkpt>
      <trkpt lat="41.309659" lon="1.895138">
        <ele>357.0</ele>
        <time>2008-07-05T19:05:22Z</time>
      </trkpt>
      <trkpt lat="41.309509" lon="1.895105">
        <ele>357.0</ele>
        <time>2008-07-05T19:05:24Z</time>
      </trkpt>
      <trkpt lat="41.309376" lon="1.895055">
        <ele>357.0</ele>
        <time>2008-07-05T19:05:26Z</time>
      </trkpt>
      <trkpt lat="41.309226" lon="1.894988">
        <ele>357.0</ele>
        <time>2008-07-05T19:05:28Z</time>
      </trkpt>
      <trkpt lat="41.309092" lon="1.894921">
        <ele>356.0</ele>
        <time>2008-07-05T19:05:30Z</time>
      </trkpt>
      <trkpt lat="41.308942" lon="1.894855">
        <ele>355.0</ele>
        <time>2008-07-05T19:05:32Z</time>
      </trkpt>
      <trkpt lat="41.308792" lon="1.894755">
        <ele>353.0</ele>
        <time>2008-07-05T19:05:34Z</time>
      </trkpt>
      <trkpt lat="41.308642" lon="1.894671">
        <ele>354.0</ele>
        <time>2008-07-05T19:05:36Z</time>
      </trkpt>
      <trkpt lat="41.308492" lon="1.894605">
        <ele>353.0</ele>
        <time>2008-07-05T19:05:38Z</time>
      </trkpt>
      <trkpt lat="41.308376" lon="1.894571">
        <ele>353.0</ele>
        <time>2008-07-05T19:05:40Z</time>
      </trkpt>
      <trkpt lat="41.308242" lon="1.894538">
        <ele>354.0</ele>
        <time>2008-07-05T19:05:42Z</time>
      </trkpt>
      <trkpt lat="41.308109" lon="1.894488">
        <ele>354.0</ele>
        <time>2008-07-05T19:05:44Z</time>
      </trkpt>
      <trkpt lat="41.307942" lon="1.894438">
        <ele>354.0</ele>
        <time>2008-07-05T19:05:46Z</time>
      </trkpt>
      <trkpt lat="41.307792" lon="1.894371">
        <ele>355.0</ele>
        <time>2008-07-05T19:05:48Z</time>
      </trkpt>
      <trkpt lat="41.307642" lon="1.894321">
        <ele>355.0</ele>
        <time>2008-07-05T19:05:50Z</time>
      </trkpt>
      <trkpt lat="41.307492" lon="1.894288">
        <ele>357.0</ele>
        <time>2008-07-05T19:05:52Z</time>
      </trkpt>
      <trkpt lat="41.307359" lon="1.894238">
        <ele>359.0</ele>
        <time>2008-07-05T19:05:54Z</time>
      </trkpt>
      <trkpt lat="41.307226" lon="1.894205">
        <ele>359.0</ele>
        <time>2008-07-05T19:05:56Z</time>
      </trkpt>
      <trkpt lat="41.307109" lon="1.894171">
        <ele>358.0</ele>
        <time>2008-07-05T19:05:58Z</time>
      </trkpt>
      <trkpt lat="41.306976" lon="1.894105">
        <ele>356.0</ele>
        <time>2008-07-05T19:06:00Z</time>
      </trkpt>
      <trkpt lat="41.306826" lon="1.894021">
        <ele>353.0</ele>
        <time>2008-07-05T19:06:02Z</time>
      </trkpt>
      <trkpt lat="41.306676" lon="1.893938">
        <ele>351.0</ele>
        <time>2008-07-05T19:06:04Z</time>
      </trkpt>
      <trkpt lat="41.306526" lon="1.893871">
        <ele>350.0</ele>
        <time>2008-07-05T19:06:06Z</time>
      </trkpt>
      <trkpt lat="41.306376" lon="1.893805">
        <ele>349.0</ele>
        <time>2008-07-05T19:06:08Z</time>
      </trkpt>
      <trkpt lat="41.306259" lon="1.893738">
        <ele>349.0</ele>
        <time>2008-07-05T19:06:10Z</time>
      </trkpt>
      <trkpt lat="41.306159" lon="1.893638">
        <ele>348.0</ele>
        <time>2008-07-05T19:06:12Z</time>
      </trkpt>
      <trkpt lat="41.306042" lon="1.893505">
        <ele>347.0</ele>
        <time>2008-07-05T19:06:14Z</time>
      </trkpt>
      <trkpt lat="41.305942" lon="1.893388">
        <ele>347.0</ele>
        <time>2008-07-05T19:06:16Z</time>
      </trkpt>
      <trkpt lat="41.305842" lon="1.893271">
        <ele>346.0</ele>
        <time>2008-07-05T19:06:18Z</time>
      </trkpt>
      <trkpt lat="41.305742" lon="1.893138">
        <ele>346.0</ele>
        <time>2008-07-05T19:06:20Z</time>
      </trkpt>
      <trkpt lat="41.305659" lon="1.892971">
        <ele>345.0</ele>
        <time>2008-07-05T19:06:22Z</time>
      </trkpt>
      <trkpt lat="41.305576" lon="1.892821">
        <ele>344.0</ele>
        <time>2008-07-05T19:06:24Z</time>
      </trkpt>
      <trkpt lat="41.305492" lon="1.892638">
        <ele>342.0</ele>
        <time>2008-07-05T19:06:26Z</time>
      </trkpt>
      <trkpt lat="41.305409" lon="1.892455">
        <ele>340.0</ele>
        <time>2008-07-05T19:06:28Z</time>
      </trkpt>
      <trkpt lat="41.305342" lon="1.892255">
        <ele>339.0</ele>
        <time>2008-07-05T19:06:30Z</time>
      </trkpt>
      <trkpt lat="41.305276" lon="1.892071">
        <ele>338.0</ele>
        <time>2008-07-05T19:06:32Z</time>
      </trkpt>
      <trkpt lat="41.305242" lon="1.891905">
        <ele>337.0</ele>
        <time>2008-07-05T19:06:34Z</time>
      </trkpt>
      <trkpt lat="41.305209" lon="1.891721">
        <ele>337.0</ele>
        <time>2008-07-05T19:06:36Z</time>
      </trkpt>
      <trkpt lat="41.305176" lon="1.891555">
        <ele>337.0</ele>
        <time>2008-07-05T19:06:38Z</time>
      </trkpt>
      <trkpt lat="41.305159" lon="1.891355">
        <ele>337.0</ele>
        <time>2008-07-05T19:06:40Z</time>
      </trkpt>
      <trkpt lat="41.305126" lon="1.891155">
        <ele>337.0</ele>
        <time>2008-07-05T19:06:42Z</time>
      </trkpt>
      <trkpt lat="41.305042" lon="1.891005">
        <ele>336.0</ele>
        <time>2008-07-05T19:06:44Z</time>
      </trkpt>
      <trkpt lat="41.304959" lon="1.890905">
        <ele>337.0</ele>
        <time>2008-07-05T19:06:46Z</time>
      </trkpt>
      <trkpt lat="41.304842" lon="1.890821">
        <ele>337.0</ele>
        <time>2008-07-05T19:06:48Z</time>
      </trkpt>
      <trkpt lat="41.304709" lon="1.890755">
        <ele>337.0</ele>
        <time>2008-07-05T19:06:50Z</time>
      </trkpt>
      <trkpt lat="41.304592" lon="1.890705">
        <ele>337.0</ele>
        <time>2008-07-05T19:06:52Z</time>
      </trkpt>
      <trkpt lat="41.304459" lon="1.890688">
        <ele>337.0</ele>
        <time>2008-07-05T19:06:54Z</time>
      </trkpt>
      <trkpt lat="41.304342" lon="1.890638">
        <ele>337.0</ele>
        <time>2008-07-05T19:06:56Z</time>
      </trkpt>
      <trkpt lat="41.304226" lon="1.890588">
        <ele>336.0</ele>
        <time>2008-07-05T19:06:58Z</time>
      </trkpt>
      <trkpt lat="41.304142" lon="1.890488">
        <ele>336.0</ele>
        <time>2008-07-05T19:07:00Z</time>
      </trkpt>
      <trkpt lat="41.304076" lon="1.890371">
        <ele>335.0</ele>
        <time>2008-07-05T19:07:02Z</time>
      </trkpt>
      <trkpt lat="41.304042" lon="1.890205">
        <ele>335.0</ele>
        <time>2008-07-05T19:07:04Z</time>
      </trkpt>
      <trkpt lat="41.304026" lon="1.890038">
        <ele>334.0</ele>
        <time>2008-07-05T19:07:06Z</time>
      </trkpt>
      <trkpt lat="41.304042" lon="1.889855">
        <ele>333.0</ele>
        <time>2008-07-05T19:07:08Z</time>
      </trkpt>
      <trkpt lat="41.304059" lon="1.889688">
        <ele>332.0</ele>
        <time>2008-07-05T19:07:10Z</time>
      </trkpt>
      <trkpt lat="41.304092" lon="1.889538">
        <ele>332.0</ele>
        <time>2008-07-05T19:07:12Z</time>
      </trkpt>
      <trkpt lat="41.304142" lon="1.889405">
        <ele>332.0</ele>
        <time>2008-07-05T19:07:14Z</time>
      </trkpt>
      <trkpt lat="41.304192" lon="1.889238">
        <ele>330.0</ele>
        <time>2008-07-05T19:07:16Z</time>
      </trkpt>
      <trkpt lat="41.304242" lon="1.889071">
        <ele>330.0</ele>
        <time>2008-07-05T19:07:18Z</time>
      </trkpt>
      <trkpt lat="41.304292" lon="1.888888">
        <ele>329.0</ele>
        <time>2008-07-05T19:07:20Z</time>
      </trkpt>
      <trkpt lat="41.304359" lon="1.888705">
        <ele>327.0</ele>
        <time>2008-07-05T19:07:22Z</time>
      </trkpt>
      <trkpt lat="41.304426" lon="1.888538">
        <ele>326.0</ele>
        <time>2008-07-05T19:07:24Z</time>
      </trkpt>
      <trkpt lat="41.304492" lon="1.888405">
        <ele>325.0</ele>
        <time>2008-07-05T19:07:26Z</time>
      </trkpt>
      <trkpt lat="41.304576" lon="1.888288">
        <ele>325.0</ele>
        <time>2008-07-05T19:07:28Z</time>
      </trkpt>
      <trkpt lat="41.304676" lon="1.888188">
        <ele>325.0</ele>
        <time>2008-07-05T19:07:30Z</time>
      </trkpt>
      <trkpt lat="41.304726" lon="1.888121">
        <ele>324.0</ele>
        <time>2008-07-05T19:07:31Z</time>
      </trkpt>
      <trkpt lat="41.304776" lon="1.888071">
        <ele>324.0</ele>
        <time>2008-07-05T19:07:32Z</time>
      </trkpt>
      <trkpt lat="41.304876" lon="1.887955">
        <ele>322.0</ele>
        <time>2008-07-05T19:07:34Z</time>
      </trkpt>
      <trkpt lat="41.304992" lon="1.887821">
        <ele>321.0</ele>
        <time>2008-07-05T19:07:36Z</time>
      </trkpt>
      <trkpt lat="41.305092" lon="1.887705">
        <ele>320.0</ele>
        <time>2008-07-05T19:07:38Z</time>
      </trkpt>
      <trkpt lat="41.305209" lon="1.887588">
        <ele>319.0</ele>
        <time>2008-07-05T19:07:40Z</time>
      </trkpt>
      <trkpt lat="41.305309" lon="1.887455">
        <ele>318.0</ele>
        <time>2008-07-05T19:07:42Z</time>
      </trkpt>
      <trkpt lat="41.305409" lon="1.887338">
        <ele>318.0</ele>
        <time>2008-07-05T19:07:44Z</time>
      </trkpt>
      <trkpt lat="41.305492" lon="1.887221">
        <ele>317.0</ele>
        <time>2008-07-05T19:07:46Z</time>
      </trkpt>
      <trkpt lat="41.305576" lon="1.887121">
        <ele>317.0</ele>
        <time>2008-07-05T19:07:48Z</time>
      </trkpt>
      <trkpt lat="41.305642" lon="1.886988">
        <ele>317.0</ele>
        <time>2008-07-05T19:07:50Z</time>
      </trkpt>
      <trkpt lat="41.305709" lon="1.886821">
        <ele>318.0</ele>
        <time>2008-07-05T19:07:52Z</time>
      </trkpt>
      <trkpt lat="41.305709" lon="1.886655">
        <ele>319.0</ele>
        <time>2008-07-05T19:07:54Z</time>
      </trkpt>
      <trkpt lat="41.305692" lon="1.886471">
        <ele>318.0</ele>
        <time>2008-07-05T19:07:56Z</time>
      </trkpt>
      <trkpt lat="41.305692" lon="1.886305">
        <ele>317.0</ele>
        <time>2008-07-05T19:07:58Z</time>
      </trkpt>
      <trkpt lat="41.305709" lon="1.886121">
        <ele>316.0</ele>
        <time>2008-07-05T19:08:00Z</time>
      </trkpt>
      <trkpt lat="41.305759" lon="1.885938">
        <ele>314.0</ele>
        <time>2008-07-05T19:08:02Z</time>
      </trkpt>
      <trkpt lat="41.305809" lon="1.885788">
        <ele>311.0</ele>
        <time>2008-07-05T19:08:04Z</time>
      </trkpt>
      <trkpt lat="41.305876" lon="1.885638">
        <ele>308.0</ele>
        <time>2008-07-05T19:08:06Z</time>
      </trkpt>
      <trkpt lat="41.305942" lon="1.885505">
        <ele>306.0</ele>
        <time>2008-07-05T19:08:08Z</time>
      </trkpt>
      <trkpt lat="41.305992" lon="1.885355">
        <ele>304.0</ele>
        <time>2008-07-05T19:08:10Z</time>
      </trkpt>
      <trkpt lat="41.306076" lon="1.885205">
        <ele>303.0</ele>
        <time>2008-07-05T19:08:12Z</time>
      </trkpt>
      <trkpt lat="41.306159" lon="1.885038">
        <ele>303.0</ele>
        <time>2008-07-05T19:08:14Z</time>
      </trkpt>
      <trkpt lat="41.306226" lon="1.884871">
        <ele>304.0</ele>
        <time>2008-07-05T19:08:16Z</time>
      </trkpt>
      <trkpt lat="41.306276" lon="1.884721">
        <ele>305.0</ele>
        <time>2008-07-05T19:08:18Z</time>
      </trkpt>
      <trkpt lat="41.306276" lon="1.884538">
        <ele>306.0</ele>
        <time>2008-07-05T19:08:20Z</time>
      </trkpt>
      <trkpt lat="41.306276" lon="1.884355">
        <ele>306.0</ele>
        <time>2008-07-05T19:08:22Z</time>
      </trkpt>
      <trkpt lat="41.306259" lon="1.884155">
        <ele>308.0</ele>
        <time>2008-07-05T19:08:24Z</time>
      </trkpt>
      <trkpt lat="41.306242" lon="1.883955">
        <ele>308.0</ele>
        <time>2008-07-05T19:08:26Z</time>
      </trkpt>
      <trkpt lat="41.306209" lon="1.883755">
        <ele>307.0</ele>
        <time>2008-07-05T19:08:28Z</time>
      </trkpt>
      <trkpt lat="41.306192" lon="1.883555">
        <ele>307.0</ele>
        <time>2008-07-05T19:08:30Z</time>
      </trkpt>
      <trkpt lat="41.306159" lon="1.883355">
        <ele>306.0</ele>
        <time>2008-07-05T19:08:32Z</time>
      </trkpt>
      <trkpt lat="41.306109" lon="1.883171">
        <ele>305.0</ele>
        <time>2008-07-05T19:08:34Z</time>
      </trkpt>
      <trkpt lat="41.306026" lon="1.883005">
        <ele>304.0</ele>
        <time>2008-07-05T19:08:36Z</time>
      </trkpt>
      <trkpt lat="41.305942" lon="1.882855">
        <ele>304.0</ele>
        <time>2008-07-05T19:08:38Z</time>
      </trkpt>
      <trkpt lat="41.305859" lon="1.882688">
        <ele>304.0</ele>
        <time>2008-07-05T19:08:40Z</time>
      </trkpt>
      <trkpt lat="41.305759" lon="1.882538">
        <ele>303.0</ele>
        <time>2008-07-05T19:08:42Z</time>
      </trkpt>
      <trkpt lat="41.305659" lon="1.882388">
        <ele>304.0</ele>
        <time>2008-07-05T19:08:44Z</time>
      </trkpt>
      <trkpt lat="41.305576" lon="1.882221">
        <ele>305.0</ele>
        <time>2008-07-05T19:08:46Z</time>
      </trkpt>
      <trkpt lat="41.305492" lon="1.882055">
        <ele>305.0</ele>
        <time>2008-07-05T19:08:48Z</time>
      </trkpt>
      <trkpt lat="41.305426" lon="1.881888">
        <ele>307.0</ele>
        <time>2008-07-05T19:08:50Z</time>
      </trkpt>
      <trkpt lat="41.305359" lon="1.881721">
        <ele>308.0</ele>
        <time>2008-07-05T19:08:52Z</time>
      </trkpt>
      <trkpt lat="41.305326" lon="1.881538">
        <ele>311.0</ele>
        <time>2008-07-05T19:08:54Z</time>
      </trkpt>
      <trkpt lat="41.305292" lon="1.881371">
        <ele>311.0</ele>
        <time>2008-07-05T19:08:56Z</time>
      </trkpt>
      <trkpt lat="41.305209" lon="1.881238">
        <ele>311.0</ele>
        <time>2008-07-05T19:08:58Z</time>
      </trkpt>
      <trkpt lat="41.305076" lon="1.881155">
        <ele>309.0</ele>
        <time>2008-07-05T19:09:00Z</time>
      </trkpt>
      <trkpt lat="41.304909" lon="1.881105">
        <ele>308.0</ele>
        <time>2008-07-05T19:09:02Z</time>
      </trkpt>
      <trkpt lat="41.304742" lon="1.881071">
        <ele>306.0</ele>
        <time>2008-07-05T19:09:04Z</time>
      </trkpt>
      <trkpt lat="41.304592" lon="1.881005">
        <ele>304.0</ele>
        <time>2008-07-05T19:09:06Z</time>
      </trkpt>
      <trkpt lat="41.304459" lon="1.880921">
        <ele>303.0</ele>
        <time>2008-07-05T19:09:08Z</time>
      </trkpt>
      <trkpt lat="41.304342" lon="1.880821">
        <ele>302.0</ele>
        <time>2008-07-05T19:09:10Z</time>
      </trkpt>
      <trkpt lat="41.304226" lon="1.880688">
        <ele>300.0</ele>
        <time>2008-07-05T19:09:12Z</time>
      </trkpt>
      <trkpt lat="41.304092" lon="1.880521">
        <ele>296.0</ele>
        <time>2008-07-05T19:09:14Z</time>
      </trkpt>
      <trkpt lat="41.303976" lon="1.880321">
        <ele>295.0</ele>
        <time>2008-07-05T19:09:16Z</time>
      </trkpt>
      <trkpt lat="41.303842" lon="1.880138">
        <ele>294.0</ele>
        <time>2008-07-05T19:09:18Z</time>
      </trkpt>
      <trkpt lat="41.303709" lon="1.879971">
        <ele>292.0</ele>
        <time>2008-07-05T19:09:20Z</time>
      </trkpt>
      <trkpt lat="41.303592" lon="1.879821">
        <ele>291.0</ele>
        <time>2008-07-05T19:09:22Z</time>
      </trkpt>
      <trkpt lat="41.303476" lon="1.879655">
        <ele>289.0</ele>
        <time>2008-07-05T19:09:24Z</time>
      </trkpt>
      <trkpt lat="41.303392" lon="1.879555">
        <ele>289.0</ele>
        <time>2008-07-05T19:09:26Z</time>
      </trkpt>
      <trkpt lat="41.303376" lon="1.879521">
        <ele>288.0</ele>
        <time>2008-07-05T19:09:28Z</time>
      </trkpt>
      <trkpt lat="41.303359" lon="1.879488">
        <ele>288.0</ele>
        <time>2008-07-05T19:09:30Z</time>
      </trkpt>
      <trkpt lat="41.303326" lon="1.879455">
        <ele>288.0</ele>
        <time>2008-07-05T19:09:31Z</time>
      </trkpt>
      <trkpt lat="41.303309" lon="1.879405">
        <ele>287.0</ele>
        <time>2008-07-05T19:09:32Z</time>
      </trkpt>
      <trkpt lat="41.303226" lon="1.879271">
        <ele>289.0</ele>
        <time>2008-07-05T19:09:34Z</time>
      </trkpt>
      <trkpt lat="41.303142" lon="1.879121">
        <ele>290.0</ele>
        <time>2008-07-05T19:09:36Z</time>
      </trkpt>
      <trkpt lat="41.303059" lon="1.878955">
        <ele>291.0</ele>
        <time>2008-07-05T19:09:38Z</time>
      </trkpt>
      <trkpt lat="41.303009" lon="1.878788">
        <ele>291.0</ele>
        <time>2008-07-05T19:09:40Z</time>
      </trkpt>
      <trkpt lat="41.302992" lon="1.878621">
        <ele>291.0</ele>
        <time>2008-07-05T19:09:42Z</time>
      </trkpt>
      <trkpt lat="41.302959" lon="1.878471">
        <ele>290.0</ele>
        <time>2008-07-05T19:09:44Z</time>
      </trkpt>
      <trkpt lat="41.302892" lon="1.878338">
        <ele>288.0</ele>
        <time>2008-07-05T19:09:46Z</time>
      </trkpt>
      <trkpt lat="41.302776" lon="1.878255">
        <ele>284.0</ele>
        <time>2008-07-05T19:09:48Z</time>
      </trkpt>
      <trkpt lat="41.302642" lon="1.878171">
        <ele>282.0</ele>
        <time>2008-07-05T19:09:50Z</time>
      </trkpt>
      <trkpt lat="41.302509" lon="1.878105">
        <ele>280.0</ele>
        <time>2008-07-05T19:09:52Z</time>
      </trkpt>
      <trkpt lat="41.302426" lon="1.878071">
        <ele>277.0</ele>
        <time>2008-07-05T19:09:54Z</time>
      </trkpt>
      <trkpt lat="41.302326" lon="1.878021">
        <ele>275.0</ele>
        <time>2008-07-05T19:09:56Z</time>
      </trkpt>
      <trkpt lat="41.302209" lon="1.877938">
        <ele>274.0</ele>
        <time>2008-07-05T19:09:58Z</time>
      </trkpt>
      <trkpt lat="41.302159" lon="1.877871">
        <ele>273.0</ele>
        <time>2008-07-05T19:09:59Z</time>
      </trkpt>
      <trkpt lat="41.302092" lon="1.877821">
        <ele>273.0</ele>
        <time>2008-07-05T19:10:00Z</time>
      </trkpt>
      <trkpt lat="41.301976" lon="1.877705">
        <ele>272.0</ele>
        <time>2008-07-05T19:10:02Z</time>
      </trkpt>
      <trkpt lat="41.301842" lon="1.877588">
        <ele>271.0</ele>
        <time>2008-07-05T19:10:04Z</time>
      </trkpt>
      <trkpt lat="41.301709" lon="1.877455">
        <ele>270.0</ele>
        <time>2008-07-05T19:10:06Z</time>
      </trkpt>
      <trkpt lat="41.301559" lon="1.877338">
        <ele>269.0</ele>
        <time>2008-07-05T19:10:08Z</time>
      </trkpt>
      <trkpt lat="41.301409" lon="1.877238">
        <ele>269.0</ele>
        <time>2008-07-05T19:10:10Z</time>
      </trkpt>
      <trkpt lat="41.301259" lon="1.877155">
        <ele>271.0</ele>
        <time>2008-07-05T19:10:12Z</time>
      </trkpt>
      <trkpt lat="41.301126" lon="1.877088">
        <ele>273.0</ele>
        <time>2008-07-05T19:10:14Z</time>
      </trkpt>
      <trkpt lat="41.301059" lon="1.877005">
        <ele>275.0</ele>
        <time>2008-07-05T19:10:16Z</time>
      </trkpt>
      <trkpt lat="41.301009" lon="1.876905">
        <ele>274.0</ele>
        <time>2008-07-05T19:10:18Z</time>
      </trkpt>
      <trkpt lat="41.300959" lon="1.876755">
        <ele>272.0</ele>
        <time>2008-07-05T19:10:20Z</time>
      </trkpt>
      <trkpt lat="41.300909" lon="1.876571">
        <ele>271.0</ele>
        <time>2008-07-05T19:10:22Z</time>
      </trkpt>
      <trkpt lat="41.300876" lon="1.876405">
        <ele>270.0</ele>
        <time>2008-07-05T19:10:24Z</time>
      </trkpt>
      <trkpt lat="41.300826" lon="1.876238">
        <ele>270.0</ele>
        <time>2008-07-05T19:10:26Z</time>
      </trkpt>
      <trkpt lat="41.300792" lon="1.876071">
        <ele>269.0</ele>
        <time>2008-07-05T19:10:28Z</time>
      </trkpt>
      <trkpt lat="41.300742" lon="1.875905">
        <ele>268.0</ele>
        <time>2008-07-05T19:10:30Z</time>
      </trkpt>
      <trkpt lat="41.300709" lon="1.875738">
        <ele>268.0</ele>
        <time>2008-07-05T19:10:32Z</time>
      </trkpt>
      <trkpt lat="41.300642" lon="1.875605">
        <ele>266.0</ele>
        <time>2008-07-05T19:10:34Z</time>
      </trkpt>
      <trkpt lat="41.300559" lon="1.875488">
        <ele>265.0</ele>
        <time>2008-07-05T19:10:36Z</time>
      </trkpt>
      <trkpt lat="41.300459" lon="1.875421">
        <ele>264.0</ele>
        <time>2008-07-05T19:10:38Z</time>
      </trkpt>
      <trkpt lat="41.300326" lon="1.875388">
        <ele>263.0</ele>
        <time>2008-07-05T19:10:40Z</time>
      </trkpt>
      <trkpt lat="41.300192" lon="1.875355">
        <ele>262.0</ele>
        <time>2008-07-05T19:10:42Z</time>
      </trkpt>
      <trkpt lat="41.300076" lon="1.875355">
        <ele>260.0</ele>
        <time>2008-07-05T19:10:44Z</time>
      </trkpt>
      <trkpt lat="41.299976" lon="1.875355">
        <ele>259.0</ele>
        <time>2008-07-05T19:10:46Z</time>
      </trkpt>
      <trkpt lat="41.299859" lon="1.875371">
        <ele>259.0</ele>
        <time>2008-07-05T19:10:48Z</time>
      </trkpt>
      <trkpt lat="41.299759" lon="1.875338">
        <ele>258.0</ele>
        <time>2008-07-05T19:10:50Z</time>
      </trkpt>
      <trkpt lat="41.299659" lon="1.875255">
        <ele>257.0</ele>
        <time>2008-07-05T19:10:52Z</time>
      </trkpt>
      <trkpt lat="41.299559" lon="1.875138">
        <ele>255.0</ele>
        <time>2008-07-05T19:10:54Z</time>
      </trkpt>
      <trkpt lat="41.299442" lon="1.875005">
        <ele>254.0</ele>
        <time>2008-07-05T19:10:56Z</time>
      </trkpt>
      <trkpt lat="41.299326" lon="1.874871">
        <ele>253.0</ele>
        <time>2008-07-05T19:10:58Z</time>
      </trkpt>
      <trkpt lat="41.299242" lon="1.874738">
        <ele>252.0</ele>
        <time>2008-07-05T19:11:00Z</time>
      </trkpt>
      <trkpt lat="41.299142" lon="1.874621">
        <ele>253.0</ele>
        <time>2008-07-05T19:11:02Z</time>
      </trkpt>
      <trkpt lat="41.299059" lon="1.874488">
        <ele>253.0</ele>
        <time>2008-07-05T19:11:04Z</time>
      </trkpt>
      <trkpt lat="41.298976" lon="1.874355">
        <ele>253.0</ele>
        <time>2008-07-05T19:11:06Z</time>
      </trkpt>
      <trkpt lat="41.298859" lon="1.874221">
        <ele>251.0</ele>
        <time>2008-07-05T19:11:08Z</time>
      </trkpt>
      <trkpt lat="41.298742" lon="1.874071">
        <ele>251.0</ele>
        <time>2008-07-05T19:11:10Z</time>
      </trkpt>
      <trkpt lat="41.298626" lon="1.873938">
        <ele>250.0</ele>
        <time>2008-07-05T19:11:12Z</time>
      </trkpt>
      <trkpt lat="41.298526" lon="1.873821">
        <ele>250.0</ele>
        <time>2008-07-05T19:11:14Z</time>
      </trkpt>
      <trkpt lat="41.298409" lon="1.873705">
        <ele>251.0</ele>
        <time>2008-07-05T19:11:16Z</time>
      </trkpt>
      <trkpt lat="41.298292" lon="1.873588">
        <ele>253.0</ele>
        <time>2008-07-05T19:11:18Z</time>
      </trkpt>
      <trkpt lat="41.298192" lon="1.873421">
        <ele>253.0</ele>
        <time>2008-07-05T19:11:20Z</time>
      </trkpt>
      <trkpt lat="41.298126" lon="1.873255">
        <ele>252.0</ele>
        <time>2008-07-05T19:11:22Z</time>
      </trkpt>
      <trkpt lat="41.298042" lon="1.873071">
        <ele>250.0</ele>
        <time>2008-07-05T19:11:24Z</time>
      </trkpt>
      <trkpt lat="41.297992" lon="1.872888">
        <ele>249.0</ele>
        <time>2008-07-05T19:11:26Z</time>
      </trkpt>
      <trkpt lat="41.297942" lon="1.872705">
        <ele>248.0</ele>
        <time>2008-07-05T19:11:28Z</time>
      </trkpt>
      <trkpt lat="41.297909" lon="1.872521">
        <ele>245.0</ele>
        <time>2008-07-05T19:11:30Z</time>
      </trkpt>
      <trkpt lat="41.297892" lon="1.872438">
        <ele>245.0</ele>
        <time>2008-07-05T19:11:31Z</time>
      </trkpt>
      <trkpt lat="41.297892" lon="1.872338">
        <ele>244.0</ele>
        <time>2008-07-05T19:11:32Z</time>
      </trkpt>
      <trkpt lat="41.297859" lon="1.872155">
        <ele>243.0</ele>
        <time>2008-07-05T19:11:34Z</time>
      </trkpt>
      <trkpt lat="41.297842" lon="1.871971">
        <ele>242.0</ele>
        <time>2008-07-05T19:11:36Z</time>
      </trkpt>
      <trkpt lat="41.297826" lon="1.871821">
        <ele>242.0</ele>
        <time>2008-07-05T19:11:38Z</time>
      </trkpt>
      <trkpt lat="41.297792" lon="1.871655">
        <ele>242.0</ele>
        <time>2008-07-05T19:11:40Z</time>
      </trkpt>
      <trkpt lat="41.297792" lon="1.871488">
        <ele>243.0</ele>
        <time>2008-07-05T19:11:42Z</time>
      </trkpt>
      <trkpt lat="41.297742" lon="1.871305">
        <ele>244.0</ele>
        <time>2008-07-05T19:11:44Z</time>
      </trkpt>
      <trkpt lat="41.297626" lon="1.871221">
        <ele>245.0</ele>
        <time>2008-07-05T19:11:46Z</time>
      </trkpt>
      <trkpt lat="41.297459" lon="1.871205">
        <ele>244.0</ele>
        <time>2008-07-05T19:11:48Z</time>
      </trkpt>
      <trkpt lat="41.297292" lon="1.871188">
        <ele>246.0</ele>
        <time>2008-07-05T19:11:50Z</time>
      </trkpt>
      <trkpt lat="41.297126" lon="1.871105">
        <ele>248.0</ele>
        <time>2008-07-05T19:11:52Z</time>
      </trkpt>
      <trkpt lat="41.296992" lon="1.870988">
        <ele>250.0</ele>
        <time>2008-07-05T19:11:54Z</time>
      </trkpt>
      <trkpt lat="41.296842" lon="1.870838">
        <ele>251.0</ele>
        <time>2008-07-05T19:11:56Z</time>
      </trkpt>
      <trkpt lat="41.296709" lon="1.870688">
        <ele>253.0</ele>
        <time>2008-07-05T19:11:58Z</time>
      </trkpt>
      <trkpt lat="41.296626" lon="1.870621">
        <ele>253.0</ele>
        <time>2008-07-05T19:11:59Z</time>
      </trkpt>
      <trkpt lat="41.296559" lon="1.870555">
        <ele>252.0</ele>
        <time>2008-07-05T19:12:00Z</time>
      </trkpt>
      <trkpt lat="41.296409" lon="1.870421">
        <ele>252.0</ele>
        <time>2008-07-05T19:12:02Z</time>
      </trkpt>
      <trkpt lat="41.296276" lon="1.870255">
        <ele>252.0</ele>
        <time>2008-07-05T19:12:04Z</time>
      </trkpt>
      <trkpt lat="41.296159" lon="1.870088">
        <ele>250.0</ele>
        <time>2008-07-05T19:12:06Z</time>
      </trkpt>
      <trkpt lat="41.296076" lon="1.869888">
        <ele>250.0</ele>
        <time>2008-07-05T19:12:08Z</time>
      </trkpt>
      <trkpt lat="41.296026" lon="1.869671">
        <ele>250.0</ele>
        <time>2008-07-05T19:12:10Z</time>
      </trkpt>
      <trkpt lat="41.295976" lon="1.869455">
        <ele>250.0</ele>
        <time>2008-07-05T19:12:12Z</time>
      </trkpt>
      <trkpt lat="41.295926" lon="1.869221">
        <ele>251.0</ele>
        <time>2008-07-05T19:12:14Z</time>
      </trkpt>
      <trkpt lat="41.295909" lon="1.869105">
        <ele>252.0</ele>
        <time>2008-07-05T19:12:15Z</time>
      </trkpt>
      <trkpt lat="41.295909" lon="1.868971">
        <ele>253.0</ele>
        <time>2008-07-05T19:12:16Z</time>
      </trkpt>
      <trkpt lat="41.295909" lon="1.868721">
        <ele>256.0</ele>
        <time>2008-07-05T19:12:18Z</time>
      </trkpt>
      <trkpt lat="41.295926" lon="1.868488">
        <ele>259.0</ele>
        <time>2008-07-05T19:12:20Z</time>
      </trkpt>
      <trkpt lat="41.295926" lon="1.868271">
        <ele>262.0</ele>
        <time>2008-07-05T19:12:22Z</time>
      </trkpt>
      <trkpt lat="41.295909" lon="1.868071">
        <ele>264.0</ele>
        <time>2008-07-05T19:12:24Z</time>
      </trkpt>
      <trkpt lat="41.295876" lon="1.867888">
        <ele>267.0</ele>
        <time>2008-07-05T19:12:26Z</time>
      </trkpt>
      <trkpt lat="41.295826" lon="1.867705">
        <ele>268.0</ele>
        <time>2008-07-05T19:12:28Z</time>
      </trkpt>
      <trkpt lat="41.295743" lon="1.867521">
        <ele>269.0</ele>
        <time>2008-07-05T19:12:30Z</time>
      </trkpt>
      <trkpt lat="41.295626" lon="1.867371">
        <ele>270.0</ele>
        <time>2008-07-05T19:12:32Z</time>
      </trkpt>
      <trkpt lat="41.295476" lon="1.867288">
        <ele>268.0</ele>
        <time>2008-07-05T19:12:34Z</time>
      </trkpt>
      <trkpt lat="41.295309" lon="1.867221">
        <ele>266.0</ele>
        <time>2008-07-05T19:12:36Z</time>
      </trkpt>
      <trkpt lat="41.295143" lon="1.867105">
        <ele>265.0</ele>
        <time>2008-07-05T19:12:38Z</time>
      </trkpt>
      <trkpt lat="41.295009" lon="1.866955">
        <ele>265.0</ele>
        <time>2008-07-05T19:12:40Z</time>
      </trkpt>
      <trkpt lat="41.294926" lon="1.866755">
        <ele>266.0</ele>
        <time>2008-07-05T19:12:42Z</time>
      </trkpt>
      <trkpt lat="41.294909" lon="1.866505">
        <ele>267.0</ele>
        <time>2008-07-05T19:12:44Z</time>
      </trkpt>
      <trkpt lat="41.294959" lon="1.866288">
        <ele>269.0</ele>
        <time>2008-07-05T19:12:46Z</time>
      </trkpt>
      <trkpt lat="41.295026" lon="1.866055">
        <ele>270.0</ele>
        <time>2008-07-05T19:12:48Z</time>
      </trkpt>
      <trkpt lat="41.295093" lon="1.865838">
        <ele>271.0</ele>
        <time>2008-07-05T19:12:50Z</time>
      </trkpt>
      <trkpt lat="41.295143" lon="1.865605">
        <ele>272.0</ele>
        <time>2008-07-05T19:12:52Z</time>
      </trkpt>
      <trkpt lat="41.295209" lon="1.865371">
        <ele>273.0</ele>
        <time>2008-07-05T19:12:54Z</time>
      </trkpt>
      <trkpt lat="41.295259" lon="1.865155">
        <ele>274.0</ele>
        <time>2008-07-05T19:12:56Z</time>
      </trkpt>
      <trkpt lat="41.295326" lon="1.864955">
        <ele>274.0</ele>
        <time>2008-07-05T19:12:58Z</time>
      </trkpt>
      <trkpt lat="41.295409" lon="1.864771">
        <ele>274.0</ele>
        <time>2008-07-05T19:13:00Z</time>
      </trkpt>
      <trkpt lat="41.295509" lon="1.864588">
        <ele>276.0</ele>
        <time>2008-07-05T19:13:02Z</time>
      </trkpt>
      <trkpt lat="41.295609" lon="1.864438">
        <ele>278.0</ele>
        <time>2008-07-05T19:13:04Z</time>
      </trkpt>
      <trkpt lat="41.295726" lon="1.864288">
        <ele>278.0</ele>
        <time>2008-07-05T19:13:06Z</time>
      </trkpt>
      <trkpt lat="41.295859" lon="1.864138">
        <ele>278.0</ele>
        <time>2008-07-05T19:13:08Z</time>
      </trkpt>
      <trkpt lat="41.295959" lon="1.863988">
        <ele>279.0</ele>
        <time>2008-07-05T19:13:10Z</time>
      </trkpt>
      <trkpt lat="41.296076" lon="1.863821">
        <ele>280.0</ele>
        <time>2008-07-05T19:13:12Z</time>
      </trkpt>
      <trkpt lat="41.296176" lon="1.863671">
        <ele>278.0</ele>
        <time>2008-07-05T19:13:14Z</time>
      </trkpt>
      <trkpt lat="41.296276" lon="1.863505">
        <ele>277.0</ele>
        <time>2008-07-05T19:13:16Z</time>
      </trkpt>
      <trkpt lat="41.296359" lon="1.863338">
        <ele>276.0</ele>
        <time>2008-07-05T19:13:18Z</time>
      </trkpt>
      <trkpt lat="41.296443" lon="1.863188">
        <ele>275.0</ele>
        <time>2008-07-05T19:13:20Z</time>
      </trkpt>
      <trkpt lat="41.296526" lon="1.863021">
        <ele>275.0</ele>
        <time>2008-07-05T19:13:22Z</time>
      </trkpt>
      <trkpt lat="41.296593" lon="1.862855">
        <ele>273.0</ele>
        <time>2008-07-05T19:13:24Z</time>
      </trkpt>
      <trkpt lat="41.296659" lon="1.862688">
        <ele>272.0</ele>
        <time>2008-07-05T19:13:26Z</time>
      </trkpt>
      <trkpt lat="41.296709" lon="1.862521">
        <ele>272.0</ele>
        <time>2008-07-05T19:13:28Z</time>
      </trkpt>
      <trkpt lat="41.296776" lon="1.862371">
        <ele>272.0</ele>
        <time>2008-07-05T19:13:30Z</time>
      </trkpt>
      <trkpt lat="41.296809" lon="1.862305">
        <ele>271.0</ele>
        <time>2008-07-05T19:13:31Z</time>
      </trkpt>
      <trkpt lat="41.296876" lon="1.862171">
        <ele>271.0</ele>
        <time>2008-07-05T19:13:33Z</time>
      </trkpt>
      <trkpt lat="41.296959" lon="1.862038">
        <ele>270.0</ele>
        <time>2008-07-05T19:13:35Z</time>
      </trkpt>
      <trkpt lat="41.297059" lon="1.861905">
        <ele>271.0</ele>
        <time>2008-07-05T19:13:37Z</time>
      </trkpt>
      <trkpt lat="41.297176" lon="1.861755">
        <ele>270.0</ele>
        <time>2008-07-05T19:13:39Z</time>
      </trkpt>
      <trkpt lat="41.297293" lon="1.861588">
        <ele>269.0</ele>
        <time>2008-07-05T19:13:41Z</time>
      </trkpt>
      <trkpt lat="41.297393" lon="1.861422">
        <ele>267.0</ele>
        <time>2008-07-05T19:13:43Z</time>
      </trkpt>
      <trkpt lat="41.297443" lon="1.861238">
        <ele>265.0</ele>
        <time>2008-07-05T19:13:45Z</time>
      </trkpt>
      <trkpt lat="41.297393" lon="1.861122">
        <ele>264.0</ele>
        <time>2008-07-05T19:13:47Z</time>
      </trkpt>
      <trkpt lat="41.297276" lon="1.861155">
        <ele>263.0</ele>
        <time>2008-07-05T19:13:49Z</time>
      </trkpt>
      <trkpt lat="41.297143" lon="1.861238">
        <ele>261.0</ele>
        <time>2008-07-05T19:13:51Z</time>
      </trkpt>
      <trkpt lat="41.296993" lon="1.861321">
        <ele>260.0</ele>
        <time>2008-07-05T19:13:53Z</time>
      </trkpt>
      <trkpt lat="41.296809" lon="1.861388">
        <ele>260.0</ele>
        <time>2008-07-05T19:13:55Z</time>
      </trkpt>
      <trkpt lat="41.296643" lon="1.861405">
        <ele>260.0</ele>
        <time>2008-07-05T19:13:57Z</time>
      </trkpt>
      <trkpt lat="41.296476" lon="1.861405">
        <ele>258.0</ele>
        <time>2008-07-05T19:13:59Z</time>
      </trkpt>
      <trkpt lat="41.296409" lon="1.861405">
        <ele>257.0</ele>
        <time>2008-07-05T19:14:00Z</time>
      </trkpt>
      <trkpt lat="41.296259" lon="1.861388">
        <ele>257.0</ele>
        <time>2008-07-05T19:14:02Z</time>
      </trkpt>
      <trkpt lat="41.296126" lon="1.861338">
        <ele>256.0</ele>
        <time>2008-07-05T19:14:04Z</time>
      </trkpt>
      <trkpt lat="41.295993" lon="1.861305">
        <ele>254.0</ele>
        <time>2008-07-05T19:14:06Z</time>
      </trkpt>
      <trkpt lat="41.295843" lon="1.861321">
        <ele>254.0</ele>
        <time>2008-07-05T19:14:08Z</time>
      </trkpt>
      <trkpt lat="41.295693" lon="1.861405">
        <ele>253.0</ele>
        <time>2008-07-05T19:14:10Z</time>
      </trkpt>
      <trkpt lat="41.295559" lon="1.861538">
        <ele>251.0</ele>
        <time>2008-07-05T19:14:12Z</time>
      </trkpt>
      <trkpt lat="41.295443" lon="1.861721">
        <ele>250.0</ele>
        <time>2008-07-05T19:14:14Z</time>
      </trkpt>
      <trkpt lat="41.295376" lon="1.861821">
        <ele>249.0</ele>
        <time>2008-07-05T19:14:15Z</time>
      </trkpt>
      <trkpt lat="41.295309" lon="1.861921">
        <ele>249.0</ele>
        <time>2008-07-05T19:14:16Z</time>
      </trkpt>
      <trkpt lat="41.295176" lon="1.862121">
        <ele>247.0</ele>
        <time>2008-07-05T19:14:18Z</time>
      </trkpt>
      <trkpt lat="41.295026" lon="1.862321">
        <ele>245.0</ele>
        <time>2008-07-05T19:14:20Z</time>
      </trkpt>
      <trkpt lat="41.294876" lon="1.862521">
        <ele>244.0</ele>
        <time>2008-07-05T19:14:22Z</time>
      </trkpt>
      <trkpt lat="41.294726" lon="1.862688">
        <ele>241.0</ele>
        <time>2008-07-05T19:14:24Z</time>
      </trkpt>
      <trkpt lat="41.294593" lon="1.862838">
        <ele>239.0</ele>
        <time>2008-07-05T19:14:26Z</time>
      </trkpt>
      <trkpt lat="41.294443" lon="1.862921">
        <ele>237.0</ele>
        <time>2008-07-05T19:14:28Z</time>
      </trkpt>
      <trkpt lat="41.294326" lon="1.862871">
        <ele>236.0</ele>
        <time>2008-07-05T19:14:30Z</time>
      </trkpt>
      <trkpt lat="41.294259" lon="1.862688">
        <ele>237.0</ele>
        <time>2008-07-05T19:14:32Z</time>
      </trkpt>
      <trkpt lat="41.294276" lon="1.862438">
        <ele>238.0</ele>
        <time>2008-07-05T19:14:34Z</time>
      </trkpt>
      <trkpt lat="41.294309" lon="1.862171">
        <ele>238.0</ele>
        <time>2008-07-05T19:14:36Z</time>
      </trkpt>
      <trkpt lat="41.294326" lon="1.861905">
        <ele>239.0</ele>
        <time>2008-07-05T19:14:38Z</time>
      </trkpt>
      <trkpt lat="41.294326" lon="1.861621">
        <ele>241.0</ele>
        <time>2008-07-05T19:14:40Z</time>
      </trkpt>
      <trkpt lat="41.294343" lon="1.861355">
        <ele>243.0</ele>
        <time>2008-07-05T19:14:42Z</time>
      </trkpt>
      <trkpt lat="41.294359" lon="1.861105">
        <ele>244.0</ele>
        <time>2008-07-05T19:14:44Z</time>
      </trkpt>
      <trkpt lat="41.294359" lon="1.860905">
        <ele>244.0</ele>
        <time>2008-07-05T19:14:46Z</time>
      </trkpt>
      <trkpt lat="41.294359" lon="1.860721">
        <ele>246.0</ele>
        <time>2008-07-05T19:14:48Z</time>
      </trkpt>
      <trkpt lat="41.294343" lon="1.860521">
        <ele>247.0</ele>
        <time>2008-07-05T19:14:50Z</time>
      </trkpt>
      <trkpt lat="41.294293" lon="1.860338">
        <ele>248.0</ele>
        <time>2008-07-05T19:14:52Z</time>
      </trkpt>
      <trkpt lat="41.294209" lon="1.860205">
        <ele>249.0</ele>
        <time>2008-07-05T19:14:54Z</time>
      </trkpt>
      <trkpt lat="41.294143" lon="1.860088">
        <ele>248.0</ele>
        <time>2008-07-05T19:16:06Z</time>
      </trkpt>
      <trkpt lat="41.294093" lon="1.860038">
        <ele>249.0</ele>
        <time>2008-07-05T19:16:08Z</time>
      </trkpt>
      <trkpt lat="41.294009" lon="1.859988">
        <ele>248.0</ele>
        <time>2008-07-05T19:16:10Z</time>
      </trkpt>
      <trkpt lat="41.293876" lon="1.859938">
        <ele>248.0</ele>
        <time>2008-07-05T19:16:12Z</time>
      </trkpt>
      <trkpt lat="41.293743" lon="1.859855">
        <ele>247.0</ele>
        <time>2008-07-05T19:16:14Z</time>
      </trkpt>
      <trkpt lat="41.293693" lon="1.859788">
        <ele>247.0</ele>
        <time>2008-07-05T19:16:15Z</time>
      </trkpt>
      <trkpt lat="41.293676" lon="1.859721">
        <ele>247.0</ele>
        <time>2008-07-05T19:16:16Z</time>
      </trkpt>
      <trkpt lat="41.293693" lon="1.859588">
        <ele>247.0</ele>
        <time>2008-07-05T19:16:18Z</time>
      </trkpt>
      <trkpt lat="41.293793" lon="1.859438">
        <ele>248.0</ele>
        <time>2008-07-05T19:16:20Z</time>
      </trkpt>
      <trkpt lat="41.293909" lon="1.859288">
        <ele>249.0</ele>
        <time>2008-07-05T19:16:22Z</time>
      </trkpt>
      <trkpt lat="41.294009" lon="1.859071">
        <ele>249.0</ele>
        <time>2008-07-05T19:16:24Z</time>
      </trkpt>
      <trkpt lat="41.294076" lon="1.858855">
        <ele>250.0</ele>
        <time>2008-07-05T19:16:26Z</time>
      </trkpt>
      <trkpt lat="41.294159" lon="1.858655">
        <ele>251.0</ele>
        <time>2008-07-05T19:16:28Z</time>
      </trkpt>
      <trkpt lat="41.294243" lon="1.858488">
        <ele>251.0</ele>
        <time>2008-07-05T19:16:30Z</time>
      </trkpt>
      <trkpt lat="41.294376" lon="1.858338">
        <ele>252.0</ele>
        <time>2008-07-05T19:16:32Z</time>
      </trkpt>
      <trkpt lat="41.294509" lon="1.858205">
        <ele>253.0</ele>
        <time>2008-07-05T19:16:34Z</time>
      </trkpt>
      <trkpt lat="41.294676" lon="1.858121">
        <ele>254.0</ele>
        <time>2008-07-05T19:16:36Z</time>
      </trkpt>
      <trkpt lat="41.294826" lon="1.858055">
        <ele>256.0</ele>
        <time>2008-07-05T19:16:38Z</time>
      </trkpt>
      <trkpt lat="41.294959" lon="1.857988">
        <ele>256.0</ele>
        <time>2008-07-05T19:16:40Z</time>
      </trkpt>
      <trkpt lat="41.295076" lon="1.857888">
        <ele>256.0</ele>
        <time>2008-07-05T19:16:42Z</time>
      </trkpt>
      <trkpt lat="41.295176" lon="1.857755">
        <ele>257.0</ele>
        <time>2008-07-05T19:16:44Z</time>
      </trkpt>
      <trkpt lat="41.295259" lon="1.857621">
        <ele>258.0</ele>
        <time>2008-07-05T19:16:46Z</time>
      </trkpt>
      <trkpt lat="41.295359" lon="1.857488">
        <ele>259.0</ele>
        <time>2008-07-05T19:16:48Z</time>
      </trkpt>
      <trkpt lat="41.295426" lon="1.857338">
        <ele>261.0</ele>
        <time>2008-07-05T19:16:50Z</time>
      </trkpt>
      <trkpt lat="41.295476" lon="1.857155">
        <ele>261.0</ele>
        <time>2008-07-05T19:16:52Z</time>
      </trkpt>
      <trkpt lat="41.295459" lon="1.856955">
        <ele>262.0</ele>
        <time>2008-07-05T19:16:54Z</time>
      </trkpt>
      <trkpt lat="41.295443" lon="1.856738">
        <ele>263.0</ele>
        <time>2008-07-05T19:16:56Z</time>
      </trkpt>
      <trkpt lat="41.295459" lon="1.856522">
        <ele>264.0</ele>
        <time>2008-07-05T19:16:58Z</time>
      </trkpt>
      <trkpt lat="41.295543" lon="1.856338">
        <ele>265.0</ele>
        <time>2008-07-05T19:17:00Z</time>
      </trkpt>
      <trkpt lat="41.295643" lon="1.856188">
        <ele>266.0</ele>
        <time>2008-07-05T19:17:02Z</time>
      </trkpt>
      <trkpt lat="41.295709" lon="1.856022">
        <ele>267.0</ele>
        <time>2008-07-05T19:17:04Z</time>
      </trkpt>
      <trkpt lat="41.295726" lon="1.855838">
        <ele>268.0</ele>
        <time>2008-07-05T19:17:06Z</time>
      </trkpt>
      <trkpt lat="41.295693" lon="1.855672">
        <ele>268.0</ele>
        <time>2008-07-05T19:17:08Z</time>
      </trkpt>
      <trkpt lat="41.295609" lon="1.855505">
        <ele>268.0</ele>
        <time>2008-07-05T19:17:10Z</time>
      </trkpt>
      <trkpt lat="41.295493" lon="1.855338">
        <ele>267.0</ele>
        <time>2008-07-05T19:17:12Z</time>
      </trkpt>
      <trkpt lat="41.295393" lon="1.855155">
        <ele>264.0</ele>
        <time>2008-07-05T19:17:14Z</time>
      </trkpt>
      <trkpt lat="41.295326" lon="1.855005">
        <ele>265.0</ele>
        <time>2008-07-05T19:17:16Z</time>
      </trkpt>
      <trkpt lat="41.295293" lon="1.854938">
        <ele>264.0</ele>
        <time>2008-07-05T19:17:18Z</time>
      </trkpt>
      <trkpt lat="41.295293" lon="1.854938">
        <ele>263.0</ele>
        <time>2008-07-05T19:17:20Z</time>
      </trkpt>
      <trkpt lat="41.295276" lon="1.854922">
        <ele>263.0</ele>
        <time>2008-07-05T19:17:22Z</time>
      </trkpt>
      <trkpt lat="41.295259" lon="1.854855">
        <ele>262.0</ele>
        <time>2008-07-05T19:17:24Z</time>
      </trkpt>
      <trkpt lat="41.295226" lon="1.854738">
        <ele>262.0</ele>
        <time>2008-07-05T19:17:26Z</time>
      </trkpt>
      <trkpt lat="41.295209" lon="1.854722">
        <ele>264.0</ele>
        <time>2008-07-05T19:17:58Z</time>
      </trkpt>
      <trkpt lat="41.295209" lon="1.854738">
        <ele>264.0</ele>
        <time>2008-07-05T19:17:59Z</time>
      </trkpt>
      <trkpt lat="41.295209" lon="1.854722">
        <ele>263.0</ele>
        <time>2008-07-05T19:18:00Z</time>
      </trkpt>
      <trkpt lat="41.295226" lon="1.854688">
        <ele>264.0</ele>
        <time>2008-07-05T19:18:02Z</time>
      </trkpt>
      <trkpt lat="41.295259" lon="1.854672">
        <ele>266.0</ele>
        <time>2008-07-05T19:18:04Z</time>
      </trkpt>
      <trkpt lat="41.295309" lon="1.854655">
        <ele>266.0</ele>
        <time>2008-07-05T19:18:06Z</time>
      </trkpt>
      <trkpt lat="41.295376" lon="1.854605">
        <ele>266.0</ele>
        <time>2008-07-05T19:18:08Z</time>
      </trkpt>
      <trkpt lat="41.295491" lon="1.854571">
        <ele>266.0</ele>
        <time>2008-07-05T19:18:10Z</time>
      </trkpt>
      <trkpt lat="41.295626" lon="1.854572">
        <ele>265.0</ele>
        <time>2008-07-05T19:18:12Z</time>
      </trkpt>
      <trkpt lat="41.295743" lon="1.854572">
        <ele>263.0</ele>
        <time>2008-07-05T19:18:14Z</time>
      </trkpt>
      <trkpt lat="41.295809" lon="1.854588">
        <ele>262.0</ele>
        <time>2008-07-05T19:18:16Z</time>
      </trkpt>
      <trkpt lat="41.295893" lon="1.854622">
        <ele>261.0</ele>
        <time>2008-07-05T19:18:18Z</time>
      </trkpt>
      <trkpt lat="41.295976" lon="1.854655">
        <ele>260.0</ele>
        <time>2008-07-05T19:18:20Z</time>
      </trkpt>
      <trkpt lat="41.296043" lon="1.854688">
        <ele>259.0</ele>
        <time>2008-07-05T19:18:22Z</time>
      </trkpt>
      <trkpt lat="41.296109" lon="1.854705">
        <ele>258.0</ele>
        <time>2008-07-05T19:18:24Z</time>
      </trkpt>
      <trkpt lat="41.296176" lon="1.854755">
        <ele>258.0</ele>
        <time>2008-07-05T19:18:26Z</time>
      </trkpt>
      <trkpt lat="41.296226" lon="1.854822">
        <ele>258.0</ele>
        <time>2008-07-05T19:18:28Z</time>
      </trkpt>
      <trkpt lat="41.296293" lon="1.854872">
        <ele>257.0</ele>
        <time>2008-07-05T19:18:30Z</time>
      </trkpt>
      <trkpt lat="41.296343" lon="1.854905">
        <ele>256.0</ele>
        <time>2008-07-05T19:18:32Z</time>
      </trkpt>
      <trkpt lat="41.296393" lon="1.854972">
        <ele>256.0</ele>
        <time>2008-07-05T19:18:34Z</time>
      </trkpt>
      <trkpt lat="41.296426" lon="1.855055">
        <ele>257.0</ele>
        <time>2008-07-05T19:18:36Z</time>
      </trkpt>
      <trkpt lat="41.296443" lon="1.855088">
        <ele>257.0</ele>
        <time>2008-07-05T19:18:38Z</time>
      </trkpt>
      <trkpt lat="41.296476" lon="1.855105">
        <ele>257.0</ele>
        <time>2008-07-05T19:18:40Z</time>
      </trkpt>
      <trkpt lat="41.296526" lon="1.855138">
        <ele>257.0</ele>
        <time>2008-07-05T19:18:42Z</time>
      </trkpt>
      <trkpt lat="41.296543" lon="1.855155">
        <ele>256.0</ele>
        <time>2008-07-05T19:18:44Z</time>
      </trkpt>
      <trkpt lat="41.296559" lon="1.855172">
        <ele>255.0</ele>
        <time>2008-07-05T19:18:46Z</time>
      </trkpt>
      <trkpt lat="41.296593" lon="1.855188">
        <ele>255.0</ele>
        <time>2008-07-05T19:18:48Z</time>
      </trkpt>
      <trkpt lat="41.296626" lon="1.855172">
        <ele>255.0</ele>
        <time>2008-07-05T19:18:50Z</time>
      </trkpt>
      <trkpt lat="41.296659" lon="1.855155">
        <ele>256.0</ele>
        <time>2008-07-05T19:18:52Z</time>
      </trkpt>
      <trkpt lat="41.296659" lon="1.855172">
        <ele>256.0</ele>
        <time>2008-07-05T19:18:54Z</time>
      </trkpt>
      <trkpt lat="41.296659" lon="1.855155">
        <ele>256.0</ele>
        <time>2008-07-05T19:18:56Z</time>
      </trkpt>
      <trkpt lat="41.296676" lon="1.855138">
        <ele>257.0</ele>
        <time>2008-07-05T19:18:58Z</time>
      </trkpt>
      <trkpt lat="41.296693" lon="1.855122">
        <ele>257.0</ele>
        <time>2008-07-05T19:19:00Z</time>
      </trkpt>
      <trkpt lat="41.296726" lon="1.855088">
        <ele>257.0</ele>
        <time>2008-07-05T19:19:02Z</time>
      </trkpt>
      <trkpt lat="41.296743" lon="1.855038">
        <ele>256.0</ele>
        <time>2008-07-05T19:19:04Z</time>
      </trkpt>
      <trkpt lat="41.296759" lon="1.854988">
        <ele>255.0</ele>
        <time>2008-07-05T19:19:06Z</time>
      </trkpt>
      <trkpt lat="41.296776" lon="1.854972">
        <ele>254.0</ele>
        <time>2008-07-05T19:19:08Z</time>
      </trkpt>
      <trkpt lat="41.296793" lon="1.854955">
        <ele>253.0</ele>
        <time>2008-07-05T19:19:10Z</time>
      </trkpt>
      <trkpt lat="41.296809" lon="1.854922">
        <ele>253.0</ele>
        <time>2008-07-05T19:19:12Z</time>
      </trkpt>
      <trkpt lat="41.296809" lon="1.854888">
        <ele>252.0</ele>
        <time>2008-07-05T19:19:14Z</time>
      </trkpt>
      <trkpt lat="41.296809" lon="1.854838">
        <ele>251.0</ele>
        <time>2008-07-05T19:19:16Z</time>
      </trkpt>
      <trkpt lat="41.296809" lon="1.854788">
        <ele>252.0</ele>
        <time>2008-07-05T19:19:18Z</time>
      </trkpt>
      <trkpt lat="41.296826" lon="1.854738">
        <ele>252.0</ele>
        <time>2008-07-05T19:19:20Z</time>
      </trkpt>
      <trkpt lat="41.296843" lon="1.854688">
        <ele>251.0</ele>
        <time>2008-07-05T19:19:22Z</time>
      </trkpt>
      <trkpt lat="41.296859" lon="1.854655">
        <ele>249.0</ele>
        <time>2008-07-05T19:19:24Z</time>
      </trkpt>
      <trkpt lat="41.296876" lon="1.854622">
        <ele>249.0</ele>
        <time>2008-07-05T19:19:26Z</time>
      </trkpt>
      <trkpt lat="41.296893" lon="1.854605">
        <ele>248.0</ele>
        <time>2008-07-05T19:19:28Z</time>
      </trkpt>
      <trkpt lat="41.296909" lon="1.854572">
        <ele>248.0</ele>
        <time>2008-07-05T19:19:30Z</time>
      </trkpt>
      <trkpt lat="41.296909" lon="1.854538">
        <ele>247.0</ele>
        <time>2008-07-05T19:19:31Z</time>
      </trkpt>
      <trkpt lat="41.296909" lon="1.854522">
        <ele>247.0</ele>
        <time>2008-07-05T19:19:32Z</time>
      </trkpt>
      <trkpt lat="41.296926" lon="1.854488">
        <ele>247.0</ele>
        <time>2008-07-05T19:19:34Z</time>
      </trkpt>
      <trkpt lat="41.296926" lon="1.854422">
        <ele>247.0</ele>
        <time>2008-07-05T19:19:36Z</time>
      </trkpt>
      <trkpt lat="41.296943" lon="1.854338">
        <ele>247.0</ele>
        <time>2008-07-05T19:19:38Z</time>
      </trkpt>
      <trkpt lat="41.296959" lon="1.854238">
        <ele>247.0</ele>
        <time>2008-07-05T19:19:40Z</time>
      </trkpt>
      <trkpt lat="41.296976" lon="1.854138">
        <ele>247.0</ele>
        <time>2008-07-05T19:19:42Z</time>
      </trkpt>
      <trkpt lat="41.297009" lon="1.854055">
        <ele>246.0</ele>
        <time>2008-07-05T19:19:44Z</time>
      </trkpt>
      <trkpt lat="41.297043" lon="1.853972">
        <ele>246.0</ele>
        <time>2008-07-05T19:19:46Z</time>
      </trkpt>
      <trkpt lat="41.297059" lon="1.853888">
        <ele>246.0</ele>
        <time>2008-07-05T19:19:48Z</time>
      </trkpt>
      <trkpt lat="41.297093" lon="1.853822">
        <ele>244.0</ele>
        <time>2008-07-05T19:19:50Z</time>
      </trkpt>
      <trkpt lat="41.297126" lon="1.853788">
        <ele>244.0</ele>
        <time>2008-07-05T19:19:52Z</time>
      </trkpt>
      <trkpt lat="41.297159" lon="1.853755">
        <ele>244.0</ele>
        <time>2008-07-05T19:19:54Z</time>
      </trkpt>
      <trkpt lat="41.297193" lon="1.853705">
        <ele>245.0</ele>
        <time>2008-07-05T19:19:56Z</time>
      </trkpt>
      <trkpt lat="41.297259" lon="1.853655">
        <ele>245.0</ele>
        <time>2008-07-05T19:19:58Z</time>
      </trkpt>
      <trkpt lat="41.297293" lon="1.853655">
        <ele>246.0</ele>
        <time>2008-07-05T19:19:59Z</time>
      </trkpt>
      <trkpt lat="41.297343" lon="1.853672">
        <ele>246.0</ele>
        <time>2008-07-05T19:20:01Z</time>
      </trkpt>
      <trkpt lat="41.297409" lon="1.853705">
        <ele>247.0</ele>
        <time>2008-07-05T19:20:03Z</time>
      </trkpt>
      <trkpt lat="41.297459" lon="1.853738">
        <ele>246.0</ele>
        <time>2008-07-05T19:20:05Z</time>
      </trkpt>
      <trkpt lat="41.297493" lon="1.853788">
        <ele>247.0</ele>
        <time>2008-07-05T19:20:07Z</time>
      </trkpt>
      <trkpt lat="41.297559" lon="1.853822">
        <ele>247.0</ele>
        <time>2008-07-05T19:20:09Z</time>
      </trkpt>
      <trkpt lat="41.297609" lon="1.853872">
        <ele>247.0</ele>
        <time>2008-07-05T19:20:11Z</time>
      </trkpt>
      <trkpt lat="41.297659" lon="1.853888">
        <ele>247.0</ele>
        <time>2008-07-05T19:20:13Z</time>
      </trkpt>
      <trkpt lat="41.297726" lon="1.853888">
        <ele>247.0</ele>
        <time>2008-07-05T19:20:15Z</time>
      </trkpt>
      <trkpt lat="41.297793" lon="1.853872">
        <ele>248.0</ele>
        <time>2008-07-05T19:20:17Z</time>
      </trkpt>
      <trkpt lat="41.297876" lon="1.853805">
        <ele>249.0</ele>
        <time>2008-07-05T19:20:19Z</time>
      </trkpt>
      <trkpt lat="41.297926" lon="1.853755">
        <ele>249.0</ele>
        <time>2008-07-05T19:20:21Z</time>
      </trkpt>
      <trkpt lat="41.297993" lon="1.853688">
        <ele>249.0</ele>
        <time>2008-07-05T19:20:23Z</time>
      </trkpt>
      <trkpt lat="41.298043" lon="1.853622">
        <ele>249.0</ele>
        <time>2008-07-05T19:20:25Z</time>
      </trkpt>
      <trkpt lat="41.298093" lon="1.853538">
        <ele>248.0</ele>
        <time>2008-07-05T19:20:27Z</time>
      </trkpt>
      <trkpt lat="41.298126" lon="1.853455">
        <ele>248.0</ele>
        <time>2008-07-05T19:20:29Z</time>
      </trkpt>
      <trkpt lat="41.298176" lon="1.853372">
        <ele>249.0</ele>
        <time>2008-07-05T19:20:31Z</time>
      </trkpt>
      <trkpt lat="41.298209" lon="1.853288">
        <ele>249.0</ele>
        <time>2008-07-05T19:20:33Z</time>
      </trkpt>
      <trkpt lat="41.298259" lon="1.853188">
        <ele>249.0</ele>
        <time>2008-07-05T19:20:35Z</time>
      </trkpt>
      <trkpt lat="41.298309" lon="1.853088">
        <ele>250.0</ele>
        <time>2008-07-05T19:20:37Z</time>
      </trkpt>
      <trkpt lat="41.298326" lon="1.852972">
        <ele>249.0</ele>
        <time>2008-07-05T19:20:39Z</time>
      </trkpt>
      <trkpt lat="41.298359" lon="1.852855">
        <ele>249.0</ele>
        <time>2008-07-05T19:20:41Z</time>
      </trkpt>
      <trkpt lat="41.298393" lon="1.852738">
        <ele>250.0</ele>
        <time>2008-07-05T19:20:43Z</time>
      </trkpt>
      <trkpt lat="41.298409" lon="1.852605">
        <ele>250.0</ele>
        <time>2008-07-05T19:20:45Z</time>
      </trkpt>
      <trkpt lat="41.298426" lon="1.852488">
        <ele>250.0</ele>
        <time>2008-07-05T19:20:47Z</time>
      </trkpt>
      <trkpt lat="41.298426" lon="1.852355">
        <ele>250.0</ele>
        <time>2008-07-05T19:20:49Z</time>
      </trkpt>
      <trkpt lat="41.298409" lon="1.852222">
        <ele>249.0</ele>
        <time>2008-07-05T19:20:51Z</time>
      </trkpt>
      <trkpt lat="41.298409" lon="1.852088">
        <ele>250.0</ele>
        <time>2008-07-05T19:20:53Z</time>
      </trkpt>
      <trkpt lat="41.298393" lon="1.851955">
        <ele>250.0</ele>
        <time>2008-07-05T19:20:55Z</time>
      </trkpt>
      <trkpt lat="41.298359" lon="1.851822">
        <ele>251.0</ele>
        <time>2008-07-05T19:20:57Z</time>
      </trkpt>
      <trkpt lat="41.298326" lon="1.851705">
        <ele>252.0</ele>
        <time>2008-07-05T19:20:59Z</time>
      </trkpt>
      <trkpt lat="41.298276" lon="1.851605">
        <ele>252.0</ele>
        <time>2008-07-05T19:21:01Z</time>
      </trkpt>
      <trkpt lat="41.298193" lon="1.851522">
        <ele>252.0</ele>
        <time>2008-07-05T19:21:03Z</time>
      </trkpt>
      <trkpt lat="41.298159" lon="1.851488">
        <ele>252.0</ele>
        <time>2008-07-05T19:21:04Z</time>
      </trkpt>
      <trkpt lat="41.298059" lon="1.851438">
        <ele>251.0</ele>
        <time>2008-07-05T19:21:06Z</time>
      </trkpt>
      <trkpt lat="41.297976" lon="1.851405">
        <ele>251.0</ele>
        <time>2008-07-05T19:21:08Z</time>
      </trkpt>
      <trkpt lat="41.297876" lon="1.851355">
        <ele>250.0</ele>
        <time>2008-07-05T19:21:10Z</time>
      </trkpt>
      <trkpt lat="41.297776" lon="1.851322">
        <ele>249.0</ele>
        <time>2008-07-05T19:21:12Z</time>
      </trkpt>
      <trkpt lat="41.297693" lon="1.851288">
        <ele>250.0</ele>
        <time>2008-07-05T19:21:14Z</time>
      </trkpt>
      <trkpt lat="41.297593" lon="1.851255">
        <ele>249.0</ele>
        <time>2008-07-05T19:21:16Z</time>
      </trkpt>
      <trkpt lat="41.297509" lon="1.851222">
        <ele>249.0</ele>
        <time>2008-07-05T19:21:18Z</time>
      </trkpt>
      <trkpt lat="41.297426" lon="1.851205">
        <ele>250.0</ele>
        <time>2008-07-05T19:21:20Z</time>
      </trkpt>
      <trkpt lat="41.297343" lon="1.851205">
        <ele>251.0</ele>
        <time>2008-07-05T19:21:22Z</time>
      </trkpt>
      <trkpt lat="41.297276" lon="1.851172">
        <ele>250.0</ele>
        <time>2008-07-05T19:21:24Z</time>
      </trkpt>
      <trkpt lat="41.297193" lon="1.851122">
        <ele>251.0</ele>
        <time>2008-07-05T19:21:26Z</time>
      </trkpt>
      <trkpt lat="41.297126" lon="1.851055">
        <ele>251.0</ele>
        <time>2008-07-05T19:21:28Z</time>
      </trkpt>
      <trkpt lat="41.297043" lon="1.850988">
        <ele>251.0</ele>
        <time>2008-07-05T19:21:30Z</time>
      </trkpt>
      <trkpt lat="41.296976" lon="1.850905">
        <ele>251.0</ele>
        <time>2008-07-05T19:21:32Z</time>
      </trkpt>
      <trkpt lat="41.296909" lon="1.850838">
        <ele>252.0</ele>
        <time>2008-07-05T19:21:34Z</time>
      </trkpt>
      <trkpt lat="41.296826" lon="1.850788">
        <ele>253.0</ele>
        <time>2008-07-05T19:21:36Z</time>
      </trkpt>
      <trkpt lat="41.296759" lon="1.850772">
        <ele>253.0</ele>
        <time>2008-07-05T19:21:38Z</time>
      </trkpt>
      <trkpt lat="41.296693" lon="1.850755">
        <ele>253.0</ele>
        <time>2008-07-05T19:21:40Z</time>
      </trkpt>
      <trkpt lat="41.296626" lon="1.850738">
        <ele>253.0</ele>
        <time>2008-07-05T19:21:42Z</time>
      </trkpt>
      <trkpt lat="41.296559" lon="1.850722">
        <ele>253.0</ele>
        <time>2008-07-05T19:21:44Z</time>
      </trkpt>
      <trkpt lat="41.296493" lon="1.850705">
        <ele>255.0</ele>
        <time>2008-07-05T19:21:46Z</time>
      </trkpt>
      <trkpt lat="41.296443" lon="1.850705">
        <ele>256.0</ele>
        <time>2008-07-05T19:21:48Z</time>
      </trkpt>
      <trkpt lat="41.296393" lon="1.850722">
        <ele>258.0</ele>
        <time>2008-07-05T19:21:50Z</time>
      </trkpt>
      <trkpt lat="41.296326" lon="1.850722">
        <ele>260.0</ele>
        <time>2008-07-05T19:21:52Z</time>
      </trkpt>
      <trkpt lat="41.296276" lon="1.850738">
        <ele>261.0</ele>
        <time>2008-07-05T19:21:54Z</time>
      </trkpt>
      <trkpt lat="41.296226" lon="1.850738">
        <ele>261.0</ele>
        <time>2008-07-05T19:21:56Z</time>
      </trkpt>
      <trkpt lat="41.296159" lon="1.850755">
        <ele>261.0</ele>
        <time>2008-07-05T19:21:58Z</time>
      </trkpt>
      <trkpt lat="41.296126" lon="1.850755">
        <ele>261.0</ele>
        <time>2008-07-05T19:21:59Z</time>
      </trkpt>
      <trkpt lat="41.296043" lon="1.850772">
        <ele>262.0</ele>
        <time>2008-07-05T19:22:01Z</time>
      </trkpt>
      <trkpt lat="41.295959" lon="1.850805">
        <ele>262.0</ele>
        <time>2008-07-05T19:22:03Z</time>
      </trkpt>
      <trkpt lat="41.295876" lon="1.850838">
        <ele>262.0</ele>
        <time>2008-07-05T19:22:05Z</time>
      </trkpt>
      <trkpt lat="41.295776" lon="1.850872">
        <ele>262.0</ele>
        <time>2008-07-05T19:22:07Z</time>
      </trkpt>
      <trkpt lat="41.295693" lon="1.850905">
        <ele>262.0</ele>
        <time>2008-07-05T19:22:09Z</time>
      </trkpt>
      <trkpt lat="41.295593" lon="1.850922">
        <ele>262.0</ele>
        <time>2008-07-05T19:22:11Z</time>
      </trkpt>
      <trkpt lat="41.295493" lon="1.850955">
        <ele>262.0</ele>
        <time>2008-07-05T19:22:13Z</time>
      </trkpt>
      <trkpt lat="41.295393" lon="1.850938">
        <ele>262.0</ele>
        <time>2008-07-05T19:22:15Z</time>
      </trkpt>
      <trkpt lat="41.295293" lon="1.850888">
        <ele>262.0</ele>
        <time>2008-07-05T19:22:17Z</time>
      </trkpt>
      <trkpt lat="41.295209" lon="1.850805">
        <ele>261.0</ele>
        <time>2008-07-05T19:22:19Z</time>
      </trkpt>
      <trkpt lat="41.295143" lon="1.850722">
        <ele>261.0</ele>
        <time>2008-07-05T19:22:21Z</time>
      </trkpt>
      <trkpt lat="41.295076" lon="1.850655">
        <ele>260.0</ele>
        <time>2008-07-05T19:22:23Z</time>
      </trkpt>
      <trkpt lat="41.295009" lon="1.850588">
        <ele>259.0</ele>
        <time>2008-07-05T19:22:25Z</time>
      </trkpt>
      <trkpt lat="41.294943" lon="1.850522">
        <ele>259.0</ele>
        <time>2008-07-05T19:22:27Z</time>
      </trkpt>
      <trkpt lat="41.294876" lon="1.850488">
        <ele>258.0</ele>
        <time>2008-07-05T19:22:29Z</time>
      </trkpt>
      <trkpt lat="41.294809" lon="1.850488">
        <ele>259.0</ele>
        <time>2008-07-05T19:22:31Z</time>
      </trkpt>
      <trkpt lat="41.294759" lon="1.850488">
        <ele>261.0</ele>
        <time>2008-07-05T19:22:33Z</time>
      </trkpt>
      <trkpt lat="41.294693" lon="1.850522">
        <ele>262.0</ele>
        <time>2008-07-05T19:22:35Z</time>
      </trkpt>
      <trkpt lat="41.294626" lon="1.850555">
        <ele>264.0</ele>
        <time>2008-07-05T19:22:37Z</time>
      </trkpt>
      <trkpt lat="41.294576" lon="1.850605">
        <ele>265.0</ele>
        <time>2008-07-05T19:22:39Z</time>
      </trkpt>
      <trkpt lat="41.294509" lon="1.850655">
        <ele>265.0</ele>
        <time>2008-07-05T19:22:41Z</time>
      </trkpt>
      <trkpt lat="41.294443" lon="1.850688">
        <ele>266.0</ele>
        <time>2008-07-05T19:22:43Z</time>
      </trkpt>
      <trkpt lat="41.294376" lon="1.850722">
        <ele>267.0</ele>
        <time>2008-07-05T19:22:45Z</time>
      </trkpt>
      <trkpt lat="41.294309" lon="1.850755">
        <ele>268.0</ele>
        <time>2008-07-05T19:22:47Z</time>
      </trkpt>
      <trkpt lat="41.294259" lon="1.850788">
        <ele>268.0</ele>
        <time>2008-07-05T19:22:49Z</time>
      </trkpt>
      <trkpt lat="41.294193" lon="1.850805">
        <ele>268.0</ele>
        <time>2008-07-05T19:22:51Z</time>
      </trkpt>
      <trkpt lat="41.294143" lon="1.850805">
        <ele>269.0</ele>
        <time>2008-07-05T19:22:53Z</time>
      </trkpt>
      <trkpt lat="41.294109" lon="1.850822">
        <ele>269.0</ele>
        <time>2008-07-05T19:22:55Z</time>
      </trkpt>
      <trkpt lat="41.294059" lon="1.850838">
        <ele>269.0</ele>
        <time>2008-07-05T19:22:57Z</time>
      </trkpt>
      <trkpt lat="41.294009" lon="1.850838">
        <ele>269.0</ele>
        <time>2008-07-05T19:22:59Z</time>
      </trkpt>
      <trkpt lat="41.293976" lon="1.850855">
        <ele>269.0</ele>
        <time>2008-07-05T19:23:01Z</time>
      </trkpt>
      <trkpt lat="41.293926" lon="1.850872">
        <ele>270.0</ele>
        <time>2008-07-05T19:23:03Z</time>
      </trkpt>
      <trkpt lat="41.293876" lon="1.850872">
        <ele>271.0</ele>
        <time>2008-07-05T19:23:05Z</time>
      </trkpt>
      <trkpt lat="41.293843" lon="1.850888">
        <ele>272.0</ele>
        <time>2008-07-05T19:23:07Z</time>
      </trkpt>
      <trkpt lat="41.293809" lon="1.850888">
        <ele>272.0</ele>
        <time>2008-07-05T19:23:08Z</time>
      </trkpt>
      <trkpt lat="41.293776" lon="1.850905">
        <ele>271.0</ele>
        <time>2008-07-05T19:23:10Z</time>
      </trkpt>
      <trkpt lat="41.293726" lon="1.850905">
        <ele>271.0</ele>
        <time>2008-07-05T19:23:12Z</time>
      </trkpt>
      <trkpt lat="41.293693" lon="1.850922">
        <ele>271.0</ele>
        <time>2008-07-05T19:23:14Z</time>
      </trkpt>
      <trkpt lat="41.293643" lon="1.850938">
        <ele>271.0</ele>
        <time>2008-07-05T19:23:16Z</time>
      </trkpt>
      <trkpt lat="41.293609" lon="1.850938">
        <ele>271.0</ele>
        <time>2008-07-05T19:23:18Z</time>
      </trkpt>
      <trkpt lat="41.293559" lon="1.850955">
        <ele>271.0</ele>
        <time>2008-07-05T19:23:20Z</time>
      </trkpt>
      <trkpt lat="41.293526" lon="1.850972">
        <ele>272.0</ele>
        <time>2008-07-05T19:23:22Z</time>
      </trkpt>
      <trkpt lat="41.293493" lon="1.850972">
        <ele>272.0</ele>
        <time>2008-07-05T19:23:24Z</time>
      </trkpt>
      <trkpt lat="41.293443" lon="1.850988">
        <ele>273.0</ele>
        <time>2008-07-05T19:23:26Z</time>
      </trkpt>
      <trkpt lat="41.293409" lon="1.851005">
        <ele>274.0</ele>
        <time>2008-07-05T19:23:28Z</time>
      </trkpt>
      <trkpt lat="41.293376" lon="1.851022">
        <ele>275.0</ele>
        <time>2008-07-05T19:23:30Z</time>
      </trkpt>
      <trkpt lat="41.293326" lon="1.851022">
        <ele>275.0</ele>
        <time>2008-07-05T19:23:32Z</time>
      </trkpt>
      <trkpt lat="41.293293" lon="1.851038">
        <ele>276.0</ele>
        <time>2008-07-05T19:23:34Z</time>
      </trkpt>
      <trkpt lat="41.293243" lon="1.851038">
        <ele>276.0</ele>
        <time>2008-07-05T19:23:36Z</time>
      </trkpt>
      <trkpt lat="41.293193" lon="1.851055">
        <ele>276.0</ele>
        <time>2008-07-05T19:23:38Z</time>
      </trkpt>
      <trkpt lat="41.293143" lon="1.851038">
        <ele>275.0</ele>
        <time>2008-07-05T19:23:40Z</time>
      </trkpt>
      <trkpt lat="41.293076" lon="1.851038">
        <ele>275.0</ele>
        <time>2008-07-05T19:23:42Z</time>
      </trkpt>
      <trkpt lat="41.293009" lon="1.851038">
        <ele>275.0</ele>
        <time>2008-07-05T19:23:44Z</time>
      </trkpt>
      <trkpt lat="41.292943" lon="1.851021">
        <ele>275.0</ele>
        <time>2008-07-05T19:23:46Z</time>
      </trkpt>
      <trkpt lat="41.292876" lon="1.851021">
        <ele>275.0</ele>
        <time>2008-07-05T19:23:48Z</time>
      </trkpt>
      <trkpt lat="41.292793" lon="1.851005">
        <ele>275.0</ele>
        <time>2008-07-05T19:23:50Z</time>
      </trkpt>
      <trkpt lat="41.292726" lon="1.851005">
        <ele>274.0</ele>
        <time>2008-07-05T19:23:52Z</time>
      </trkpt>
      <trkpt lat="41.292659" lon="1.851005">
        <ele>274.0</ele>
        <time>2008-07-05T19:23:54Z</time>
      </trkpt>
      <trkpt lat="41.292593" lon="1.851021">
        <ele>274.0</ele>
        <time>2008-07-05T19:23:56Z</time>
      </trkpt>
      <trkpt lat="41.292543" lon="1.851055">
        <ele>275.0</ele>
        <time>2008-07-05T19:23:58Z</time>
      </trkpt>
      <trkpt lat="41.292476" lon="1.851088">
        <ele>275.0</ele>
        <time>2008-07-05T19:24:00Z</time>
      </trkpt>
      <trkpt lat="41.292426" lon="1.851138">
        <ele>275.0</ele>
        <time>2008-07-05T19:24:02Z</time>
      </trkpt>
      <trkpt lat="41.292359" lon="1.851188">
        <ele>274.0</ele>
        <time>2008-07-05T19:24:04Z</time>
      </trkpt>
      <trkpt lat="41.292326" lon="1.851255">
        <ele>274.0</ele>
        <time>2008-07-05T19:24:06Z</time>
      </trkpt>
      <trkpt lat="41.292309" lon="1.851338">
        <ele>273.0</ele>
        <time>2008-07-05T19:24:08Z</time>
      </trkpt>
      <trkpt lat="41.292293" lon="1.851421">
        <ele>274.0</ele>
        <time>2008-07-05T19:24:10Z</time>
      </trkpt>
      <trkpt lat="41.292276" lon="1.851488">
        <ele>274.0</ele>
        <time>2008-07-05T19:24:12Z</time>
      </trkpt>
      <trkpt lat="41.292259" lon="1.851555">
        <ele>273.0</ele>
        <time>2008-07-05T19:24:14Z</time>
      </trkpt>
      <trkpt lat="41.292243" lon="1.851638">
        <ele>273.0</ele>
        <time>2008-07-05T19:24:16Z</time>
      </trkpt>
      <trkpt lat="41.292243" lon="1.851721">
        <ele>273.0</ele>
        <time>2008-07-05T19:24:18Z</time>
      </trkpt>
      <trkpt lat="41.292226" lon="1.851805">
        <ele>273.0</ele>
        <time>2008-07-05T19:24:20Z</time>
      </trkpt>
      <trkpt lat="41.292226" lon="1.851888">
        <ele>274.0</ele>
        <time>2008-07-05T19:24:22Z</time>
      </trkpt>
      <trkpt lat="41.292209" lon="1.851988">
        <ele>275.0</ele>
        <time>2008-07-05T19:24:24Z</time>
      </trkpt>
      <trkpt lat="41.292226" lon="1.852071">
        <ele>275.0</ele>
        <time>2008-07-05T19:24:26Z</time>
      </trkpt>
      <trkpt lat="41.292226" lon="1.852171">
        <ele>275.0</ele>
        <time>2008-07-05T19:24:28Z</time>
      </trkpt>
      <trkpt lat="41.292226" lon="1.852288">
        <ele>274.0</ele>
        <time>2008-07-05T19:24:30Z</time>
      </trkpt>
      <trkpt lat="41.292245" lon="1.852419">
        <ele>274.0</ele>
        <time>2008-07-05T19:24:32Z</time>
      </trkpt>
      <trkpt lat="41.292243" lon="1.852555">
        <ele>274.0</ele>
        <time>2008-07-05T19:24:34Z</time>
      </trkpt>
      <trkpt lat="41.292243" lon="1.852671">
        <ele>274.0</ele>
        <time>2008-07-05T19:24:36Z</time>
      </trkpt>
      <trkpt lat="41.292243" lon="1.852788">
        <ele>274.0</ele>
        <time>2008-07-05T19:24:38Z</time>
      </trkpt>
      <trkpt lat="41.292226" lon="1.852905">
        <ele>274.0</ele>
        <time>2008-07-05T19:24:40Z</time>
      </trkpt>
      <trkpt lat="41.292209" lon="1.853021">
        <ele>273.0</ele>
        <time>2008-07-05T19:24:42Z</time>
      </trkpt>
      <trkpt lat="41.292209" lon="1.853121">
        <ele>273.0</ele>
        <time>2008-07-05T19:24:44Z</time>
      </trkpt>
      <trkpt lat="41.292176" lon="1.853221">
        <ele>273.0</ele>
        <time>2008-07-05T19:24:46Z</time>
      </trkpt>
      <trkpt lat="41.292159" lon="1.853305">
        <ele>273.0</ele>
        <time>2008-07-05T19:24:48Z</time>
      </trkpt>
      <trkpt lat="41.292109" lon="1.853371">
        <ele>273.0</ele>
        <time>2008-07-05T19:24:50Z</time>
      </trkpt>
      <trkpt lat="41.292059" lon="1.853421">
        <ele>273.0</ele>
        <time>2008-07-05T19:24:52Z</time>
      </trkpt>
      <trkpt lat="41.292009" lon="1.853455">
        <ele>273.0</ele>
        <time>2008-07-05T19:24:54Z</time>
      </trkpt>
      <trkpt lat="41.291959" lon="1.853471">
        <ele>273.0</ele>
        <time>2008-07-05T19:24:56Z</time>
      </trkpt>
      <trkpt lat="41.291893" lon="1.853505">
        <ele>274.0</ele>
        <time>2008-07-05T19:24:58Z</time>
      </trkpt>
      <trkpt lat="41.291826" lon="1.853538">
        <ele>273.0</ele>
        <time>2008-07-05T19:25:00Z</time>
      </trkpt>
      <trkpt lat="41.291759" lon="1.853571">
        <ele>272.0</ele>
        <time>2008-07-05T19:25:02Z</time>
      </trkpt>
      <trkpt lat="41.291693" lon="1.853621">
        <ele>271.0</ele>
        <time>2008-07-05T19:25:04Z</time>
      </trkpt>
      <trkpt lat="41.291626" lon="1.853655">
        <ele>270.0</ele>
        <time>2008-07-05T19:25:06Z</time>
      </trkpt>
      <trkpt lat="41.291543" lon="1.853705">
        <ele>270.0</ele>
        <time>2008-07-05T19:25:08Z</time>
      </trkpt>
      <trkpt lat="41.291476" lon="1.853738">
        <ele>269.0</ele>
        <time>2008-07-05T19:25:10Z</time>
      </trkpt>
      <trkpt lat="41.291393" lon="1.853788">
        <ele>268.0</ele>
        <time>2008-07-05T19:25:12Z</time>
      </trkpt>
      <trkpt lat="41.291309" lon="1.853838">
        <ele>267.0</ele>
        <time>2008-07-05T19:25:14Z</time>
      </trkpt>
      <trkpt lat="41.291226" lon="1.853888">
        <ele>266.0</ele>
        <time>2008-07-05T19:25:16Z</time>
      </trkpt>
      <trkpt lat="41.291126" lon="1.853938">
        <ele>265.0</ele>
        <time>2008-07-05T19:25:18Z</time>
      </trkpt>
      <trkpt lat="41.291026" lon="1.853988">
        <ele>263.0</ele>
        <time>2008-07-05T19:25:20Z</time>
      </trkpt>
      <trkpt lat="41.290943" lon="1.854021">
        <ele>263.0</ele>
        <time>2008-07-05T19:25:22Z</time>
      </trkpt>
      <trkpt lat="41.290843" lon="1.854088">
        <ele>264.0</ele>
        <time>2008-07-05T19:25:24Z</time>
      </trkpt>
      <trkpt lat="41.290759" lon="1.854155">
        <ele>263.0</ele>
        <time>2008-07-05T19:25:26Z</time>
      </trkpt>
      <trkpt lat="41.290693" lon="1.854221">
        <ele>263.0</ele>
        <time>2008-07-05T19:25:28Z</time>
      </trkpt>
      <trkpt lat="41.290659" lon="1.854288">
        <ele>262.0</ele>
        <time>2008-07-05T19:25:30Z</time>
      </trkpt>
      <trkpt lat="41.290643" lon="1.854388">
        <ele>261.0</ele>
        <time>2008-07-05T19:25:32Z</time>
      </trkpt>
      <trkpt lat="41.290609" lon="1.854471">
        <ele>261.0</ele>
        <time>2008-07-05T19:25:34Z</time>
      </trkpt>
      <trkpt lat="41.290543" lon="1.854538">
        <ele>260.0</ele>
        <time>2008-07-05T19:25:36Z</time>
      </trkpt>
      <trkpt lat="41.290459" lon="1.854621">
        <ele>260.0</ele>
        <time>2008-07-05T19:25:38Z</time>
      </trkpt>
      <trkpt lat="41.290393" lon="1.854721">
        <ele>261.0</ele>
        <time>2008-07-05T19:25:40Z</time>
      </trkpt>
      <trkpt lat="41.290309" lon="1.854821">
        <ele>262.0</ele>
        <time>2008-07-05T19:25:42Z</time>
      </trkpt>
      <trkpt lat="41.290226" lon="1.854905">
        <ele>262.0</ele>
        <time>2008-07-05T19:25:44Z</time>
      </trkpt>
      <trkpt lat="41.290126" lon="1.855005">
        <ele>261.0</ele>
        <time>2008-07-05T19:25:46Z</time>
      </trkpt>
      <trkpt lat="41.290026" lon="1.855105">
        <ele>261.0</ele>
        <time>2008-07-05T19:25:48Z</time>
      </trkpt>
      <trkpt lat="41.289926" lon="1.855221">
        <ele>260.0</ele>
        <time>2008-07-05T19:25:50Z</time>
      </trkpt>
      <trkpt lat="41.289826" lon="1.855321">
        <ele>260.0</ele>
        <time>2008-07-05T19:25:52Z</time>
      </trkpt>
      <trkpt lat="41.289726" lon="1.855438">
        <ele>259.0</ele>
        <time>2008-07-05T19:25:54Z</time>
      </trkpt>
      <trkpt lat="41.289609" lon="1.855538">
        <ele>259.0</ele>
        <time>2008-07-05T19:25:56Z</time>
      </trkpt>
      <trkpt lat="41.289526" lon="1.855655">
        <ele>258.0</ele>
        <time>2008-07-05T19:25:58Z</time>
      </trkpt>
      <trkpt lat="41.289443" lon="1.855771">
        <ele>254.0</ele>
        <time>2008-07-05T19:26:00Z</time>
      </trkpt>
      <trkpt lat="41.289376" lon="1.855888">
        <ele>253.0</ele>
        <time>2008-07-05T19:26:02Z</time>
      </trkpt>
      <trkpt lat="41.289293" lon="1.856005">
        <ele>252.0</ele>
        <time>2008-07-05T19:26:04Z</time>
      </trkpt>
      <trkpt lat="41.289209" lon="1.856138">
        <ele>251.0</ele>
        <time>2008-07-05T19:26:06Z</time>
      </trkpt>
      <trkpt lat="41.289126" lon="1.856255">
        <ele>250.0</ele>
        <time>2008-07-05T19:26:08Z</time>
      </trkpt>
      <trkpt lat="41.289043" lon="1.856371">
        <ele>249.0</ele>
        <time>2008-07-05T19:26:10Z</time>
      </trkpt>
      <trkpt lat="41.288943" lon="1.856505">
        <ele>248.0</ele>
        <time>2008-07-05T19:26:12Z</time>
      </trkpt>
      <trkpt lat="41.288843" lon="1.856621">
        <ele>247.0</ele>
        <time>2008-07-05T19:26:14Z</time>
      </trkpt>
      <trkpt lat="41.288743" lon="1.856705">
        <ele>246.0</ele>
        <time>2008-07-05T19:26:16Z</time>
      </trkpt>
      <trkpt lat="41.288626" lon="1.856738">
        <ele>245.0</ele>
        <time>2008-07-05T19:26:18Z</time>
      </trkpt>
      <trkpt lat="41.288509" lon="1.856721">
        <ele>246.0</ele>
        <time>2008-07-05T19:26:20Z</time>
      </trkpt>
      <trkpt lat="41.288376" lon="1.856721">
        <ele>246.0</ele>
        <time>2008-07-05T19:26:22Z</time>
      </trkpt>
      <trkpt lat="41.288243" lon="1.856771">
        <ele>246.0</ele>
        <time>2008-07-05T19:26:24Z</time>
      </trkpt>
      <trkpt lat="41.288109" lon="1.856838">
        <ele>246.0</ele>
        <time>2008-07-05T19:26:26Z</time>
      </trkpt>
      <trkpt lat="41.287993" lon="1.856955">
        <ele>247.0</ele>
        <time>2008-07-05T19:26:28Z</time>
      </trkpt>
      <trkpt lat="41.287893" lon="1.857088">
        <ele>247.0</ele>
        <time>2008-07-05T19:26:30Z</time>
      </trkpt>
      <trkpt lat="41.287809" lon="1.857205">
        <ele>245.0</ele>
        <time>2008-07-05T19:26:32Z</time>
      </trkpt>
      <trkpt lat="41.287726" lon="1.857305">
        <ele>245.0</ele>
        <time>2008-07-05T19:26:34Z</time>
      </trkpt>
      <trkpt lat="41.287626" lon="1.857288">
        <ele>246.0</ele>
        <time>2008-07-05T19:26:36Z</time>
      </trkpt>
      <trkpt lat="41.287576" lon="1.857171">
        <ele>246.0</ele>
        <time>2008-07-05T19:26:38Z</time>
      </trkpt>
      <trkpt lat="41.287559" lon="1.857005">
        <ele>247.0</ele>
        <time>2008-07-05T19:26:40Z</time>
      </trkpt>
      <trkpt lat="41.287543" lon="1.856805">
        <ele>247.0</ele>
        <time>2008-07-05T19:26:42Z</time>
      </trkpt>
      <trkpt lat="41.287509" lon="1.856605">
        <ele>247.0</ele>
        <time>2008-07-05T19:26:44Z</time>
      </trkpt>
      <trkpt lat="41.287459" lon="1.856405">
        <ele>248.0</ele>
        <time>2008-07-05T19:26:46Z</time>
      </trkpt>
      <trkpt lat="41.287443" lon="1.856205">
        <ele>248.0</ele>
        <time>2008-07-05T19:26:48Z</time>
      </trkpt>
      <trkpt lat="41.287426" lon="1.856005">
        <ele>248.0</ele>
        <time>2008-07-05T19:26:50Z</time>
      </trkpt>
      <trkpt lat="41.287459" lon="1.855805">
        <ele>249.0</ele>
        <time>2008-07-05T19:26:52Z</time>
      </trkpt>
      <trkpt lat="41.287509" lon="1.855605">
        <ele>249.0</ele>
        <time>2008-07-05T19:26:54Z</time>
      </trkpt>
      <trkpt lat="41.287576" lon="1.855421">
        <ele>250.0</ele>
        <time>2008-07-05T19:26:56Z</time>
      </trkpt>
      <trkpt lat="41.287626" lon="1.855221">
        <ele>249.0</ele>
        <time>2008-07-05T19:26:58Z</time>
      </trkpt>
      <trkpt lat="41.287676" lon="1.855021">
        <ele>248.0</ele>
        <time>2008-07-05T19:27:00Z</time>
      </trkpt>
      <trkpt lat="41.287743" lon="1.854805">
        <ele>249.0</ele>
        <time>2008-07-05T19:27:02Z</time>
      </trkpt>
      <trkpt lat="41.287793" lon="1.854605">
        <ele>251.0</ele>
        <time>2008-07-05T19:27:04Z</time>
      </trkpt>
      <trkpt lat="41.287843" lon="1.854421">
        <ele>250.0</ele>
        <time>2008-07-05T19:27:06Z</time>
      </trkpt>
      <trkpt lat="41.287893" lon="1.854238">
        <ele>252.0</ele>
        <time>2008-07-05T19:27:08Z</time>
      </trkpt>
      <trkpt lat="41.287943" lon="1.854055">
        <ele>253.0</ele>
        <time>2008-07-05T19:27:10Z</time>
      </trkpt>
      <trkpt lat="41.287976" lon="1.853905">
        <ele>254.0</ele>
        <time>2008-07-05T19:27:12Z</time>
      </trkpt>
      <trkpt lat="41.287993" lon="1.853788">
        <ele>254.0</ele>
        <time>2008-07-05T19:27:14Z</time>
      </trkpt>
      <trkpt lat="41.287976" lon="1.853655">
        <ele>254.0</ele>
        <time>2008-07-05T19:27:16Z</time>
      </trkpt>
      <trkpt lat="41.287909" lon="1.853555">
        <ele>253.0</ele>
        <time>2008-07-05T19:27:18Z</time>
      </trkpt>
      <trkpt lat="41.287793" lon="1.853521">
        <ele>251.0</ele>
        <time>2008-07-05T19:27:20Z</time>
      </trkpt>
      <trkpt lat="41.287659" lon="1.853471">
        <ele>250.0</ele>
        <time>2008-07-05T19:27:22Z</time>
      </trkpt>
      <trkpt lat="41.287526" lon="1.853388">
        <ele>248.0</ele>
        <time>2008-07-05T19:27:24Z</time>
      </trkpt>
      <trkpt lat="41.287443" lon="1.853271">
        <ele>247.0</ele>
        <time>2008-07-05T19:27:26Z</time>
      </trkpt>
      <trkpt lat="41.287376" lon="1.853105">
        <ele>248.0</ele>
        <time>2008-07-05T19:27:28Z</time>
      </trkpt>
      <trkpt lat="41.287326" lon="1.852921">
        <ele>249.0</ele>
        <time>2008-07-05T19:27:30Z</time>
      </trkpt>
      <trkpt lat="41.287276" lon="1.852738">
        <ele>252.0</ele>
        <time>2008-07-05T19:27:32Z</time>
      </trkpt>
      <trkpt lat="41.287226" lon="1.852605">
        <ele>252.0</ele>
        <time>2008-07-05T19:27:34Z</time>
      </trkpt>
      <trkpt lat="41.287176" lon="1.852455">
        <ele>253.0</ele>
        <time>2008-07-05T19:27:36Z</time>
      </trkpt>
      <trkpt lat="41.287109" lon="1.852305">
        <ele>254.0</ele>
        <time>2008-07-05T19:27:38Z</time>
      </trkpt>
      <trkpt lat="41.287043" lon="1.852155">
        <ele>256.0</ele>
        <time>2008-07-05T19:27:40Z</time>
      </trkpt>
      <trkpt lat="41.287009" lon="1.851988">
        <ele>256.0</ele>
        <time>2008-07-05T19:27:42Z</time>
      </trkpt>
      <trkpt lat="41.286976" lon="1.851855">
        <ele>255.0</ele>
        <time>2008-07-05T19:27:44Z</time>
      </trkpt>
      <trkpt lat="41.286959" lon="1.851738">
        <ele>255.0</ele>
        <time>2008-07-05T19:27:46Z</time>
      </trkpt>
      <trkpt lat="41.286943" lon="1.851655">
        <ele>254.0</ele>
        <time>2008-07-05T19:27:48Z</time>
      </trkpt>
      <trkpt lat="41.286926" lon="1.851555">
        <ele>253.0</ele>
        <time>2008-07-05T19:27:50Z</time>
      </trkpt>
      <trkpt lat="41.286909" lon="1.851421">
        <ele>253.0</ele>
        <time>2008-07-05T19:27:52Z</time>
      </trkpt>
      <trkpt lat="41.286893" lon="1.851271">
        <ele>253.0</ele>
        <time>2008-07-05T19:27:54Z</time>
      </trkpt>
      <trkpt lat="41.286876" lon="1.851121">
        <ele>252.0</ele>
        <time>2008-07-05T19:27:56Z</time>
      </trkpt>
      <trkpt lat="41.286843" lon="1.850988">
        <ele>253.0</ele>
        <time>2008-07-05T19:27:58Z</time>
      </trkpt>
      <trkpt lat="41.286809" lon="1.850821">
        <ele>252.0</ele>
        <time>2008-07-05T19:28:00Z</time>
      </trkpt>
      <trkpt lat="41.286793" lon="1.850655">
        <ele>252.0</ele>
        <time>2008-07-05T19:28:02Z</time>
      </trkpt>
      <trkpt lat="41.286776" lon="1.850505">
        <ele>253.0</ele>
        <time>2008-07-05T19:28:04Z</time>
      </trkpt>
      <trkpt lat="41.286759" lon="1.850355">
        <ele>253.0</ele>
        <time>2008-07-05T19:28:06Z</time>
      </trkpt>
      <trkpt lat="41.286726" lon="1.850221">
        <ele>253.0</ele>
        <time>2008-07-05T19:28:08Z</time>
      </trkpt>
      <trkpt lat="41.286709" lon="1.850121">
        <ele>253.0</ele>
        <time>2008-07-05T19:28:10Z</time>
      </trkpt>
      <trkpt lat="41.286676" lon="1.850005">
        <ele>254.0</ele>
        <time>2008-07-05T19:28:12Z</time>
      </trkpt>
      <trkpt lat="41.286609" lon="1.849888">
        <ele>254.0</ele>
        <time>2008-07-05T19:28:14Z</time>
      </trkpt>
      <trkpt lat="41.286493" lon="1.849805">
        <ele>253.0</ele>
        <time>2008-07-05T19:28:16Z</time>
      </trkpt>
      <trkpt lat="41.286376" lon="1.849688">
        <ele>252.0</ele>
        <time>2008-07-05T19:28:18Z</time>
      </trkpt>
      <trkpt lat="41.286293" lon="1.849555">
        <ele>252.0</ele>
        <time>2008-07-05T19:28:20Z</time>
      </trkpt>
      <trkpt lat="41.286226" lon="1.849388">
        <ele>251.0</ele>
        <time>2008-07-05T19:28:22Z</time>
      </trkpt>
      <trkpt lat="41.286193" lon="1.849221">
        <ele>250.0</ele>
        <time>2008-07-05T19:28:24Z</time>
      </trkpt>
      <trkpt lat="41.286159" lon="1.849038">
        <ele>250.0</ele>
        <time>2008-07-05T19:28:26Z</time>
      </trkpt>
      <trkpt lat="41.286126" lon="1.848838">
        <ele>249.0</ele>
        <time>2008-07-05T19:28:28Z</time>
      </trkpt>
      <trkpt lat="41.286076" lon="1.848638">
        <ele>249.0</ele>
        <time>2008-07-05T19:28:30Z</time>
      </trkpt>
      <trkpt lat="41.286043" lon="1.848471">
        <ele>249.0</ele>
        <time>2008-07-05T19:28:32Z</time>
      </trkpt>
      <trkpt lat="41.286009" lon="1.848305">
        <ele>250.0</ele>
        <time>2008-07-05T19:28:34Z</time>
      </trkpt>
      <trkpt lat="41.285993" lon="1.848155">
        <ele>250.0</ele>
        <time>2008-07-05T19:28:36Z</time>
      </trkpt>
      <trkpt lat="41.285959" lon="1.847988">
        <ele>250.0</ele>
        <time>2008-07-05T19:28:38Z</time>
      </trkpt>
      <trkpt lat="41.285926" lon="1.847805">
        <ele>250.0</ele>
        <time>2008-07-05T19:28:40Z</time>
      </trkpt>
      <trkpt lat="41.285909" lon="1.847621">
        <ele>250.0</ele>
        <time>2008-07-05T19:28:42Z</time>
      </trkpt>
      <trkpt lat="41.285893" lon="1.847438">
        <ele>251.0</ele>
        <time>2008-07-05T19:28:44Z</time>
      </trkpt>
      <trkpt lat="41.285893" lon="1.847238">
        <ele>251.0</ele>
        <time>2008-07-05T19:28:46Z</time>
      </trkpt>
      <trkpt lat="41.285893" lon="1.847038">
        <ele>251.0</ele>
        <time>2008-07-05T19:28:48Z</time>
      </trkpt>
      <trkpt lat="41.285926" lon="1.846838">
        <ele>252.0</ele>
        <time>2008-07-05T19:28:50Z</time>
      </trkpt>
      <trkpt lat="41.285976" lon="1.846655">
        <ele>253.0</ele>
        <time>2008-07-05T19:28:52Z</time>
      </trkpt>
      <trkpt lat="41.286043" lon="1.846471">
        <ele>252.0</ele>
        <time>2008-07-05T19:28:54Z</time>
      </trkpt>
      <trkpt lat="41.286126" lon="1.846271">
        <ele>252.0</ele>
        <time>2008-07-05T19:28:56Z</time>
      </trkpt>
      <trkpt lat="41.286193" lon="1.846121">
        <ele>252.0</ele>
        <time>2008-07-05T19:28:58Z</time>
      </trkpt>
      <trkpt lat="41.286276" lon="1.845955">
        <ele>252.0</ele>
        <time>2008-07-05T19:29:00Z</time>
      </trkpt>
      <trkpt lat="41.286343" lon="1.845805">
        <ele>252.0</ele>
        <time>2008-07-05T19:29:02Z</time>
      </trkpt>
      <trkpt lat="41.286409" lon="1.845638">
        <ele>252.0</ele>
        <time>2008-07-05T19:29:04Z</time>
      </trkpt>
      <trkpt lat="41.286459" lon="1.845488">
        <ele>252.0</ele>
        <time>2008-07-05T19:29:06Z</time>
      </trkpt>
      <trkpt lat="41.286459" lon="1.845388">
        <ele>251.0</ele>
        <time>2008-07-05T19:29:08Z</time>
      </trkpt>
      <trkpt lat="41.286476" lon="1.845271">
        <ele>250.0</ele>
        <time>2008-07-05T19:29:10Z</time>
      </trkpt>
      <trkpt lat="41.286476" lon="1.845138">
        <ele>250.0</ele>
        <time>2008-07-05T19:29:12Z</time>
      </trkpt>
      <trkpt lat="41.286459" lon="1.844971">
        <ele>250.0</ele>
        <time>2008-07-05T19:29:14Z</time>
      </trkpt>
      <trkpt lat="41.286459" lon="1.844821">
        <ele>250.0</ele>
        <time>2008-07-05T19:29:16Z</time>
      </trkpt>
      <trkpt lat="41.286459" lon="1.844671">
        <ele>249.0</ele>
        <time>2008-07-05T19:29:18Z</time>
      </trkpt>
      <trkpt lat="41.286459" lon="1.844521">
        <ele>248.0</ele>
        <time>2008-07-05T19:29:20Z</time>
      </trkpt>
      <trkpt lat="41.286476" lon="1.844355">
        <ele>246.0</ele>
        <time>2008-07-05T19:29:22Z</time>
      </trkpt>
      <trkpt lat="41.286493" lon="1.844205">
        <ele>247.0</ele>
        <time>2008-07-05T19:29:24Z</time>
      </trkpt>
      <trkpt lat="41.286526" lon="1.844038">
        <ele>245.0</ele>
        <time>2008-07-05T19:29:26Z</time>
      </trkpt>
      <trkpt lat="41.286559" lon="1.843888">
        <ele>244.0</ele>
        <time>2008-07-05T19:29:28Z</time>
      </trkpt>
      <trkpt lat="41.286609" lon="1.843738">
        <ele>244.0</ele>
        <time>2008-07-05T19:29:30Z</time>
      </trkpt>
      <trkpt lat="41.286659" lon="1.843571">
        <ele>242.0</ele>
        <time>2008-07-05T19:29:32Z</time>
      </trkpt>
      <trkpt lat="41.286709" lon="1.843405">
        <ele>240.0</ele>
        <time>2008-07-05T19:29:34Z</time>
      </trkpt>
      <trkpt lat="41.286759" lon="1.843255">
        <ele>238.0</ele>
        <time>2008-07-05T19:29:36Z</time>
      </trkpt>
      <trkpt lat="41.286793" lon="1.843071">
        <ele>237.0</ele>
        <time>2008-07-05T19:29:38Z</time>
      </trkpt>
      <trkpt lat="41.286809" lon="1.842905">
        <ele>235.0</ele>
        <time>2008-07-05T19:29:40Z</time>
      </trkpt>
      <trkpt lat="41.286826" lon="1.842738">
        <ele>234.0</ele>
        <time>2008-07-05T19:29:42Z</time>
      </trkpt>
      <trkpt lat="41.286826" lon="1.842588">
        <ele>233.0</ele>
        <time>2008-07-05T19:29:44Z</time>
      </trkpt>
      <trkpt lat="41.286826" lon="1.842421">
        <ele>232.0</ele>
        <time>2008-07-05T19:29:46Z</time>
      </trkpt>
      <trkpt lat="41.286809" lon="1.842238">
        <ele>232.0</ele>
        <time>2008-07-05T19:29:48Z</time>
      </trkpt>
      <trkpt lat="41.286776" lon="1.842088">
        <ele>232.0</ele>
        <time>2008-07-05T19:29:50Z</time>
      </trkpt>
      <trkpt lat="41.286709" lon="1.841955">
        <ele>231.0</ele>
        <time>2008-07-05T19:29:52Z</time>
      </trkpt>
      <trkpt lat="41.286609" lon="1.841855">
        <ele>230.0</ele>
        <time>2008-07-05T19:29:54Z</time>
      </trkpt>
      <trkpt lat="41.286493" lon="1.841738">
        <ele>228.0</ele>
        <time>2008-07-05T19:29:56Z</time>
      </trkpt>
      <trkpt lat="41.286393" lon="1.841605">
        <ele>227.0</ele>
        <time>2008-07-05T19:29:58Z</time>
      </trkpt>
      <trkpt lat="41.286293" lon="1.841488">
        <ele>226.0</ele>
        <time>2008-07-05T19:30:00Z</time>
      </trkpt>
      <trkpt lat="41.286209" lon="1.841338">
        <ele>225.0</ele>
        <time>2008-07-05T19:30:02Z</time>
      </trkpt>
      <trkpt lat="41.286159" lon="1.841171">
        <ele>225.0</ele>
        <time>2008-07-05T19:30:04Z</time>
      </trkpt>
      <trkpt lat="41.286093" lon="1.840988">
        <ele>224.0</ele>
        <time>2008-07-05T19:30:06Z</time>
      </trkpt>
      <trkpt lat="41.286059" lon="1.840805">
        <ele>222.0</ele>
        <time>2008-07-05T19:30:08Z</time>
      </trkpt>
      <trkpt lat="41.286043" lon="1.840621">
        <ele>221.0</ele>
        <time>2008-07-05T19:30:10Z</time>
      </trkpt>
      <trkpt lat="41.286043" lon="1.840421">
        <ele>220.0</ele>
        <time>2008-07-05T19:30:12Z</time>
      </trkpt>
      <trkpt lat="41.286026" lon="1.840255">
        <ele>218.0</ele>
        <time>2008-07-05T19:30:14Z</time>
      </trkpt>
      <trkpt lat="41.285943" lon="1.840105">
        <ele>216.0</ele>
        <time>2008-07-05T19:30:16Z</time>
      </trkpt>
      <trkpt lat="41.285826" lon="1.840005">
        <ele>214.0</ele>
        <time>2008-07-05T19:30:18Z</time>
      </trkpt>
      <trkpt lat="41.285709" lon="1.839888">
        <ele>213.0</ele>
        <time>2008-07-05T19:30:20Z</time>
      </trkpt>
      <trkpt lat="41.285643" lon="1.839755">
        <ele>211.0</ele>
        <time>2008-07-05T19:30:22Z</time>
      </trkpt>
      <trkpt lat="41.285626" lon="1.839621">
        <ele>210.0</ele>
        <time>2008-07-05T19:30:24Z</time>
      </trkpt>
      <trkpt lat="41.285559" lon="1.839538">
        <ele>208.0</ele>
        <time>2008-07-05T19:30:26Z</time>
      </trkpt>
      <trkpt lat="41.285443" lon="1.839555">
        <ele>206.0</ele>
        <time>2008-07-05T19:30:28Z</time>
      </trkpt>
      <trkpt lat="41.285326" lon="1.839605">
        <ele>204.0</ele>
        <time>2008-07-05T19:30:30Z</time>
      </trkpt>
      <trkpt lat="41.285193" lon="1.839638">
        <ele>202.0</ele>
        <time>2008-07-05T19:30:32Z</time>
      </trkpt>
      <trkpt lat="41.285076" lon="1.839605">
        <ele>202.0</ele>
        <time>2008-07-05T19:30:34Z</time>
      </trkpt>
      <trkpt lat="41.284976" lon="1.839521">
        <ele>200.0</ele>
        <time>2008-07-05T19:30:36Z</time>
      </trkpt>
      <trkpt lat="41.284876" lon="1.839405">
        <ele>200.0</ele>
        <time>2008-07-05T19:30:38Z</time>
      </trkpt>
      <trkpt lat="41.284776" lon="1.839288">
        <ele>200.0</ele>
        <time>2008-07-05T19:30:40Z</time>
      </trkpt>
      <trkpt lat="41.284693" lon="1.839171">
        <ele>199.0</ele>
        <time>2008-07-05T19:30:42Z</time>
      </trkpt>
      <trkpt lat="41.284626" lon="1.839071">
        <ele>200.0</ele>
        <time>2008-07-05T19:30:44Z</time>
      </trkpt>
      <trkpt lat="41.284576" lon="1.838938">
        <ele>201.0</ele>
        <time>2008-07-05T19:30:46Z</time>
      </trkpt>
      <trkpt lat="41.284559" lon="1.838771">
        <ele>202.0</ele>
        <time>2008-07-05T19:30:48Z</time>
      </trkpt>
      <trkpt lat="41.284593" lon="1.838605">
        <ele>203.0</ele>
        <time>2008-07-05T19:30:50Z</time>
      </trkpt>
      <trkpt lat="41.284659" lon="1.838455">
        <ele>203.0</ele>
        <time>2008-07-05T19:30:52Z</time>
      </trkpt>
      <trkpt lat="41.284709" lon="1.838288">
        <ele>204.0</ele>
        <time>2008-07-05T19:30:54Z</time>
      </trkpt>
      <trkpt lat="41.284759" lon="1.838105">
        <ele>206.0</ele>
        <time>2008-07-05T19:30:56Z</time>
      </trkpt>
      <trkpt lat="41.284809" lon="1.837955">
        <ele>206.0</ele>
        <time>2008-07-05T19:30:58Z</time>
      </trkpt>
      <trkpt lat="41.284843" lon="1.837771">
        <ele>206.0</ele>
        <time>2008-07-05T19:31:00Z</time>
      </trkpt>
      <trkpt lat="41.284859" lon="1.837638">
        <ele>205.0</ele>
        <time>2008-07-05T19:31:02Z</time>
      </trkpt>
      <trkpt lat="41.284876" lon="1.837571">
        <ele>203.0</ele>
        <time>2008-07-05T19:31:04Z</time>
      </trkpt>
      <trkpt lat="41.284893" lon="1.837471">
        <ele>203.0</ele>
        <time>2008-07-05T19:31:06Z</time>
      </trkpt>
      <trkpt lat="41.284893" lon="1.837371">
        <ele>202.0</ele>
        <time>2008-07-05T19:31:08Z</time>
      </trkpt>
      <trkpt lat="41.284859" lon="1.837255">
        <ele>200.0</ele>
        <time>2008-07-05T19:31:10Z</time>
      </trkpt>
      <trkpt lat="41.284826" lon="1.837155">
        <ele>199.0</ele>
        <time>2008-07-05T19:31:12Z</time>
      </trkpt>
      <trkpt lat="41.284776" lon="1.837038">
        <ele>199.0</ele>
        <time>2008-07-05T19:31:14Z</time>
      </trkpt>
      <trkpt lat="41.284743" lon="1.836988">
        <ele>199.0</ele>
        <time>2008-07-05T19:31:15Z</time>
      </trkpt>
      <trkpt lat="41.284709" lon="1.836955">
        <ele>199.0</ele>
        <time>2008-07-05T19:31:16Z</time>
      </trkpt>
      <trkpt lat="41.284659" lon="1.836888">
        <ele>198.0</ele>
        <time>2008-07-05T19:31:18Z</time>
      </trkpt>
      <trkpt lat="41.284609" lon="1.836821">
        <ele>196.0</ele>
        <time>2008-07-05T19:31:20Z</time>
      </trkpt>
      <trkpt lat="41.284543" lon="1.836755">
        <ele>197.0</ele>
        <time>2008-07-05T19:31:22Z</time>
      </trkpt>
      <trkpt lat="41.284493" lon="1.836671">
        <ele>195.0</ele>
        <time>2008-07-05T19:31:24Z</time>
      </trkpt>
      <trkpt lat="41.284426" lon="1.836605">
        <ele>194.0</ele>
        <time>2008-07-05T19:31:26Z</time>
      </trkpt>
      <trkpt lat="41.284376" lon="1.836521">
        <ele>194.0</ele>
        <time>2008-07-05T19:31:28Z</time>
      </trkpt>
      <trkpt lat="41.284309" lon="1.836455">
        <ele>194.0</ele>
        <time>2008-07-05T19:31:30Z</time>
      </trkpt>
      <trkpt lat="41.284259" lon="1.836388">
        <ele>193.0</ele>
        <time>2008-07-05T19:31:32Z</time>
      </trkpt>
      <trkpt lat="41.284193" lon="1.836321">
        <ele>192.0</ele>
        <time>2008-07-05T19:31:34Z</time>
      </trkpt>
      <trkpt lat="41.284109" lon="1.836321">
        <ele>191.0</ele>
        <time>2008-07-05T19:31:36Z</time>
      </trkpt>
      <trkpt lat="41.284026" lon="1.836371">
        <ele>189.0</ele>
        <time>2008-07-05T19:31:38Z</time>
      </trkpt>
      <trkpt lat="41.283943" lon="1.836421">
        <ele>188.0</ele>
        <time>2008-07-05T19:31:40Z</time>
      </trkpt>
      <trkpt lat="41.283826" lon="1.836488">
        <ele>187.0</ele>
        <time>2008-07-05T19:31:42Z</time>
      </trkpt>
      <trkpt lat="41.283726" lon="1.836555">
        <ele>186.0</ele>
        <time>2008-07-05T19:31:44Z</time>
      </trkpt>
      <trkpt lat="41.283609" lon="1.836571">
        <ele>186.0</ele>
        <time>2008-07-05T19:31:46Z</time>
      </trkpt>
      <trkpt lat="41.283493" lon="1.836521">
        <ele>184.0</ele>
        <time>2008-07-05T19:31:48Z</time>
      </trkpt>
      <trkpt lat="41.283409" lon="1.836405">
        <ele>183.0</ele>
        <time>2008-07-05T19:31:50Z</time>
      </trkpt>
      <trkpt lat="41.283343" lon="1.836238">
        <ele>183.0</ele>
        <time>2008-07-05T19:31:52Z</time>
      </trkpt>
      <trkpt lat="41.283276" lon="1.836105">
        <ele>182.0</ele>
        <time>2008-07-05T19:31:54Z</time>
      </trkpt>
      <trkpt lat="41.283209" lon="1.836021">
        <ele>181.0</ele>
        <time>2008-07-05T19:31:56Z</time>
      </trkpt>
      <trkpt lat="41.283143" lon="1.836021">
        <ele>181.0</ele>
        <time>2008-07-05T19:31:58Z</time>
      </trkpt>
      <trkpt lat="41.283093" lon="1.836038">
        <ele>180.0</ele>
        <time>2008-07-05T19:32:00Z</time>
      </trkpt>
      <trkpt lat="41.283059" lon="1.836071">
        <ele>181.0</ele>
        <time>2008-07-05T19:32:02Z</time>
      </trkpt>
      <trkpt lat="41.282993" lon="1.836138">
        <ele>181.0</ele>
        <time>2008-07-05T19:32:04Z</time>
      </trkpt>
      <trkpt lat="41.282893" lon="1.836221">
        <ele>181.0</ele>
        <time>2008-07-05T19:32:06Z</time>
      </trkpt>
      <trkpt lat="41.282793" lon="1.836305">
        <ele>181.0</ele>
        <time>2008-07-05T19:32:08Z</time>
      </trkpt>
      <trkpt lat="41.282693" lon="1.836405">
        <ele>181.0</ele>
        <time>2008-07-05T19:32:10Z</time>
      </trkpt>
      <trkpt lat="41.282593" lon="1.836488">
        <ele>180.0</ele>
        <time>2008-07-05T19:32:12Z</time>
      </trkpt>
      <trkpt lat="41.282476" lon="1.836571">
        <ele>180.0</ele>
        <time>2008-07-05T19:32:14Z</time>
      </trkpt>
      <trkpt lat="41.282376" lon="1.836671">
        <ele>181.0</ele>
        <time>2008-07-05T19:32:16Z</time>
      </trkpt>
      <trkpt lat="41.282276" lon="1.836771">
        <ele>181.0</ele>
        <time>2008-07-05T19:32:18Z</time>
      </trkpt>
      <trkpt lat="41.282193" lon="1.836888">
        <ele>181.0</ele>
        <time>2008-07-05T19:32:20Z</time>
      </trkpt>
      <trkpt lat="41.282126" lon="1.837005">
        <ele>181.0</ele>
        <time>2008-07-05T19:32:22Z</time>
      </trkpt>
      <trkpt lat="41.282059" lon="1.837121">
        <ele>179.0</ele>
        <time>2008-07-05T19:32:24Z</time>
      </trkpt>
      <trkpt lat="41.281976" lon="1.837238">
        <ele>178.0</ele>
        <time>2008-07-05T19:32:26Z</time>
      </trkpt>
      <trkpt lat="41.281909" lon="1.837338">
        <ele>177.0</ele>
        <time>2008-07-05T19:32:28Z</time>
      </trkpt>
      <trkpt lat="41.281893" lon="1.837438">
        <ele>175.0</ele>
        <time>2008-07-05T19:32:30Z</time>
      </trkpt>
      <trkpt lat="41.281926" lon="1.837521">
        <ele>174.0</ele>
        <time>2008-07-05T19:32:32Z</time>
      </trkpt>
      <trkpt lat="41.282026" lon="1.837538">
        <ele>172.0</ele>
        <time>2008-07-05T19:32:34Z</time>
      </trkpt>
      <trkpt lat="41.282109" lon="1.837505">
        <ele>171.0</ele>
        <time>2008-07-05T19:32:36Z</time>
      </trkpt>
      <trkpt lat="41.282176" lon="1.837471">
        <ele>170.0</ele>
        <time>2008-07-05T19:32:38Z</time>
      </trkpt>
      <trkpt lat="41.282259" lon="1.837471">
        <ele>169.0</ele>
        <time>2008-07-05T19:32:40Z</time>
      </trkpt>
      <trkpt lat="41.282326" lon="1.837505">
        <ele>167.0</ele>
        <time>2008-07-05T19:32:42Z</time>
      </trkpt>
      <trkpt lat="41.282343" lon="1.837571">
        <ele>166.0</ele>
        <time>2008-07-05T19:32:44Z</time>
      </trkpt>
      <trkpt lat="41.282309" lon="1.837655">
        <ele>165.0</ele>
        <time>2008-07-05T19:32:46Z</time>
      </trkpt>
      <trkpt lat="41.282276" lon="1.837755">
        <ele>165.0</ele>
        <time>2008-07-05T19:32:48Z</time>
      </trkpt>
      <trkpt lat="41.282209" lon="1.837855">
        <ele>164.0</ele>
        <time>2008-07-05T19:32:50Z</time>
      </trkpt>
      <trkpt lat="41.282159" lon="1.837955">
        <ele>163.0</ele>
        <time>2008-07-05T19:32:52Z</time>
      </trkpt>
      <trkpt lat="41.282109" lon="1.838038">
        <ele>161.0</ele>
        <time>2008-07-05T19:32:54Z</time>
      </trkpt>
      <trkpt lat="41.282059" lon="1.838121">
        <ele>160.0</ele>
        <time>2008-07-05T19:32:56Z</time>
      </trkpt>
      <trkpt lat="41.282009" lon="1.838221">
        <ele>159.0</ele>
        <time>2008-07-05T19:32:58Z</time>
      </trkpt>
      <trkpt lat="41.281959" lon="1.838271">
        <ele>159.0</ele>
        <time>2008-07-05T19:32:59Z</time>
      </trkpt>
      <trkpt lat="41.281926" lon="1.838305">
        <ele>158.0</ele>
        <time>2008-07-05T19:33:00Z</time>
      </trkpt>
      <trkpt lat="41.281826" lon="1.838371">
        <ele>157.0</ele>
        <time>2008-07-05T19:33:02Z</time>
      </trkpt>
      <trkpt lat="41.281726" lon="1.838438">
        <ele>156.0</ele>
        <time>2008-07-05T19:33:04Z</time>
      </trkpt>
      <trkpt lat="41.281626" lon="1.838505">
        <ele>155.0</ele>
        <time>2008-07-05T19:33:06Z</time>
      </trkpt>
      <trkpt lat="41.281493" lon="1.838555">
        <ele>153.0</ele>
        <time>2008-07-05T19:33:08Z</time>
      </trkpt>
      <trkpt lat="41.281376" lon="1.838621">
        <ele>153.0</ele>
        <time>2008-07-05T19:33:10Z</time>
      </trkpt>
      <trkpt lat="41.281259" lon="1.838705">
        <ele>153.0</ele>
        <time>2008-07-05T19:33:12Z</time>
      </trkpt>
      <trkpt lat="41.281159" lon="1.838805">
        <ele>152.0</ele>
        <time>2008-07-05T19:33:14Z</time>
      </trkpt>
      <trkpt lat="41.281126" lon="1.838888">
        <ele>151.0</ele>
        <time>2008-07-05T19:33:15Z</time>
      </trkpt>
      <trkpt lat="41.281109" lon="1.838971">
        <ele>151.0</ele>
        <time>2008-07-05T19:33:16Z</time>
      </trkpt>
      <trkpt lat="41.281093" lon="1.839138">
        <ele>151.0</ele>
        <time>2008-07-05T19:33:18Z</time>
      </trkpt>
      <trkpt lat="41.281009" lon="1.839255">
        <ele>150.0</ele>
        <time>2008-07-05T19:33:20Z</time>
      </trkpt>
      <trkpt lat="41.280926" lon="1.839305">
        <ele>149.0</ele>
        <time>2008-07-05T19:33:22Z</time>
      </trkpt>
      <trkpt lat="41.280809" lon="1.839371">
        <ele>148.0</ele>
        <time>2008-07-05T19:33:24Z</time>
      </trkpt>
      <trkpt lat="41.280676" lon="1.839455">
        <ele>148.0</ele>
        <time>2008-07-05T19:33:26Z</time>
      </trkpt>
      <trkpt lat="41.280559" lon="1.839521">
        <ele>148.0</ele>
        <time>2008-07-05T19:33:28Z</time>
      </trkpt>
      <trkpt lat="41.280443" lon="1.839588">
        <ele>147.0</ele>
        <time>2008-07-05T19:33:30Z</time>
      </trkpt>
      <trkpt lat="41.280376" lon="1.839638">
        <ele>147.0</ele>
        <time>2008-07-05T19:33:32Z</time>
      </trkpt>
      <trkpt lat="41.280326" lon="1.839655">
        <ele>147.0</ele>
        <time>2008-07-05T19:33:34Z</time>
      </trkpt>
      <trkpt lat="41.280309" lon="1.839655">
        <ele>146.0</ele>
        <time>2008-07-05T19:33:36Z</time>
      </trkpt>
      <trkpt lat="41.280276" lon="1.839671">
        <ele>146.0</ele>
        <time>2008-07-05T19:33:38Z</time>
      </trkpt>
      <trkpt lat="41.280226" lon="1.839755">
        <ele>145.0</ele>
        <time>2008-07-05T19:33:40Z</time>
      </trkpt>
      <trkpt lat="41.280176" lon="1.839855">
        <ele>144.0</ele>
        <time>2008-07-05T19:33:42Z</time>
      </trkpt>
      <trkpt lat="41.280109" lon="1.839955">
        <ele>143.0</ele>
        <time>2008-07-05T19:33:44Z</time>
      </trkpt>
      <trkpt lat="41.280059" lon="1.840038">
        <ele>143.0</ele>
        <time>2008-07-05T19:33:46Z</time>
      </trkpt>
      <trkpt lat="41.280009" lon="1.840105">
        <ele>143.0</ele>
        <time>2008-07-05T19:33:48Z</time>
      </trkpt>
      <trkpt lat="41.279926" lon="1.840088">
        <ele>143.0</ele>
        <time>2008-07-05T19:33:50Z</time>
      </trkpt>
      <trkpt lat="41.279859" lon="1.839988">
        <ele>142.0</ele>
        <time>2008-07-05T19:33:52Z</time>
      </trkpt>
      <trkpt lat="41.279859" lon="1.839821">
        <ele>143.0</ele>
        <time>2008-07-05T19:33:54Z</time>
      </trkpt>
      <trkpt lat="41.279859" lon="1.839655">
        <ele>144.0</ele>
        <time>2008-07-05T19:33:56Z</time>
      </trkpt>
      <trkpt lat="41.279876" lon="1.839521">
        <ele>145.0</ele>
        <time>2008-07-05T19:33:58Z</time>
      </trkpt>
      <trkpt lat="41.279876" lon="1.839405">
        <ele>146.0</ele>
        <time>2008-07-05T19:34:00Z</time>
      </trkpt>
      <trkpt lat="41.279893" lon="1.839271">
        <ele>148.0</ele>
        <time>2008-07-05T19:34:02Z</time>
      </trkpt>
      <trkpt lat="41.279926" lon="1.839121">
        <ele>147.0</ele>
        <time>2008-07-05T19:34:04Z</time>
      </trkpt>
      <trkpt lat="41.279976" lon="1.838971">
        <ele>148.0</ele>
        <time>2008-07-05T19:34:06Z</time>
      </trkpt>
      <trkpt lat="41.279993" lon="1.838805">
        <ele>148.0</ele>
        <time>2008-07-05T19:34:08Z</time>
      </trkpt>
      <trkpt lat="41.279959" lon="1.838638">
        <ele>148.0</ele>
        <time>2008-07-05T19:34:10Z</time>
      </trkpt>
      <trkpt lat="41.279876" lon="1.838505">
        <ele>148.0</ele>
        <time>2008-07-05T19:34:12Z</time>
      </trkpt>
      <trkpt lat="41.279776" lon="1.838371">
        <ele>148.0</ele>
        <time>2008-07-05T19:34:14Z</time>
      </trkpt>
      <trkpt lat="41.279676" lon="1.838271">
        <ele>149.0</ele>
        <time>2008-07-05T19:34:16Z</time>
      </trkpt>
      <trkpt lat="41.279576" lon="1.838171">
        <ele>149.0</ele>
        <time>2008-07-05T19:34:18Z</time>
      </trkpt>
      <trkpt lat="41.279476" lon="1.838088">
        <ele>149.0</ele>
        <time>2008-07-05T19:34:20Z</time>
      </trkpt>
      <trkpt lat="41.279376" lon="1.838005">
        <ele>149.0</ele>
        <time>2008-07-05T19:34:22Z</time>
      </trkpt>
      <trkpt lat="41.279259" lon="1.837921">
        <ele>150.0</ele>
        <time>2008-07-05T19:34:24Z</time>
      </trkpt>
      <trkpt lat="41.279143" lon="1.837838">
        <ele>150.0</ele>
        <time>2008-07-05T19:34:26Z</time>
      </trkpt>
      <trkpt lat="41.279043" lon="1.837821">
        <ele>150.0</ele>
        <time>2008-07-05T19:34:28Z</time>
      </trkpt>
      <trkpt lat="41.278943" lon="1.837888">
        <ele>151.0</ele>
        <time>2008-07-05T19:34:30Z</time>
      </trkpt>
      <trkpt lat="41.278893" lon="1.837938">
        <ele>151.0</ele>
        <time>2008-07-05T19:34:31Z</time>
      </trkpt>
      <trkpt lat="41.278859" lon="1.837988">
        <ele>151.0</ele>
        <time>2008-07-05T19:34:32Z</time>
      </trkpt>
      <trkpt lat="41.278759" lon="1.838105">
        <ele>151.0</ele>
        <time>2008-07-05T19:34:34Z</time>
      </trkpt>
      <trkpt lat="41.278659" lon="1.838188">
        <ele>151.0</ele>
        <time>2008-07-05T19:34:36Z</time>
      </trkpt>
      <trkpt lat="41.278559" lon="1.838221">
        <ele>152.0</ele>
        <time>2008-07-05T19:34:38Z</time>
      </trkpt>
      <trkpt lat="41.278459" lon="1.838155">
        <ele>152.0</ele>
        <time>2008-07-05T19:34:40Z</time>
      </trkpt>
      <trkpt lat="41.278359" lon="1.838105">
        <ele>154.0</ele>
        <time>2008-07-05T19:34:42Z</time>
      </trkpt>
      <trkpt lat="41.278243" lon="1.838121">
        <ele>155.0</ele>
        <time>2008-07-05T19:34:44Z</time>
      </trkpt>
      <trkpt lat="41.278109" lon="1.838138">
        <ele>155.0</ele>
        <time>2008-07-05T19:34:46Z</time>
      </trkpt>
      <trkpt lat="41.277976" lon="1.838171">
        <ele>156.0</ele>
        <time>2008-07-05T19:34:48Z</time>
      </trkpt>
      <trkpt lat="41.277843" lon="1.838188">
        <ele>157.0</ele>
        <time>2008-07-05T19:34:50Z</time>
      </trkpt>
      <trkpt lat="41.277726" lon="1.838221">
        <ele>158.0</ele>
        <time>2008-07-05T19:34:52Z</time>
      </trkpt>
      <trkpt lat="41.277593" lon="1.838254">
        <ele>159.0</ele>
        <time>2008-07-05T19:34:54Z</time>
      </trkpt>
      <trkpt lat="41.277493" lon="1.838338">
        <ele>159.0</ele>
        <time>2008-07-05T19:34:56Z</time>
      </trkpt>
      <trkpt lat="41.277376" lon="1.838404">
        <ele>160.0</ele>
        <time>2008-07-05T19:34:58Z</time>
      </trkpt>
      <trkpt lat="41.277309" lon="1.838438">
        <ele>160.0</ele>
        <time>2008-07-05T19:34:59Z</time>
      </trkpt>
      <trkpt lat="41.277259" lon="1.838488">
        <ele>160.0</ele>
        <time>2008-07-05T19:35:00Z</time>
      </trkpt>
      <trkpt lat="41.277159" lon="1.838554">
        <ele>161.0</ele>
        <time>2008-07-05T19:35:02Z</time>
      </trkpt>
      <trkpt lat="41.277043" lon="1.838621">
        <ele>162.0</ele>
        <time>2008-07-05T19:35:04Z</time>
      </trkpt>
      <trkpt lat="41.276943" lon="1.838688">
        <ele>162.0</ele>
        <time>2008-07-05T19:35:06Z</time>
      </trkpt>
      <trkpt lat="41.276826" lon="1.838771">
        <ele>164.0</ele>
        <time>2008-07-05T19:35:08Z</time>
      </trkpt>
      <trkpt lat="41.276726" lon="1.838838">
        <ele>164.0</ele>
        <time>2008-07-05T19:35:10Z</time>
      </trkpt>
      <trkpt lat="41.276626" lon="1.838838">
        <ele>164.0</ele>
        <time>2008-07-05T19:35:12Z</time>
      </trkpt>
      <trkpt lat="41.276543" lon="1.838754">
        <ele>164.0</ele>
        <time>2008-07-05T19:35:14Z</time>
      </trkpt>
      <trkpt lat="41.276526" lon="1.838704">
        <ele>164.0</ele>
        <time>2008-07-05T19:35:15Z</time>
      </trkpt>
      <trkpt lat="41.276509" lon="1.838621">
        <ele>165.0</ele>
        <time>2008-07-05T19:35:16Z</time>
      </trkpt>
      <trkpt lat="41.276526" lon="1.838488">
        <ele>166.0</ele>
        <time>2008-07-05T19:35:18Z</time>
      </trkpt>
      <trkpt lat="41.276576" lon="1.838371">
        <ele>165.0</ele>
        <time>2008-07-05T19:35:20Z</time>
      </trkpt>
      <trkpt lat="41.276659" lon="1.838271">
        <ele>167.0</ele>
        <time>2008-07-05T19:35:22Z</time>
      </trkpt>
      <trkpt lat="41.276726" lon="1.838171">
        <ele>168.0</ele>
        <time>2008-07-05T19:35:24Z</time>
      </trkpt>
      <trkpt lat="41.276793" lon="1.838088">
        <ele>168.0</ele>
        <time>2008-07-05T19:35:26Z</time>
      </trkpt>
      <trkpt lat="41.276843" lon="1.838004">
        <ele>169.0</ele>
        <time>2008-07-05T19:35:28Z</time>
      </trkpt>
      <trkpt lat="41.276926" lon="1.837888">
        <ele>169.0</ele>
        <time>2008-07-05T19:35:30Z</time>
      </trkpt>
      <trkpt lat="41.277009" lon="1.837788">
        <ele>170.0</ele>
        <time>2008-07-05T19:35:32Z</time>
      </trkpt>
      <trkpt lat="41.277076" lon="1.837688">
        <ele>170.0</ele>
        <time>2008-07-05T19:35:34Z</time>
      </trkpt>
      <trkpt lat="41.277159" lon="1.837571">
        <ele>170.0</ele>
        <time>2008-07-05T19:35:36Z</time>
      </trkpt>
      <trkpt lat="41.277226" lon="1.837454">
        <ele>171.0</ele>
        <time>2008-07-05T19:35:38Z</time>
      </trkpt>
      <trkpt lat="41.277293" lon="1.837338">
        <ele>171.0</ele>
        <time>2008-07-05T19:35:40Z</time>
      </trkpt>
      <trkpt lat="41.277326" lon="1.837204">
        <ele>172.0</ele>
        <time>2008-07-05T19:35:42Z</time>
      </trkpt>
      <trkpt lat="41.277309" lon="1.837054">
        <ele>173.0</ele>
        <time>2008-07-05T19:35:44Z</time>
      </trkpt>
      <trkpt lat="41.277259" lon="1.836921">
        <ele>174.0</ele>
        <time>2008-07-05T19:35:46Z</time>
      </trkpt>
      <trkpt lat="41.277209" lon="1.836788">
        <ele>176.0</ele>
        <time>2008-07-05T19:35:48Z</time>
      </trkpt>
      <trkpt lat="41.277126" lon="1.836671">
        <ele>177.0</ele>
        <time>2008-07-05T19:35:50Z</time>
      </trkpt>
      <trkpt lat="41.277059" lon="1.836538">
        <ele>178.0</ele>
        <time>2008-07-05T19:35:52Z</time>
      </trkpt>
      <trkpt lat="41.276976" lon="1.836454">
        <ele>179.0</ele>
        <time>2008-07-05T19:35:54Z</time>
      </trkpt>
      <trkpt lat="41.276859" lon="1.836454">
        <ele>180.0</ele>
        <time>2008-07-05T19:35:56Z</time>
      </trkpt>
      <trkpt lat="41.276759" lon="1.836554">
        <ele>182.0</ele>
        <time>2008-07-05T19:35:58Z</time>
      </trkpt>
      <trkpt lat="41.276676" lon="1.836671">
        <ele>184.0</ele>
        <time>2008-07-05T19:36:00Z</time>
      </trkpt>
      <trkpt lat="41.276593" lon="1.836788">
        <ele>184.0</ele>
        <time>2008-07-05T19:36:02Z</time>
      </trkpt>
      <trkpt lat="41.276509" lon="1.836921">
        <ele>185.0</ele>
        <time>2008-07-05T19:36:04Z</time>
      </trkpt>
      <trkpt lat="41.276426" lon="1.837054">
        <ele>185.0</ele>
        <time>2008-07-05T19:36:06Z</time>
      </trkpt>
      <trkpt lat="41.276326" lon="1.837188">
        <ele>185.0</ele>
        <time>2008-07-05T19:36:08Z</time>
      </trkpt>
      <trkpt lat="41.276226" lon="1.837321">
        <ele>185.0</ele>
        <time>2008-07-05T19:36:10Z</time>
      </trkpt>
      <trkpt lat="41.276109" lon="1.837438">
        <ele>186.0</ele>
        <time>2008-07-05T19:36:12Z</time>
      </trkpt>
      <trkpt lat="41.276026" lon="1.837571">
        <ele>187.0</ele>
        <time>2008-07-05T19:36:14Z</time>
      </trkpt>
      <trkpt lat="41.275943" lon="1.837688">
        <ele>189.0</ele>
        <time>2008-07-05T19:36:16Z</time>
      </trkpt>
      <trkpt lat="41.275859" lon="1.837771">
        <ele>189.0</ele>
        <time>2008-07-05T19:36:18Z</time>
      </trkpt>
      <trkpt lat="41.275759" lon="1.837854">
        <ele>190.0</ele>
        <time>2008-07-05T19:36:20Z</time>
      </trkpt>
      <trkpt lat="41.275676" lon="1.837938">
        <ele>192.0</ele>
        <time>2008-07-05T19:36:22Z</time>
      </trkpt>
      <trkpt lat="41.275609" lon="1.838038">
        <ele>193.0</ele>
        <time>2008-07-05T19:36:24Z</time>
      </trkpt>
      <trkpt lat="41.275559" lon="1.838171">
        <ele>195.0</ele>
        <time>2008-07-05T19:36:26Z</time>
      </trkpt>
      <trkpt lat="41.275543" lon="1.838304">
        <ele>196.0</ele>
        <time>2008-07-05T19:36:28Z</time>
      </trkpt>
      <trkpt lat="41.275493" lon="1.838438">
        <ele>198.0</ele>
        <time>2008-07-05T19:36:30Z</time>
      </trkpt>
      <trkpt lat="41.275459" lon="1.838488">
        <ele>199.0</ele>
        <time>2008-07-05T19:36:31Z</time>
      </trkpt>
      <trkpt lat="41.275426" lon="1.838538">
        <ele>200.0</ele>
        <time>2008-07-05T19:36:32Z</time>
      </trkpt>
      <trkpt lat="41.275343" lon="1.838604">
        <ele>201.0</ele>
        <time>2008-07-05T19:36:34Z</time>
      </trkpt>
      <trkpt lat="41.275260" lon="1.838688">
        <ele>200.0</ele>
        <time>2008-07-05T19:36:36Z</time>
      </trkpt>
      <trkpt lat="41.275176" lon="1.838804">
        <ele>200.0</ele>
        <time>2008-07-05T19:36:38Z</time>
      </trkpt>
      <trkpt lat="41.275093" lon="1.838904">
        <ele>200.0</ele>
        <time>2008-07-05T19:36:40Z</time>
      </trkpt>
      <trkpt lat="41.274993" lon="1.839004">
        <ele>202.0</ele>
        <time>2008-07-05T19:36:42Z</time>
      </trkpt>
      <trkpt lat="41.274926" lon="1.839121">
        <ele>203.0</ele>
        <time>2008-07-05T19:36:44Z</time>
      </trkpt>
      <trkpt lat="41.274843" lon="1.839221">
        <ele>205.0</ele>
        <time>2008-07-05T19:36:46Z</time>
      </trkpt>
      <trkpt lat="41.274760" lon="1.839338">
        <ele>206.0</ele>
        <time>2008-07-05T19:36:48Z</time>
      </trkpt>
      <trkpt lat="41.274676" lon="1.839471">
        <ele>206.0</ele>
        <time>2008-07-05T19:36:50Z</time>
      </trkpt>
      <trkpt lat="41.274593" lon="1.839588">
        <ele>206.0</ele>
        <time>2008-07-05T19:36:52Z</time>
      </trkpt>
      <trkpt lat="41.274510" lon="1.839704">
        <ele>207.0</ele>
        <time>2008-07-05T19:36:54Z</time>
      </trkpt>
      <trkpt lat="41.274426" lon="1.839821">
        <ele>207.0</ele>
        <time>2008-07-05T19:36:56Z</time>
      </trkpt>
      <trkpt lat="41.274326" lon="1.839954">
        <ele>208.0</ele>
        <time>2008-07-05T19:36:58Z</time>
      </trkpt>
      <trkpt lat="41.274293" lon="1.840021">
        <ele>208.0</ele>
        <time>2008-07-05T19:36:59Z</time>
      </trkpt>
      <trkpt lat="41.274243" lon="1.840088">
        <ele>208.0</ele>
        <time>2008-07-05T19:37:00Z</time>
      </trkpt>
      <trkpt lat="41.274160" lon="1.840204">
        <ele>208.0</ele>
        <time>2008-07-05T19:37:02Z</time>
      </trkpt>
      <trkpt lat="41.274076" lon="1.840354">
        <ele>209.0</ele>
        <time>2008-07-05T19:37:04Z</time>
      </trkpt>
      <trkpt lat="41.273976" lon="1.840471">
        <ele>209.0</ele>
        <time>2008-07-05T19:37:06Z</time>
      </trkpt>
      <trkpt lat="41.273893" lon="1.840588">
        <ele>210.0</ele>
        <time>2008-07-05T19:37:08Z</time>
      </trkpt>
      <trkpt lat="41.273793" lon="1.840671">
        <ele>212.0</ele>
        <time>2008-07-05T19:37:10Z</time>
      </trkpt>
      <trkpt lat="41.273710" lon="1.840754">
        <ele>213.0</ele>
        <time>2008-07-05T19:37:12Z</time>
      </trkpt>
      <trkpt lat="41.273660" lon="1.840804">
        <ele>215.0</ele>
        <time>2008-07-05T19:37:14Z</time>
      </trkpt>
      <trkpt lat="41.273610" lon="1.840854">
        <ele>217.0</ele>
        <time>2008-07-05T19:37:16Z</time>
      </trkpt>
      <trkpt lat="41.273526" lon="1.840921">
        <ele>219.0</ele>
        <time>2008-07-05T19:37:18Z</time>
      </trkpt>
      <trkpt lat="41.273460" lon="1.840971">
        <ele>221.0</ele>
        <time>2008-07-05T19:37:20Z</time>
      </trkpt>
      <trkpt lat="41.273393" lon="1.841021">
        <ele>223.0</ele>
        <time>2008-07-05T19:37:22Z</time>
      </trkpt>
      <trkpt lat="41.273326" lon="1.841088">
        <ele>226.0</ele>
        <time>2008-07-05T19:37:24Z</time>
      </trkpt>
      <trkpt lat="41.273260" lon="1.841154">
        <ele>228.0</ele>
        <time>2008-07-05T19:37:26Z</time>
      </trkpt>
      <trkpt lat="41.273176" lon="1.841238">
        <ele>230.0</ele>
        <time>2008-07-05T19:37:28Z</time>
      </trkpt>
      <trkpt lat="41.273110" lon="1.841338">
        <ele>231.0</ele>
        <time>2008-07-05T19:37:30Z</time>
      </trkpt>
      <trkpt lat="41.273043" lon="1.841454">
        <ele>230.0</ele>
        <time>2008-07-05T19:37:32Z</time>
      </trkpt>
      <trkpt lat="41.272993" lon="1.841571">
        <ele>231.0</ele>
        <time>2008-07-05T19:37:34Z</time>
      </trkpt>
      <trkpt lat="41.272926" lon="1.841671">
        <ele>232.0</ele>
        <time>2008-07-05T19:37:36Z</time>
      </trkpt>
      <trkpt lat="41.272876" lon="1.841771">
        <ele>234.0</ele>
        <time>2008-07-05T19:37:38Z</time>
      </trkpt>
      <trkpt lat="41.272810" lon="1.841871">
        <ele>235.0</ele>
        <time>2008-07-05T19:37:40Z</time>
      </trkpt>
      <trkpt lat="41.272760" lon="1.841954">
        <ele>237.0</ele>
        <time>2008-07-05T19:37:42Z</time>
      </trkpt>
      <trkpt lat="41.272676" lon="1.842021">
        <ele>238.0</ele>
        <time>2008-07-05T19:37:44Z</time>
      </trkpt>
      <trkpt lat="41.272593" lon="1.842071">
        <ele>238.0</ele>
        <time>2008-07-05T19:37:46Z</time>
      </trkpt>
      <trkpt lat="41.272476" lon="1.842121">
        <ele>239.0</ele>
        <time>2008-07-05T19:37:48Z</time>
      </trkpt>
      <trkpt lat="41.272376" lon="1.842204">
        <ele>240.0</ele>
        <time>2008-07-05T19:37:50Z</time>
      </trkpt>
      <trkpt lat="41.272260" lon="1.842288">
        <ele>241.0</ele>
        <time>2008-07-05T19:37:52Z</time>
      </trkpt>
      <trkpt lat="41.272143" lon="1.842354">
        <ele>241.0</ele>
        <time>2008-07-05T19:37:54Z</time>
      </trkpt>
      <trkpt lat="41.272026" lon="1.842438">
        <ele>242.0</ele>
        <time>2008-07-05T19:37:56Z</time>
      </trkpt>
      <trkpt lat="41.271910" lon="1.842504">
        <ele>243.0</ele>
        <time>2008-07-05T19:37:58Z</time>
      </trkpt>
      <trkpt lat="41.271810" lon="1.842571">
        <ele>244.0</ele>
        <time>2008-07-05T19:38:00Z</time>
      </trkpt>
      <trkpt lat="41.271693" lon="1.842654">
        <ele>245.0</ele>
        <time>2008-07-05T19:38:02Z</time>
      </trkpt>
      <trkpt lat="41.271593" lon="1.842721">
        <ele>245.0</ele>
        <time>2008-07-05T19:38:04Z</time>
      </trkpt>
      <trkpt lat="41.271476" lon="1.842771">
        <ele>245.0</ele>
        <time>2008-07-05T19:38:06Z</time>
      </trkpt>
      <trkpt lat="41.271360" lon="1.842788">
        <ele>245.0</ele>
        <time>2008-07-05T19:38:08Z</time>
      </trkpt>
      <trkpt lat="41.271226" lon="1.842788">
        <ele>246.0</ele>
        <time>2008-07-05T19:38:10Z</time>
      </trkpt>
      <trkpt lat="41.271076" lon="1.842788">
        <ele>247.0</ele>
        <time>2008-07-05T19:38:12Z</time>
      </trkpt>
      <trkpt lat="41.270943" lon="1.842788">
        <ele>249.0</ele>
        <time>2008-07-05T19:38:14Z</time>
      </trkpt>
      <trkpt lat="41.270810" lon="1.842788">
        <ele>249.0</ele>
        <time>2008-07-05T19:38:16Z</time>
      </trkpt>
      <trkpt lat="41.270693" lon="1.842771">
        <ele>250.0</ele>
        <time>2008-07-05T19:38:18Z</time>
      </trkpt>
      <trkpt lat="41.270593" lon="1.842738">
        <ele>250.0</ele>
        <time>2008-07-05T19:38:20Z</time>
      </trkpt>
      <trkpt lat="41.270510" lon="1.842721">
        <ele>250.0</ele>
        <time>2008-07-05T19:38:22Z</time>
      </trkpt>
      <trkpt lat="41.270493" lon="1.842721">
        <ele>251.0</ele>
        <time>2008-07-05T19:38:24Z</time>
      </trkpt>
      <trkpt lat="41.270510" lon="1.842721">
        <ele>252.0</ele>
        <time>2008-07-05T19:38:26Z</time>
      </trkpt>
      <trkpt lat="41.270510" lon="1.842721">
        <ele>252.0</ele>
        <time>2008-07-05T19:38:28Z</time>
      </trkpt>
      <trkpt lat="41.270526" lon="1.842738">
        <ele>252.0</ele>
        <time>2008-07-05T19:38:30Z</time>
      </trkpt>
      <trkpt lat="41.270543" lon="1.842738">
        <ele>252.0</ele>
        <time>2008-07-05T19:38:31Z</time>
      </trkpt>
      <trkpt lat="41.270543" lon="1.842738">
        <ele>252.0</ele>
        <time>2008-07-05T19:38:32Z</time>
      </trkpt>
      <trkpt lat="41.270560" lon="1.842738">
        <ele>251.0</ele>
        <time>2008-07-05T19:38:34Z</time>
      </trkpt>
      <trkpt lat="41.270576" lon="1.842738">
        <ele>250.0</ele>
        <time>2008-07-05T19:38:36Z</time>
      </trkpt>
      <trkpt lat="41.270593" lon="1.842754">
        <ele>250.0</ele>
        <time>2008-07-05T19:38:38Z</time>
      </trkpt>
      <trkpt lat="41.270610" lon="1.842754">
        <ele>250.0</ele>
        <time>2008-07-05T19:38:40Z</time>
      </trkpt>
      <trkpt lat="41.270610" lon="1.842754">
        <ele>249.0</ele>
        <time>2008-07-05T19:38:42Z</time>
      </trkpt>
      <trkpt lat="41.270593" lon="1.842754">
        <ele>249.0</ele>
        <time>2008-07-05T19:38:44Z</time>
      </trkpt>
      <trkpt lat="41.270560" lon="1.842738">
        <ele>250.0</ele>
        <time>2008-07-05T19:38:46Z</time>
      </trkpt>
      <trkpt lat="41.270560" lon="1.842738">
        <ele>249.0</ele>
        <time>2008-07-05T19:38:48Z</time>
      </trkpt>
      <trkpt lat="41.270560" lon="1.842738">
        <ele>248.0</ele>
        <time>2008-07-05T19:38:50Z</time>
      </trkpt>
      <trkpt lat="41.270560" lon="1.842738">
        <ele>248.0</ele>
        <time>2008-07-05T19:38:52Z</time>
      </trkpt>
      <trkpt lat="41.270560" lon="1.842721">
        <ele>250.0</ele>
        <time>2008-07-05T19:38:54Z</time>
      </trkpt>
      <trkpt lat="41.270543" lon="1.842721">
        <ele>251.0</ele>
        <time>2008-07-05T19:38:56Z</time>
      </trkpt>
      <trkpt lat="41.270543" lon="1.842721">
        <ele>250.0</ele>
        <time>2008-07-05T19:38:58Z</time>
      </trkpt>
      <trkpt lat="41.270543" lon="1.842721">
        <ele>249.0</ele>
        <time>2008-07-05T19:38:59Z</time>
      </trkpt>
      <trkpt lat="41.270543" lon="1.842721">
        <ele>249.0</ele>
        <time>2008-07-05T19:39:00Z</time>
      </trkpt>
      <trkpt lat="41.270543" lon="1.842738">
        <ele>248.0</ele>
        <time>2008-07-05T19:39:02Z</time>
      </trkpt>
      <trkpt lat="41.270543" lon="1.842738">
        <ele>246.0</ele>
        <time>2008-07-05T19:39:04Z</time>
      </trkpt>
      <trkpt lat="41.270543" lon="1.842738">
        <ele>245.0</ele>
        <time>2008-07-05T19:39:06Z</time>
      </trkpt>
      <trkpt lat="41.270543" lon="1.842738">
        <ele>246.0</ele>
        <time>2008-07-05T19:39:08Z</time>
      </trkpt>
      <trkpt lat="41.270543" lon="1.842754">
        <ele>245.0</ele>
        <time>2008-07-05T19:39:10Z</time>
      </trkpt>
      <trkpt lat="41.270543" lon="1.842754">
        <ele>243.0</ele>
        <time>2008-07-05T19:39:12Z</time>
      </trkpt>
      <trkpt lat="41.270543" lon="1.842754">
        <ele>243.0</ele>
        <time>2008-07-05T19:39:14Z</time>
      </trkpt>
      <trkpt lat="41.270543" lon="1.842754">
        <ele>241.0</ele>
        <time>2008-07-05T19:39:16Z</time>
      </trkpt>
      <trkpt lat="41.270560" lon="1.842771">
        <ele>241.0</ele>
        <time>2008-07-05T19:39:18Z</time>
      </trkpt>
      <trkpt lat="41.270543" lon="1.842754">
        <ele>242.0</ele>
        <time>2008-07-05T19:39:20Z</time>
      </trkpt>
      <trkpt lat="41.270543" lon="1.842754">
        <ele>241.0</ele>
        <time>2008-07-05T19:39:22Z</time>
      </trkpt>
      <trkpt lat="41.270543" lon="1.842771">
        <ele>242.0</ele>
        <time>2008-07-05T19:39:24Z</time>
      </trkpt>
      <trkpt lat="41.270560" lon="1.842771">
        <ele>242.0</ele>
        <time>2008-07-05T19:39:26Z</time>
      </trkpt>
      <trkpt lat="41.270560" lon="1.842771">
        <ele>244.0</ele>
        <time>2008-07-05T19:39:28Z</time>
      </trkpt>
      <trkpt lat="41.270560" lon="1.842788">
        <ele>244.0</ele>
        <time>2008-07-05T19:39:30Z</time>
      </trkpt>
      <trkpt lat="41.270576" lon="1.842771">
        <ele>244.0</ele>
        <time>2008-07-05T19:39:32Z</time>
      </trkpt>
      <trkpt lat="41.270576" lon="1.842771">
        <ele>247.0</ele>
        <time>2008-07-05T19:39:34Z</time>
      </trkpt>
      <trkpt lat="41.270576" lon="1.842771">
        <ele>248.0</ele>
        <time>2008-07-05T19:39:36Z</time>
      </trkpt>
      <trkpt lat="41.270576" lon="1.842754">
        <ele>248.0</ele>
        <time>2008-07-05T19:39:38Z</time>
      </trkpt>
      <trkpt lat="41.270560" lon="1.842738">
        <ele>250.0</ele>
        <time>2008-07-05T19:39:40Z</time>
      </trkpt>
      <trkpt lat="41.270560" lon="1.842754">
        <ele>249.0</ele>
        <time>2008-07-05T19:39:42Z</time>
      </trkpt>
      <trkpt lat="41.270560" lon="1.842754">
        <ele>250.0</ele>
        <time>2008-07-05T19:39:44Z</time>
      </trkpt>
      <trkpt lat="41.270560" lon="1.842771">
        <ele>248.0</ele>
        <time>2008-07-05T19:39:46Z</time>
      </trkpt>
      <trkpt lat="41.270560" lon="1.842788">
        <ele>248.0</ele>
        <time>2008-07-05T19:39:48Z</time>
      </trkpt>
      <trkpt lat="41.270576" lon="1.842771">
        <ele>249.0</ele>
        <time>2008-07-05T19:39:50Z</time>
      </trkpt>
      <trkpt lat="41.270576" lon="1.842771">
        <ele>247.0</ele>
        <time>2008-07-05T19:39:52Z</time>
      </trkpt>
      <trkpt lat="41.270560" lon="1.842771">
        <ele>247.0</ele>
        <time>2008-07-05T19:39:54Z</time>
      </trkpt>
      <trkpt lat="41.270560" lon="1.842788">
        <ele>242.0</ele>
        <time>2008-07-05T19:39:56Z</time>
      </trkpt>
      <trkpt lat="41.270560" lon="1.842804">
        <ele>238.0</ele>
        <time>2008-07-05T19:39:58Z</time>
      </trkpt>
      <trkpt lat="41.270560" lon="1.842804">
        <ele>236.0</ele>
        <time>2008-07-05T19:40:00Z</time>
      </trkpt>
      <trkpt lat="41.270560" lon="1.842804">
        <ele>234.0</ele>
        <time>2008-07-05T19:40:02Z</time>
      </trkpt>
      <trkpt lat="41.270560" lon="1.842804">
        <ele>232.0</ele>
        <time>2008-07-05T19:40:04Z</time>
      </trkpt>
      <trkpt lat="41.270560" lon="1.842788">
        <ele>232.0</ele>
        <time>2008-07-05T19:40:06Z</time>
      </trkpt>
      <trkpt lat="41.270560" lon="1.842771">
        <ele>236.0</ele>
        <time>2008-07-05T19:40:08Z</time>
      </trkpt>
      <trkpt lat="41.270560" lon="1.842754">
        <ele>241.0</ele>
        <time>2008-07-05T19:40:10Z</time>
      </trkpt>
      <trkpt lat="41.270560" lon="1.842754">
        <ele>244.0</ele>
        <time>2008-07-05T19:40:12Z</time>
      </trkpt>
      <trkpt lat="41.270576" lon="1.842771">
        <ele>244.0</ele>
        <time>2008-07-05T19:40:14Z</time>
      </trkpt>
      <trkpt lat="41.270576" lon="1.842771">
        <ele>246.0</ele>
        <time>2008-07-05T19:40:16Z</time>
      </trkpt>
      <trkpt lat="41.270560" lon="1.842754">
        <ele>251.0</ele>
        <time>2008-07-05T19:40:18Z</time>
      </trkpt>
      <trkpt lat="41.270560" lon="1.842738">
        <ele>255.0</ele>
        <time>2008-07-05T19:40:20Z</time>
      </trkpt>
      <trkpt lat="41.270560" lon="1.842738">
        <ele>256.0</ele>
        <time>2008-07-05T19:40:22Z</time>
      </trkpt>
      <trkpt lat="41.270560" lon="1.842738">
        <ele>255.0</ele>
        <time>2008-07-05T19:40:24Z</time>
      </trkpt>
      <trkpt lat="41.270543" lon="1.842721">
        <ele>255.0</ele>
        <time>2008-07-05T19:40:26Z</time>
      </trkpt>
      <trkpt lat="41.270543" lon="1.842721">
        <ele>255.0</ele>
        <time>2008-07-05T19:40:28Z</time>
      </trkpt>
      <trkpt lat="41.270543" lon="1.842721">
        <ele>256.0</ele>
        <time>2008-07-05T19:40:30Z</time>
      </trkpt>
      <trkpt lat="41.270543" lon="1.842721">
        <ele>257.0</ele>
        <time>2008-07-05T19:40:32Z</time>
      </trkpt>
      <trkpt lat="41.270543" lon="1.842704">
        <ele>259.0</ele>
        <time>2008-07-05T19:40:34Z</time>
      </trkpt>
      <trkpt lat="41.270543" lon="1.842721">
        <ele>258.0</ele>
        <time>2008-07-05T19:40:36Z</time>
      </trkpt>
      <trkpt lat="41.270543" lon="1.842721">
        <ele>255.0</ele>
        <time>2008-07-05T19:40:38Z</time>
      </trkpt>
      <trkpt lat="41.270526" lon="1.842721">
        <ele>252.0</ele>
        <time>2008-07-05T19:40:40Z</time>
      </trkpt>
      <trkpt lat="41.270543" lon="1.842738">
        <ele>251.0</ele>
        <time>2008-07-05T19:40:42Z</time>
      </trkpt>
      <trkpt lat="41.270543" lon="1.842738">
        <ele>248.0</ele>
        <time>2008-07-05T19:40:44Z</time>
      </trkpt>
      <trkpt lat="41.270543" lon="1.842738">
        <ele>248.0</ele>
        <time>2008-07-05T19:40:46Z</time>
      </trkpt>
      <trkpt lat="41.270543" lon="1.842738">
        <ele>246.0</ele>
        <time>2008-07-05T19:40:48Z</time>
      </trkpt>
      <trkpt lat="41.270543" lon="1.842738">
        <ele>247.0</ele>
        <time>2008-07-05T19:40:50Z</time>
      </trkpt>
      <trkpt lat="41.270543" lon="1.842738">
        <ele>249.0</ele>
        <time>2008-07-05T19:40:52Z</time>
      </trkpt>
      <trkpt lat="41.270510" lon="1.842721">
        <ele>250.0</ele>
        <time>2008-07-05T19:40:54Z</time>
      </trkpt>
      <trkpt lat="41.270443" lon="1.842704">
        <ele>249.0</ele>
        <time>2008-07-05T19:40:56Z</time>
      </trkpt>
      <trkpt lat="41.270376" lon="1.842688">
        <ele>248.0</ele>
        <time>2008-07-05T19:40:58Z</time>
      </trkpt>
      <trkpt lat="41.270326" lon="1.842688">
        <ele>248.0</ele>
        <time>2008-07-05T19:40:59Z</time>
      </trkpt>
      <trkpt lat="41.270276" lon="1.842671">
        <ele>248.0</ele>
        <time>2008-07-05T19:41:00Z</time>
      </trkpt>
      <trkpt lat="41.270176" lon="1.842654">
        <ele>249.0</ele>
        <time>2008-07-05T19:41:02Z</time>
      </trkpt>
      <trkpt lat="41.270125" lon="1.842659">
        <ele>250.0</ele>
        <time>2008-07-05T19:41:06Z</time>
      </trkpt>
      <trkpt lat="41.270126" lon="1.842654">
        <ele>250.0</ele>
        <time>2008-07-05T19:41:08Z</time>
      </trkpt>
      <trkpt lat="41.270126" lon="1.842654">
        <ele>242.0</ele>
        <time>2008-07-05T19:41:16Z</time>
      </trkpt>
      <trkpt lat="41.270126" lon="1.842638">
        <ele>241.0</ele>
        <time>2008-07-05T19:41:18Z</time>
      </trkpt>
      <trkpt lat="41.270126" lon="1.842638">
        <ele>243.0</ele>
        <time>2008-07-05T19:41:24Z</time>
      </trkpt>
      <trkpt lat="41.270126" lon="1.842654">
        <ele>243.0</ele>
        <time>2008-07-05T19:41:26Z</time>
      </trkpt>
      <trkpt lat="41.270126" lon="1.842654">
        <ele>244.0</ele>
        <time>2008-07-05T19:41:28Z</time>
      </trkpt>
      <trkpt lat="41.270126" lon="1.842654">
        <ele>243.0</ele>
        <time>2008-07-05T19:41:30Z</time>
      </trkpt>
      <trkpt lat="41.270126" lon="1.842671">
        <ele>243.0</ele>
        <time>2008-07-05T19:41:32Z</time>
      </trkpt>
      <trkpt lat="41.270126" lon="1.842671">
        <ele>244.0</ele>
        <time>2008-07-05T19:41:34Z</time>
      </trkpt>
      <trkpt lat="41.270126" lon="1.842671">
        <ele>243.0</ele>
        <time>2008-07-05T19:41:36Z</time>
      </trkpt>
      <trkpt lat="41.270143" lon="1.842658">
        <ele>243.0</ele>
        <time>2008-07-05T19:41:38Z</time>
      </trkpt>
      <trkpt lat="41.270143" lon="1.842654">
        <ele>243.0</ele>
        <time>2008-07-05T19:41:40Z</time>
      </trkpt>
      <trkpt lat="41.270110" lon="1.842638">
        <ele>244.0</ele>
        <time>2008-07-05T19:41:42Z</time>
      </trkpt>
      <trkpt lat="41.270043" lon="1.842621">
        <ele>245.0</ele>
        <time>2008-07-05T19:41:44Z</time>
      </trkpt>
      <trkpt lat="41.269943" lon="1.842604">
        <ele>246.0</ele>
        <time>2008-07-05T19:41:46Z</time>
      </trkpt>
      <trkpt lat="41.269843" lon="1.842604">
        <ele>248.0</ele>
        <time>2008-07-05T19:41:48Z</time>
      </trkpt>
      <trkpt lat="41.269743" lon="1.842604">
        <ele>248.0</ele>
        <time>2008-07-05T19:41:50Z</time>
      </trkpt>
      <trkpt lat="41.269643" lon="1.842621">
        <ele>248.0</ele>
        <time>2008-07-05T19:41:52Z</time>
      </trkpt>
      <trkpt lat="41.269543" lon="1.842638">
        <ele>248.0</ele>
        <time>2008-07-05T19:41:54Z</time>
      </trkpt>
      <trkpt lat="41.269443" lon="1.842688">
        <ele>251.0</ele>
        <time>2008-07-05T19:41:56Z</time>
      </trkpt>
      <trkpt lat="41.269343" lon="1.842738">
        <ele>252.0</ele>
        <time>2008-07-05T19:41:58Z</time>
      </trkpt>
      <trkpt lat="41.269243" lon="1.842788">
        <ele>252.0</ele>
        <time>2008-07-05T19:42:00Z</time>
      </trkpt>
      <trkpt lat="41.269193" lon="1.842804">
        <ele>252.0</ele>
        <time>2008-07-05T19:42:01Z</time>
      </trkpt>
      <trkpt lat="41.269126" lon="1.842804">
        <ele>252.0</ele>
        <time>2008-07-05T19:42:03Z</time>
      </trkpt>
      <trkpt lat="41.269076" lon="1.842788">
        <ele>253.0</ele>
        <time>2008-07-05T19:42:05Z</time>
      </trkpt>
      <trkpt lat="41.269043" lon="1.842738">
        <ele>252.0</ele>
        <time>2008-07-05T19:42:07Z</time>
      </trkpt>
      <trkpt lat="41.268993" lon="1.842638">
        <ele>253.0</ele>
        <time>2008-07-05T19:42:09Z</time>
      </trkpt>
      <trkpt lat="41.268976" lon="1.842521">
        <ele>254.0</ele>
        <time>2008-07-05T19:42:11Z</time>
      </trkpt>
      <trkpt lat="41.268960" lon="1.842371">
        <ele>254.0</ele>
        <time>2008-07-05T19:42:13Z</time>
      </trkpt>
      <trkpt lat="41.268976" lon="1.842204">
        <ele>253.0</ele>
        <time>2008-07-05T19:42:15Z</time>
      </trkpt>
      <trkpt lat="41.268976" lon="1.842054">
        <ele>252.0</ele>
        <time>2008-07-05T19:42:17Z</time>
      </trkpt>
      <trkpt lat="41.268993" lon="1.841904">
        <ele>251.0</ele>
        <time>2008-07-05T19:42:19Z</time>
      </trkpt>
      <trkpt lat="41.269010" lon="1.841754">
        <ele>250.0</ele>
        <time>2008-07-05T19:42:21Z</time>
      </trkpt>
      <trkpt lat="41.269010" lon="1.841604">
        <ele>249.0</ele>
        <time>2008-07-05T19:42:23Z</time>
      </trkpt>
      <trkpt lat="41.268960" lon="1.841488">
        <ele>248.0</ele>
        <time>2008-07-05T19:42:25Z</time>
      </trkpt>
      <trkpt lat="41.268876" lon="1.841388">
        <ele>248.0</ele>
        <time>2008-07-05T19:42:27Z</time>
      </trkpt>
      <trkpt lat="41.268776" lon="1.841321">
        <ele>247.0</ele>
        <time>2008-07-05T19:42:29Z</time>
      </trkpt>
      <trkpt lat="41.268660" lon="1.841238">
        <ele>246.0</ele>
        <time>2008-07-05T19:42:31Z</time>
      </trkpt>
      <trkpt lat="41.268543" lon="1.841138">
        <ele>246.0</ele>
        <time>2008-07-05T19:42:33Z</time>
      </trkpt>
      <trkpt lat="41.268426" lon="1.841071">
        <ele>244.0</ele>
        <time>2008-07-05T19:42:35Z</time>
      </trkpt>
      <trkpt lat="41.268293" lon="1.841004">
        <ele>243.0</ele>
        <time>2008-07-05T19:42:37Z</time>
      </trkpt>
      <trkpt lat="41.268160" lon="1.840954">
        <ele>242.0</ele>
        <time>2008-07-05T19:42:39Z</time>
      </trkpt>
      <trkpt lat="41.268026" lon="1.840921">
        <ele>242.0</ele>
        <time>2008-07-05T19:42:41Z</time>
      </trkpt>
      <trkpt lat="41.267876" lon="1.840888">
        <ele>242.0</ele>
        <time>2008-07-05T19:42:43Z</time>
      </trkpt>
      <trkpt lat="41.267743" lon="1.840837">
        <ele>242.0</ele>
        <time>2008-07-05T19:42:45Z</time>
      </trkpt>
      <trkpt lat="41.267626" lon="1.840771">
        <ele>242.0</ele>
        <time>2008-07-05T19:42:47Z</time>
      </trkpt>
      <trkpt lat="41.267526" lon="1.840704">
        <ele>242.0</ele>
        <time>2008-07-05T19:42:49Z</time>
      </trkpt>
      <trkpt lat="41.267426" lon="1.840587">
        <ele>243.0</ele>
        <time>2008-07-05T19:42:51Z</time>
      </trkpt>
      <trkpt lat="41.267360" lon="1.840471">
        <ele>243.0</ele>
        <time>2008-07-05T19:42:53Z</time>
      </trkpt>
      <trkpt lat="41.267293" lon="1.840337">
        <ele>243.0</ele>
        <time>2008-07-05T19:42:55Z</time>
      </trkpt>
      <trkpt lat="41.267210" lon="1.840187">
        <ele>244.0</ele>
        <time>2008-07-05T19:42:57Z</time>
      </trkpt>
      <trkpt lat="41.267126" lon="1.840054">
        <ele>244.0</ele>
        <time>2008-07-05T19:42:59Z</time>
      </trkpt>
      <trkpt lat="41.267043" lon="1.839887">
        <ele>244.0</ele>
        <time>2008-07-05T19:43:01Z</time>
      </trkpt>
      <trkpt lat="41.266993" lon="1.839687">
        <ele>245.0</ele>
        <time>2008-07-05T19:43:03Z</time>
      </trkpt>
      <trkpt lat="41.266960" lon="1.839487">
        <ele>245.0</ele>
        <time>2008-07-05T19:43:05Z</time>
      </trkpt>
      <trkpt lat="41.266943" lon="1.839287">
        <ele>243.0</ele>
        <time>2008-07-05T19:43:07Z</time>
      </trkpt>
      <trkpt lat="41.266943" lon="1.839104">
        <ele>242.0</ele>
        <time>2008-07-05T19:43:09Z</time>
      </trkpt>
      <trkpt lat="41.266926" lon="1.838954">
        <ele>242.0</ele>
        <time>2008-07-05T19:43:11Z</time>
      </trkpt>
      <trkpt lat="41.266860" lon="1.838837">
        <ele>240.0</ele>
        <time>2008-07-05T19:43:13Z</time>
      </trkpt>
      <trkpt lat="41.266760" lon="1.838821">
        <ele>239.0</ele>
        <time>2008-07-05T19:43:15Z</time>
      </trkpt>
      <trkpt lat="41.266660" lon="1.838871">
        <ele>237.0</ele>
        <time>2008-07-05T19:43:17Z</time>
      </trkpt>
      <trkpt lat="41.266543" lon="1.838904">
        <ele>237.0</ele>
        <time>2008-07-05T19:43:19Z</time>
      </trkpt>
      <trkpt lat="41.266426" lon="1.838887">
        <ele>238.0</ele>
        <time>2008-07-05T19:43:21Z</time>
      </trkpt>
      <trkpt lat="41.266343" lon="1.838837">
        <ele>239.0</ele>
        <time>2008-07-05T19:43:23Z</time>
      </trkpt>
      <trkpt lat="41.266260" lon="1.838737">
        <ele>239.0</ele>
        <time>2008-07-05T19:43:25Z</time>
      </trkpt>
      <trkpt lat="41.266193" lon="1.838637">
        <ele>240.0</ele>
        <time>2008-07-05T19:43:27Z</time>
      </trkpt>
      <trkpt lat="41.266126" lon="1.838487">
        <ele>242.0</ele>
        <time>2008-07-05T19:43:29Z</time>
      </trkpt>
      <trkpt lat="41.266060" lon="1.838354">
        <ele>242.0</ele>
        <time>2008-07-05T19:43:31Z</time>
      </trkpt>
      <trkpt lat="41.265976" lon="1.838204">
        <ele>242.0</ele>
        <time>2008-07-05T19:43:33Z</time>
      </trkpt>
      <trkpt lat="41.265893" lon="1.838037">
        <ele>241.0</ele>
        <time>2008-07-05T19:43:35Z</time>
      </trkpt>
      <trkpt lat="41.265810" lon="1.837887">
        <ele>242.0</ele>
        <time>2008-07-05T19:43:37Z</time>
      </trkpt>
      <trkpt lat="41.265726" lon="1.837721">
        <ele>242.0</ele>
        <time>2008-07-05T19:43:39Z</time>
      </trkpt>
      <trkpt lat="41.265643" lon="1.837571">
        <ele>242.0</ele>
        <time>2008-07-05T19:43:41Z</time>
      </trkpt>
      <trkpt lat="41.265593" lon="1.837421">
        <ele>242.0</ele>
        <time>2008-07-05T19:43:43Z</time>
      </trkpt>
      <trkpt lat="41.265543" lon="1.837287">
        <ele>240.0</ele>
        <time>2008-07-05T19:43:45Z</time>
      </trkpt>
      <trkpt lat="41.265526" lon="1.837154">
        <ele>239.0</ele>
        <time>2008-07-05T19:43:47Z</time>
      </trkpt>
      <trkpt lat="41.265493" lon="1.837021">
        <ele>237.0</ele>
        <time>2008-07-05T19:43:49Z</time>
      </trkpt>
      <trkpt lat="41.265460" lon="1.836887">
        <ele>237.0</ele>
        <time>2008-07-05T19:43:51Z</time>
      </trkpt>
      <trkpt lat="41.265393" lon="1.836787">
        <ele>237.0</ele>
        <time>2008-07-05T19:43:53Z</time>
      </trkpt>
      <trkpt lat="41.265326" lon="1.836754">
        <ele>236.0</ele>
        <time>2008-07-05T19:43:55Z</time>
      </trkpt>
      <trkpt lat="41.265276" lon="1.836737">
        <ele>236.0</ele>
        <time>2008-07-05T19:43:57Z</time>
      </trkpt>
      <trkpt lat="41.265193" lon="1.836721">
        <ele>235.0</ele>
        <time>2008-07-05T19:43:59Z</time>
      </trkpt>
      <trkpt lat="41.265110" lon="1.836704">
        <ele>235.0</ele>
        <time>2008-07-05T19:44:01Z</time>
      </trkpt>
      <trkpt lat="41.265026" lon="1.836704">
        <ele>234.0</ele>
        <time>2008-07-05T19:44:03Z</time>
      </trkpt>
      <trkpt lat="41.264943" lon="1.836721">
        <ele>234.0</ele>
        <time>2008-07-05T19:44:05Z</time>
      </trkpt>
      <trkpt lat="41.264843" lon="1.836771">
        <ele>234.0</ele>
        <time>2008-07-05T19:44:07Z</time>
      </trkpt>
      <trkpt lat="41.264760" lon="1.836737">
        <ele>234.0</ele>
        <time>2008-07-05T19:44:09Z</time>
      </trkpt>
      <trkpt lat="41.264676" lon="1.836671">
        <ele>233.0</ele>
        <time>2008-07-05T19:44:11Z</time>
      </trkpt>
      <trkpt lat="41.264593" lon="1.836537">
        <ele>233.0</ele>
        <time>2008-07-05T19:44:13Z</time>
      </trkpt>
      <trkpt lat="41.264526" lon="1.836404">
        <ele>232.0</ele>
        <time>2008-07-05T19:44:15Z</time>
      </trkpt>
      <trkpt lat="41.264460" lon="1.836271">
        <ele>231.0</ele>
        <time>2008-07-05T19:44:17Z</time>
      </trkpt>
      <trkpt lat="41.264376" lon="1.836121">
        <ele>233.0</ele>
        <time>2008-07-05T19:44:19Z</time>
      </trkpt>
      <trkpt lat="41.264310" lon="1.835971">
        <ele>235.0</ele>
        <time>2008-07-05T19:44:21Z</time>
      </trkpt>
      <trkpt lat="41.264243" lon="1.835837">
        <ele>234.0</ele>
        <time>2008-07-05T19:44:23Z</time>
      </trkpt>
      <trkpt lat="41.264176" lon="1.835721">
        <ele>232.0</ele>
        <time>2008-07-05T19:44:25Z</time>
      </trkpt>
      <trkpt lat="41.264110" lon="1.835587">
        <ele>232.0</ele>
        <time>2008-07-05T19:44:27Z</time>
      </trkpt>
      <trkpt lat="41.264026" lon="1.835437">
        <ele>231.0</ele>
        <time>2008-07-05T19:44:29Z</time>
      </trkpt>
      <trkpt lat="41.263943" lon="1.835271">
        <ele>231.0</ele>
        <time>2008-07-05T19:44:31Z</time>
      </trkpt>
      <trkpt lat="41.263876" lon="1.835121">
        <ele>230.0</ele>
        <time>2008-07-05T19:44:33Z</time>
      </trkpt>
      <trkpt lat="41.263876" lon="1.834954">
        <ele>230.0</ele>
        <time>2008-07-05T19:44:35Z</time>
      </trkpt>
      <trkpt lat="41.263910" lon="1.834787">
        <ele>230.0</ele>
        <time>2008-07-05T19:44:37Z</time>
      </trkpt>
      <trkpt lat="41.263993" lon="1.834637">
        <ele>229.0</ele>
        <time>2008-07-05T19:44:39Z</time>
      </trkpt>
      <trkpt lat="41.264076" lon="1.834504">
        <ele>228.0</ele>
        <time>2008-07-05T19:44:41Z</time>
      </trkpt>
      <trkpt lat="41.264143" lon="1.834371">
        <ele>228.0</ele>
        <time>2008-07-05T19:44:43Z</time>
      </trkpt>
      <trkpt lat="41.264226" lon="1.834237">
        <ele>227.0</ele>
        <time>2008-07-05T19:44:45Z</time>
      </trkpt>
      <trkpt lat="41.264293" lon="1.834104">
        <ele>226.0</ele>
        <time>2008-07-05T19:44:47Z</time>
      </trkpt>
      <trkpt lat="41.264360" lon="1.833971">
        <ele>226.0</ele>
        <time>2008-07-05T19:44:49Z</time>
      </trkpt>
      <trkpt lat="41.264410" lon="1.833804">
        <ele>226.0</ele>
        <time>2008-07-05T19:44:51Z</time>
      </trkpt>
      <trkpt lat="41.264393" lon="1.833654">
        <ele>226.0</ele>
        <time>2008-07-05T19:44:53Z</time>
      </trkpt>
      <trkpt lat="41.264326" lon="1.833521">
        <ele>225.0</ele>
        <time>2008-07-05T19:44:55Z</time>
      </trkpt>
      <trkpt lat="41.264226" lon="1.833404">
        <ele>224.0</ele>
        <time>2008-07-05T19:44:57Z</time>
      </trkpt>
      <trkpt lat="41.264093" lon="1.833321">
        <ele>223.0</ele>
        <time>2008-07-05T19:44:59Z</time>
      </trkpt>
      <trkpt lat="41.263960" lon="1.833287">
        <ele>222.0</ele>
        <time>2008-07-05T19:45:01Z</time>
      </trkpt>
      <trkpt lat="41.263810" lon="1.833287">
        <ele>221.0</ele>
        <time>2008-07-05T19:45:03Z</time>
      </trkpt>
      <trkpt lat="41.263676" lon="1.833321">
        <ele>220.0</ele>
        <time>2008-07-05T19:45:05Z</time>
      </trkpt>
      <trkpt lat="41.263543" lon="1.833354">
        <ele>219.0</ele>
        <time>2008-07-05T19:45:07Z</time>
      </trkpt>
      <trkpt lat="41.263426" lon="1.833387">
        <ele>218.0</ele>
        <time>2008-07-05T19:45:09Z</time>
      </trkpt>
      <trkpt lat="41.263293" lon="1.833437">
        <ele>218.0</ele>
        <time>2008-07-05T19:45:11Z</time>
      </trkpt>
      <trkpt lat="41.263160" lon="1.833437">
        <ele>218.0</ele>
        <time>2008-07-05T19:45:13Z</time>
      </trkpt>
      <trkpt lat="41.263043" lon="1.833337">
        <ele>217.0</ele>
        <time>2008-07-05T19:45:15Z</time>
      </trkpt>
      <trkpt lat="41.262910" lon="1.833204">
        <ele>216.0</ele>
        <time>2008-07-05T19:45:17Z</time>
      </trkpt>
      <trkpt lat="41.262793" lon="1.833071">
        <ele>216.0</ele>
        <time>2008-07-05T19:45:19Z</time>
      </trkpt>
      <trkpt lat="41.262743" lon="1.832904">
        <ele>215.0</ele>
        <time>2008-07-05T19:45:21Z</time>
      </trkpt>
      <trkpt lat="41.262776" lon="1.832721">
        <ele>215.0</ele>
        <time>2008-07-05T19:45:23Z</time>
      </trkpt>
      <trkpt lat="41.262876" lon="1.832521">
        <ele>215.0</ele>
        <time>2008-07-05T19:45:25Z</time>
      </trkpt>
      <trkpt lat="41.262960" lon="1.832321">
        <ele>215.0</ele>
        <time>2008-07-05T19:45:27Z</time>
      </trkpt>
      <trkpt lat="41.263043" lon="1.832104">
        <ele>215.0</ele>
        <time>2008-07-05T19:45:29Z</time>
      </trkpt>
      <trkpt lat="41.263110" lon="1.831887">
        <ele>215.0</ele>
        <time>2008-07-05T19:45:31Z</time>
      </trkpt>
      <trkpt lat="41.263176" lon="1.831671">
        <ele>215.0</ele>
        <time>2008-07-05T19:45:33Z</time>
      </trkpt>
      <trkpt lat="41.263226" lon="1.831487">
        <ele>214.0</ele>
        <time>2008-07-05T19:45:35Z</time>
      </trkpt>
      <trkpt lat="41.263276" lon="1.831321">
        <ele>214.0</ele>
        <time>2008-07-05T19:45:37Z</time>
      </trkpt>
      <trkpt lat="41.263343" lon="1.831171">
        <ele>214.0</ele>
        <time>2008-07-05T19:45:39Z</time>
      </trkpt>
      <trkpt lat="41.263376" lon="1.831037">
        <ele>214.0</ele>
        <time>2008-07-05T19:45:41Z</time>
      </trkpt>
      <trkpt lat="41.263426" lon="1.830887">
        <ele>214.0</ele>
        <time>2008-07-05T19:45:43Z</time>
      </trkpt>
      <trkpt lat="41.263443" lon="1.830754">
        <ele>213.0</ele>
        <time>2008-07-05T19:45:45Z</time>
      </trkpt>
      <trkpt lat="41.263426" lon="1.830604">
        <ele>211.0</ele>
        <time>2008-07-05T19:45:47Z</time>
      </trkpt>
      <trkpt lat="41.263393" lon="1.830471">
        <ele>210.0</ele>
        <time>2008-07-05T19:45:49Z</time>
      </trkpt>
      <trkpt lat="41.263376" lon="1.830454">
        <ele>210.0</ele>
        <time>2008-07-05T19:45:51Z</time>
      </trkpt>
      <trkpt lat="41.263393" lon="1.830487">
        <ele>210.0</ele>
        <time>2008-07-05T19:45:53Z</time>
      </trkpt>
      <trkpt lat="41.263393" lon="1.830521">
        <ele>210.0</ele>
        <time>2008-07-05T19:45:55Z</time>
      </trkpt>
      <trkpt lat="41.263410" lon="1.830571">
        <ele>210.0</ele>
        <time>2008-07-05T19:45:57Z</time>
      </trkpt>
      <trkpt lat="41.263410" lon="1.830621">
        <ele>210.0</ele>
        <time>2008-07-05T19:45:59Z</time>
      </trkpt>
      <trkpt lat="41.263410" lon="1.830637">
        <ele>209.0</ele>
        <time>2008-07-05T19:46:01Z</time>
      </trkpt>
      <trkpt lat="41.263410" lon="1.830637">
        <ele>209.0</ele>
        <time>2008-07-05T19:46:03Z</time>
      </trkpt>
      <trkpt lat="41.263393" lon="1.830621">
        <ele>209.0</ele>
        <time>2008-07-05T19:46:05Z</time>
      </trkpt>
      <trkpt lat="41.263393" lon="1.830571">
        <ele>208.0</ele>
        <time>2008-07-05T19:46:07Z</time>
      </trkpt>
      <trkpt lat="41.263360" lon="1.830504">
        <ele>208.0</ele>
        <time>2008-07-05T19:46:09Z</time>
      </trkpt>
      <trkpt lat="41.263326" lon="1.830387">
        <ele>208.0</ele>
        <time>2008-07-05T19:46:11Z</time>
      </trkpt>
      <trkpt lat="41.263276" lon="1.830254">
        <ele>208.0</ele>
        <time>2008-07-05T19:46:13Z</time>
      </trkpt>
      <trkpt lat="41.263243" lon="1.830137">
        <ele>208.0</ele>
        <time>2008-07-05T19:46:15Z</time>
      </trkpt>
      <trkpt lat="41.263210" lon="1.830037">
        <ele>208.0</ele>
        <time>2008-07-05T19:46:17Z</time>
      </trkpt>
      <trkpt lat="41.263176" lon="1.829904">
        <ele>209.0</ele>
        <time>2008-07-05T19:46:19Z</time>
      </trkpt>
      <trkpt lat="41.263143" lon="1.829771">
        <ele>209.0</ele>
        <time>2008-07-05T19:46:21Z</time>
      </trkpt>
      <trkpt lat="41.263110" lon="1.829637">
        <ele>210.0</ele>
        <time>2008-07-05T19:46:23Z</time>
      </trkpt>
      <trkpt lat="41.263060" lon="1.829521">
        <ele>210.0</ele>
        <time>2008-07-05T19:46:25Z</time>
      </trkpt>
      <trkpt lat="41.263010" lon="1.829404">
        <ele>210.0</ele>
        <time>2008-07-05T19:46:27Z</time>
      </trkpt>
      <trkpt lat="41.262943" lon="1.829304">
        <ele>210.0</ele>
        <time>2008-07-05T19:46:29Z</time>
      </trkpt>
      <trkpt lat="41.262860" lon="1.829221">
        <ele>210.0</ele>
        <time>2008-07-05T19:46:31Z</time>
      </trkpt>
      <trkpt lat="41.262760" lon="1.829137">
        <ele>209.0</ele>
        <time>2008-07-05T19:46:33Z</time>
      </trkpt>
      <trkpt lat="41.262676" lon="1.829071">
        <ele>207.0</ele>
        <time>2008-07-05T19:46:35Z</time>
      </trkpt>
      <trkpt lat="41.262576" lon="1.829004">
        <ele>205.0</ele>
        <time>2008-07-05T19:46:37Z</time>
      </trkpt>
      <trkpt lat="41.262510" lon="1.828954">
        <ele>203.0</ele>
        <time>2008-07-05T19:46:39Z</time>
      </trkpt>
      <trkpt lat="41.262443" lon="1.828871">
        <ele>202.0</ele>
        <time>2008-07-05T19:46:41Z</time>
      </trkpt>
      <trkpt lat="41.262360" lon="1.828787">
        <ele>200.0</ele>
        <time>2008-07-05T19:46:43Z</time>
      </trkpt>
      <trkpt lat="41.262260" lon="1.828737">
        <ele>200.0</ele>
        <time>2008-07-05T19:46:45Z</time>
      </trkpt>
      <trkpt lat="41.262143" lon="1.828671">
        <ele>200.0</ele>
        <time>2008-07-05T19:46:47Z</time>
      </trkpt>
      <trkpt lat="41.262043" lon="1.828621">
        <ele>200.0</ele>
        <time>2008-07-05T19:46:49Z</time>
      </trkpt>
      <trkpt lat="41.261960" lon="1.828587">
        <ele>200.0</ele>
        <time>2008-07-05T19:46:51Z</time>
      </trkpt>
      <trkpt lat="41.261910" lon="1.828537">
        <ele>201.0</ele>
        <time>2008-07-05T19:46:53Z</time>
      </trkpt>
      <trkpt lat="41.261810" lon="1.828504">
        <ele>200.0</ele>
        <time>2008-07-05T19:46:55Z</time>
      </trkpt>
      <trkpt lat="41.261710" lon="1.828421">
        <ele>198.0</ele>
        <time>2008-07-05T19:46:57Z</time>
      </trkpt>
      <trkpt lat="41.261610" lon="1.828337">
        <ele>196.0</ele>
        <time>2008-07-05T19:46:59Z</time>
      </trkpt>
      <trkpt lat="41.261493" lon="1.828254">
        <ele>194.0</ele>
        <time>2008-07-05T19:47:01Z</time>
      </trkpt>
      <trkpt lat="41.261393" lon="1.828154">
        <ele>195.0</ele>
        <time>2008-07-05T19:47:03Z</time>
      </trkpt>
      <trkpt lat="41.261293" lon="1.828071">
        <ele>193.0</ele>
        <time>2008-07-05T19:47:05Z</time>
      </trkpt>
      <trkpt lat="41.261193" lon="1.827987">
        <ele>192.0</ele>
        <time>2008-07-05T19:47:07Z</time>
      </trkpt>
      <trkpt lat="41.261093" lon="1.827887">
        <ele>191.0</ele>
        <time>2008-07-05T19:47:09Z</time>
      </trkpt>
      <trkpt lat="41.261010" lon="1.827771">
        <ele>190.0</ele>
        <time>2008-07-05T19:47:11Z</time>
      </trkpt>
      <trkpt lat="41.260943" lon="1.827637">
        <ele>189.0</ele>
        <time>2008-07-05T19:47:13Z</time>
      </trkpt>
      <trkpt lat="41.260876" lon="1.827487">
        <ele>189.0</ele>
        <time>2008-07-05T19:47:15Z</time>
      </trkpt>
      <trkpt lat="41.260793" lon="1.827337">
        <ele>188.0</ele>
        <time>2008-07-05T19:47:17Z</time>
      </trkpt>
      <trkpt lat="41.260710" lon="1.827187">
        <ele>186.0</ele>
        <time>2008-07-05T19:47:19Z</time>
      </trkpt>
      <trkpt lat="41.260610" lon="1.827037">
        <ele>184.0</ele>
        <time>2008-07-05T19:47:21Z</time>
      </trkpt>
      <trkpt lat="41.260493" lon="1.826904">
        <ele>182.0</ele>
        <time>2008-07-05T19:47:23Z</time>
      </trkpt>
      <trkpt lat="41.260343" lon="1.826821">
        <ele>179.0</ele>
        <time>2008-07-05T19:47:25Z</time>
      </trkpt>
      <trkpt lat="41.260193" lon="1.826754">
        <ele>178.0</ele>
        <time>2008-07-05T19:47:27Z</time>
      </trkpt>
      <trkpt lat="41.260060" lon="1.826737">
        <ele>177.0</ele>
        <time>2008-07-05T19:47:29Z</time>
      </trkpt>
      <trkpt lat="41.259943" lon="1.826787">
        <ele>174.0</ele>
        <time>2008-07-05T19:47:31Z</time>
      </trkpt>
      <trkpt lat="41.259876" lon="1.826954">
        <ele>170.0</ele>
        <time>2008-07-05T19:47:33Z</time>
      </trkpt>
      <trkpt lat="41.259793" lon="1.827137">
        <ele>169.0</ele>
        <time>2008-07-05T19:47:35Z</time>
      </trkpt>
      <trkpt lat="41.259726" lon="1.827304">
        <ele>167.0</ele>
        <time>2008-07-05T19:47:37Z</time>
      </trkpt>
      <trkpt lat="41.259610" lon="1.827437">
        <ele>166.0</ele>
        <time>2008-07-05T19:47:39Z</time>
      </trkpt>
      <trkpt lat="41.259460" lon="1.827487">
        <ele>165.0</ele>
        <time>2008-07-05T19:47:41Z</time>
      </trkpt>
      <trkpt lat="41.259293" lon="1.827487">
        <ele>164.0</ele>
        <time>2008-07-05T19:47:43Z</time>
      </trkpt>
      <trkpt lat="41.259126" lon="1.827471">
        <ele>160.0</ele>
        <time>2008-07-05T19:47:45Z</time>
      </trkpt>
      <trkpt lat="41.258960" lon="1.827371">
        <ele>159.0</ele>
        <time>2008-07-05T19:47:47Z</time>
      </trkpt>
      <trkpt lat="41.258826" lon="1.827221">
        <ele>159.0</ele>
        <time>2008-07-05T19:47:49Z</time>
      </trkpt>
      <trkpt lat="41.258726" lon="1.827021">
        <ele>157.0</ele>
        <time>2008-07-05T19:47:51Z</time>
      </trkpt>
      <trkpt lat="41.258660" lon="1.826804">
        <ele>156.0</ele>
        <time>2008-07-05T19:47:53Z</time>
      </trkpt>
      <trkpt lat="41.258576" lon="1.826604">
        <ele>154.0</ele>
        <time>2008-07-05T19:47:55Z</time>
      </trkpt>
      <trkpt lat="41.258493" lon="1.826404">
        <ele>150.0</ele>
        <time>2008-07-05T19:47:57Z</time>
      </trkpt>
      <trkpt lat="41.258476" lon="1.826237">
        <ele>151.0</ele>
        <time>2008-07-05T19:47:59Z</time>
      </trkpt>
      <trkpt lat="41.258560" lon="1.826104">
        <ele>149.0</ele>
        <time>2008-07-05T19:48:01Z</time>
      </trkpt>
      <trkpt lat="41.258660" lon="1.825987">
        <ele>148.0</ele>
        <time>2008-07-05T19:48:03Z</time>
      </trkpt>
      <trkpt lat="41.258726" lon="1.825837">
        <ele>146.0</ele>
        <time>2008-07-05T19:48:05Z</time>
      </trkpt>
      <trkpt lat="41.258726" lon="1.825671">
        <ele>144.0</ele>
        <time>2008-07-05T19:48:07Z</time>
      </trkpt>
      <trkpt lat="41.258693" lon="1.825521">
        <ele>142.0</ele>
        <time>2008-07-05T19:48:09Z</time>
      </trkpt>
      <trkpt lat="41.258676" lon="1.825371">
        <ele>141.0</ele>
        <time>2008-07-05T19:48:11Z</time>
      </trkpt>
      <trkpt lat="41.258643" lon="1.825204">
        <ele>140.0</ele>
        <time>2008-07-05T19:48:13Z</time>
      </trkpt>
      <trkpt lat="41.258610" lon="1.825054">
        <ele>140.0</ele>
        <time>2008-07-05T19:48:15Z</time>
      </trkpt>
      <trkpt lat="41.258593" lon="1.824904">
        <ele>139.0</ele>
        <time>2008-07-05T19:48:17Z</time>
      </trkpt>
      <trkpt lat="41.258576" lon="1.824737">
        <ele>139.0</ele>
        <time>2008-07-05T19:48:19Z</time>
      </trkpt>
      <trkpt lat="41.258510" lon="1.824604">
        <ele>137.0</ele>
        <time>2008-07-05T19:48:21Z</time>
      </trkpt>
      <trkpt lat="41.258393" lon="1.824521">
        <ele>137.0</ele>
        <time>2008-07-05T19:48:23Z</time>
      </trkpt>
      <trkpt lat="41.258293" lon="1.824437">
        <ele>135.0</ele>
        <time>2008-07-05T19:48:25Z</time>
      </trkpt>
      <trkpt lat="41.258176" lon="1.824354">
        <ele>134.0</ele>
        <time>2008-07-05T19:48:27Z</time>
      </trkpt>
      <trkpt lat="41.258076" lon="1.824254">
        <ele>133.0</ele>
        <time>2008-07-05T19:48:29Z</time>
      </trkpt>
      <trkpt lat="41.257960" lon="1.824154">
        <ele>132.0</ele>
        <time>2008-07-05T19:48:31Z</time>
      </trkpt>
      <trkpt lat="41.257843" lon="1.824054">
        <ele>130.0</ele>
        <time>2008-07-05T19:48:33Z</time>
      </trkpt>
      <trkpt lat="41.257726" lon="1.823971">
        <ele>129.0</ele>
        <time>2008-07-05T19:48:35Z</time>
      </trkpt>
      <trkpt lat="41.257593" lon="1.823887">
        <ele>128.0</ele>
        <time>2008-07-05T19:48:37Z</time>
      </trkpt>
      <trkpt lat="41.257476" lon="1.823787">
        <ele>126.0</ele>
        <time>2008-07-05T19:48:39Z</time>
      </trkpt>
      <trkpt lat="41.257360" lon="1.823687">
        <ele>125.0</ele>
        <time>2008-07-05T19:48:41Z</time>
      </trkpt>
      <trkpt lat="41.257243" lon="1.823571">
        <ele>123.0</ele>
        <time>2008-07-05T19:48:43Z</time>
      </trkpt>
      <trkpt lat="41.257110" lon="1.823454">
        <ele>121.0</ele>
        <time>2008-07-05T19:48:45Z</time>
      </trkpt>
      <trkpt lat="41.257010" lon="1.823287">
        <ele>120.0</ele>
        <time>2008-07-05T19:48:47Z</time>
      </trkpt>
      <trkpt lat="41.256960" lon="1.823087">
        <ele>119.0</ele>
        <time>2008-07-05T19:48:49Z</time>
      </trkpt>
      <trkpt lat="41.256927" lon="1.822904">
        <ele>118.0</ele>
        <time>2008-07-05T19:48:51Z</time>
      </trkpt>
      <trkpt lat="41.256843" lon="1.822721">
        <ele>117.0</ele>
        <time>2008-07-05T19:48:53Z</time>
      </trkpt>
      <trkpt lat="41.256743" lon="1.822571">
        <ele>116.0</ele>
        <time>2008-07-05T19:48:55Z</time>
      </trkpt>
      <trkpt lat="41.256660" lon="1.822421">
        <ele>114.0</ele>
        <time>2008-07-05T19:48:57Z</time>
      </trkpt>
      <trkpt lat="41.256610" lon="1.822354">
        <ele>113.0</ele>
        <time>2008-07-05T19:48:59Z</time>
      </trkpt>
      <trkpt lat="41.256610" lon="1.822337">
        <ele>111.0</ele>
        <time>2008-07-05T19:49:01Z</time>
      </trkpt>
      <trkpt lat="41.256610" lon="1.822337">
        <ele>111.0</ele>
        <time>2008-07-05T19:49:03Z</time>
      </trkpt>
      <trkpt lat="41.256610" lon="1.822354">
        <ele>110.0</ele>
        <time>2008-07-05T19:49:05Z</time>
      </trkpt>
      <trkpt lat="41.256593" lon="1.822337">
        <ele>110.0</ele>
        <time>2008-07-05T19:49:07Z</time>
      </trkpt>
      <trkpt lat="41.256560" lon="1.822287">
        <ele>110.0</ele>
        <time>2008-07-05T19:49:09Z</time>
      </trkpt>
      <trkpt lat="41.256493" lon="1.822187">
        <ele>110.0</ele>
        <time>2008-07-05T19:49:11Z</time>
      </trkpt>
      <trkpt lat="41.256427" lon="1.822071">
        <ele>113.0</ele>
        <time>2008-07-05T19:49:13Z</time>
      </trkpt>
      <trkpt lat="41.256327" lon="1.821921">
        <ele>116.0</ele>
        <time>2008-07-05T19:49:15Z</time>
      </trkpt>
      <trkpt lat="41.256243" lon="1.821787">
        <ele>115.0</ele>
        <time>2008-07-05T19:49:17Z</time>
      </trkpt>
      <trkpt lat="41.256160" lon="1.821654">
        <ele>113.0</ele>
        <time>2008-07-05T19:49:19Z</time>
      </trkpt>
      <trkpt lat="41.256060" lon="1.821521">
        <ele>112.0</ele>
        <time>2008-07-05T19:49:21Z</time>
      </trkpt>
      <trkpt lat="41.255960" lon="1.821404">
        <ele>110.0</ele>
        <time>2008-07-05T19:49:23Z</time>
      </trkpt>
      <trkpt lat="41.255860" lon="1.821304">
        <ele>107.0</ele>
        <time>2008-07-05T19:49:25Z</time>
      </trkpt>
      <trkpt lat="41.255777" lon="1.821171">
        <ele>104.0</ele>
        <time>2008-07-05T19:49:27Z</time>
      </trkpt>
      <trkpt lat="41.255677" lon="1.821054">
        <ele>102.0</ele>
        <time>2008-07-05T19:49:29Z</time>
      </trkpt>
      <trkpt lat="41.255610" lon="1.820937">
        <ele>99.0</ele>
        <time>2008-07-05T19:49:31Z</time>
      </trkpt>
      <trkpt lat="41.255543" lon="1.820787">
        <ele>97.0</ele>
        <time>2008-07-05T19:49:33Z</time>
      </trkpt>
      <trkpt lat="41.255493" lon="1.820654">
        <ele>97.0</ele>
        <time>2008-07-05T19:49:35Z</time>
      </trkpt>
      <trkpt lat="41.255443" lon="1.820537">
        <ele>96.0</ele>
        <time>2008-07-05T19:49:37Z</time>
      </trkpt>
      <trkpt lat="41.255393" lon="1.820404">
        <ele>95.0</ele>
        <time>2008-07-05T19:49:39Z</time>
      </trkpt>
      <trkpt lat="41.255360" lon="1.820254">
        <ele>94.0</ele>
        <time>2008-07-05T19:49:41Z</time>
      </trkpt>
      <trkpt lat="41.255327" lon="1.820087">
        <ele>93.0</ele>
        <time>2008-07-05T19:49:43Z</time>
      </trkpt>
      <trkpt lat="41.255293" lon="1.819921">
        <ele>92.0</ele>
        <time>2008-07-05T19:49:45Z</time>
      </trkpt>
      <trkpt lat="41.255260" lon="1.819737">
        <ele>90.0</ele>
        <time>2008-07-05T19:49:47Z</time>
      </trkpt>
      <trkpt lat="41.255260" lon="1.819571">
        <ele>87.0</ele>
        <time>2008-07-05T19:49:49Z</time>
      </trkpt>
      <trkpt lat="41.255260" lon="1.819387">
        <ele>87.0</ele>
        <time>2008-07-05T19:49:51Z</time>
      </trkpt>
      <trkpt lat="41.255260" lon="1.819221">
        <ele>86.0</ele>
        <time>2008-07-05T19:49:53Z</time>
      </trkpt>
      <trkpt lat="41.255260" lon="1.819087">
        <ele>85.0</ele>
        <time>2008-07-05T19:49:55Z</time>
      </trkpt>
      <trkpt lat="41.255243" lon="1.818921">
        <ele>85.0</ele>
        <time>2008-07-05T19:49:57Z</time>
      </trkpt>
      <trkpt lat="41.255193" lon="1.818737">
        <ele>84.0</ele>
        <time>2008-07-05T19:49:59Z</time>
      </trkpt>
      <trkpt lat="41.255127" lon="1.818571">
        <ele>83.0</ele>
        <time>2008-07-05T19:50:01Z</time>
      </trkpt>
      <trkpt lat="41.255043" lon="1.818371">
        <ele>83.0</ele>
        <time>2008-07-05T19:50:03Z</time>
      </trkpt>
      <trkpt lat="41.254977" lon="1.818187">
        <ele>83.0</ele>
        <time>2008-07-05T19:50:05Z</time>
      </trkpt>
      <trkpt lat="41.254893" lon="1.818037">
        <ele>83.0</ele>
        <time>2008-07-05T19:50:07Z</time>
      </trkpt>
      <trkpt lat="41.254810" lon="1.817871">
        <ele>81.0</ele>
        <time>2008-07-05T19:50:09Z</time>
      </trkpt>
      <trkpt lat="41.254743" lon="1.817687">
        <ele>80.0</ele>
        <time>2008-07-05T19:50:11Z</time>
      </trkpt>
      <trkpt lat="41.254727" lon="1.817504">
        <ele>78.0</ele>
        <time>2008-07-05T19:50:13Z</time>
      </trkpt>
      <trkpt lat="41.254677" lon="1.817304">
        <ele>77.0</ele>
        <time>2008-07-05T19:50:15Z</time>
      </trkpt>
      <trkpt lat="41.254610" lon="1.817104">
        <ele>75.0</ele>
        <time>2008-07-05T19:50:17Z</time>
      </trkpt>
      <trkpt lat="41.254510" lon="1.816987">
        <ele>73.0</ele>
        <time>2008-07-05T19:50:19Z</time>
      </trkpt>
      <trkpt lat="41.254377" lon="1.816887">
        <ele>72.0</ele>
        <time>2008-07-05T19:50:21Z</time>
      </trkpt>
      <trkpt lat="41.254260" lon="1.816754">
        <ele>71.0</ele>
        <time>2008-07-05T19:50:23Z</time>
      </trkpt>
      <trkpt lat="41.254143" lon="1.816604">
        <ele>70.0</ele>
        <time>2008-07-05T19:50:25Z</time>
      </trkpt>
      <trkpt lat="41.254043" lon="1.816471">
        <ele>70.0</ele>
        <time>2008-07-05T19:50:27Z</time>
      </trkpt>
      <trkpt lat="41.253943" lon="1.816321">
        <ele>69.0</ele>
        <time>2008-07-05T19:50:29Z</time>
      </trkpt>
      <trkpt lat="41.253843" lon="1.816221">
        <ele>67.0</ele>
        <time>2008-07-05T19:50:31Z</time>
      </trkpt>
      <trkpt lat="41.253693" lon="1.816137">
        <ele>68.0</ele>
        <time>2008-07-05T19:50:33Z</time>
      </trkpt>
      <trkpt lat="41.253560" lon="1.816037">
        <ele>68.0</ele>
        <time>2008-07-05T19:50:35Z</time>
      </trkpt>
      <trkpt lat="41.253410" lon="1.815937">
        <ele>68.0</ele>
        <time>2008-07-05T19:50:37Z</time>
      </trkpt>
      <trkpt lat="41.253260" lon="1.815821">
        <ele>67.0</ele>
        <time>2008-07-05T19:50:39Z</time>
      </trkpt>
      <trkpt lat="41.253127" lon="1.815721">
        <ele>66.0</ele>
        <time>2008-07-05T19:50:41Z</time>
      </trkpt>
      <trkpt lat="41.252993" lon="1.815621">
        <ele>65.0</ele>
        <time>2008-07-05T19:50:43Z</time>
      </trkpt>
      <trkpt lat="41.252860" lon="1.815504">
        <ele>67.0</ele>
        <time>2008-07-05T19:50:45Z</time>
      </trkpt>
      <trkpt lat="41.252760" lon="1.815421">
        <ele>68.0</ele>
        <time>2008-07-05T19:50:47Z</time>
      </trkpt>
      <trkpt lat="41.252710" lon="1.815404">
        <ele>67.0</ele>
        <time>2008-07-05T19:50:49Z</time>
      </trkpt>
      <trkpt lat="41.252677" lon="1.815387">
        <ele>67.0</ele>
        <time>2008-07-05T19:50:51Z</time>
      </trkpt>
      <trkpt lat="41.252627" lon="1.815354">
        <ele>67.0</ele>
        <time>2008-07-05T19:50:53Z</time>
      </trkpt>
      <trkpt lat="41.252543" lon="1.815304">
        <ele>66.0</ele>
        <time>2008-07-05T19:50:55Z</time>
      </trkpt>
      <trkpt lat="41.252460" lon="1.815237">
        <ele>67.0</ele>
        <time>2008-07-05T19:50:57Z</time>
      </trkpt>
      <trkpt lat="41.252377" lon="1.815154">
        <ele>67.0</ele>
        <time>2008-07-05T19:50:59Z</time>
      </trkpt>
      <trkpt lat="41.252277" lon="1.815087">
        <ele>67.0</ele>
        <time>2008-07-05T19:51:01Z</time>
      </trkpt>
      <trkpt lat="41.252160" lon="1.815004">
        <ele>66.0</ele>
        <time>2008-07-05T19:51:03Z</time>
      </trkpt>
      <trkpt lat="41.252060" lon="1.814904">
        <ele>67.0</ele>
        <time>2008-07-05T19:51:05Z</time>
      </trkpt>
      <trkpt lat="41.251993" lon="1.814837">
        <ele>67.0</ele>
        <time>2008-07-05T19:51:07Z</time>
      </trkpt>
      <trkpt lat="41.251910" lon="1.814871">
        <ele>67.0</ele>
        <time>2008-07-05T19:51:09Z</time>
      </trkpt>
      <trkpt lat="41.251860" lon="1.814954">
        <ele>66.0</ele>
        <time>2008-07-05T19:51:11Z</time>
      </trkpt>
      <trkpt lat="41.251827" lon="1.815021">
        <ele>64.0</ele>
        <time>2008-07-05T19:51:13Z</time>
      </trkpt>
      <trkpt lat="41.251793" lon="1.815071">
        <ele>63.0</ele>
        <time>2008-07-05T19:51:15Z</time>
      </trkpt>
      <trkpt lat="41.251777" lon="1.815087">
        <ele>62.0</ele>
        <time>2008-07-05T19:51:17Z</time>
      </trkpt>
      <trkpt lat="41.251760" lon="1.815104">
        <ele>64.0</ele>
        <time>2008-07-05T19:51:19Z</time>
      </trkpt>
      <trkpt lat="41.251743" lon="1.815121">
        <ele>64.0</ele>
        <time>2008-07-05T19:51:21Z</time>
      </trkpt>
      <trkpt lat="41.251727" lon="1.815121">
        <ele>68.0</ele>
        <time>2008-07-05T19:51:23Z</time>
      </trkpt>
      <trkpt lat="41.251727" lon="1.815121">
        <ele>71.0</ele>
        <time>2008-07-05T19:51:25Z</time>
      </trkpt>
      <trkpt lat="41.251710" lon="1.815121">
        <ele>71.0</ele>
        <time>2008-07-05T19:51:27Z</time>
      </trkpt>
      <trkpt lat="41.251660" lon="1.815121">
        <ele>69.0</ele>
        <time>2008-07-05T19:51:29Z</time>
      </trkpt>
      <trkpt lat="41.251593" lon="1.815137">
        <ele>69.0</ele>
        <time>2008-07-05T19:51:31Z</time>
      </trkpt>
      <trkpt lat="41.251510" lon="1.815171">
        <ele>69.0</ele>
        <time>2008-07-05T19:51:33Z</time>
      </trkpt>
      <trkpt lat="41.251410" lon="1.815154">
        <ele>70.0</ele>
        <time>2008-07-05T19:51:35Z</time>
      </trkpt>
      <trkpt lat="41.251310" lon="1.815137">
        <ele>73.0</ele>
        <time>2008-07-05T19:51:37Z</time>
      </trkpt>
      <trkpt lat="41.251210" lon="1.815104">
        <ele>75.0</ele>
        <time>2008-07-05T19:51:39Z</time>
      </trkpt>
      <trkpt lat="41.251093" lon="1.815071">
        <ele>77.0</ele>
        <time>2008-07-05T19:51:41Z</time>
      </trkpt>
      <trkpt lat="41.250993" lon="1.815021">
        <ele>77.0</ele>
        <time>2008-07-05T19:51:43Z</time>
      </trkpt>
      <trkpt lat="41.250877" lon="1.814971">
        <ele>76.0</ele>
        <time>2008-07-05T19:51:45Z</time>
      </trkpt>
      <trkpt lat="41.250760" lon="1.814937">
        <ele>77.0</ele>
        <time>2008-07-05T19:51:47Z</time>
      </trkpt>
      <trkpt lat="41.250643" lon="1.814854">
        <ele>78.0</ele>
        <time>2008-07-05T19:51:49Z</time>
      </trkpt>
      <trkpt lat="41.250527" lon="1.814754">
        <ele>79.0</ele>
        <time>2008-07-05T19:51:51Z</time>
      </trkpt>
      <trkpt lat="41.250410" lon="1.814671">
        <ele>75.0</ele>
        <time>2008-07-05T19:51:53Z</time>
      </trkpt>
      <trkpt lat="41.250293" lon="1.814587">
        <ele>71.0</ele>
        <time>2008-07-05T19:51:55Z</time>
      </trkpt>
      <trkpt lat="41.250177" lon="1.814487">
        <ele>68.0</ele>
        <time>2008-07-05T19:51:57Z</time>
      </trkpt>
      <trkpt lat="41.250077" lon="1.814421">
        <ele>66.0</ele>
        <time>2008-07-05T19:51:59Z</time>
      </trkpt>
      <trkpt lat="41.250010" lon="1.814387">
        <ele>66.0</ele>
        <time>2008-07-05T19:52:01Z</time>
      </trkpt>
      <trkpt lat="41.249960" lon="1.814337">
        <ele>65.0</ele>
        <time>2008-07-05T19:52:03Z</time>
      </trkpt>
      <trkpt lat="41.249893" lon="1.814287">
        <ele>62.0</ele>
        <time>2008-07-05T19:52:05Z</time>
      </trkpt>
      <trkpt lat="41.249810" lon="1.814221">
        <ele>63.0</ele>
        <time>2008-07-05T19:52:07Z</time>
      </trkpt>
      <trkpt lat="41.249727" lon="1.814121">
        <ele>68.0</ele>
        <time>2008-07-05T19:52:09Z</time>
      </trkpt>
      <trkpt lat="41.249593" lon="1.814037">
        <ele>69.0</ele>
        <time>2008-07-05T19:52:11Z</time>
      </trkpt>
      <trkpt lat="41.249460" lon="1.813937">
        <ele>71.0</ele>
        <time>2008-07-05T19:52:13Z</time>
      </trkpt>
      <trkpt lat="41.249310" lon="1.813837">
        <ele>72.0</ele>
        <time>2008-07-05T19:52:15Z</time>
      </trkpt>
      <trkpt lat="41.249160" lon="1.813737">
        <ele>72.0</ele>
        <time>2008-07-05T19:52:17Z</time>
      </trkpt>
      <trkpt lat="41.249010" lon="1.813637">
        <ele>71.0</ele>
        <time>2008-07-05T19:52:19Z</time>
      </trkpt>
      <trkpt lat="41.248877" lon="1.813554">
        <ele>69.0</ele>
        <time>2008-07-05T19:52:21Z</time>
      </trkpt>
      <trkpt lat="41.248743" lon="1.813470">
        <ele>70.0</ele>
        <time>2008-07-05T19:52:23Z</time>
      </trkpt>
      <trkpt lat="41.248627" lon="1.813370">
        <ele>69.0</ele>
        <time>2008-07-05T19:52:25Z</time>
      </trkpt>
      <trkpt lat="41.248523" lon="1.813252">
        <ele>69.0</ele>
        <time>2008-07-05T19:52:27Z</time>
      </trkpt>
    </trkseg>
  </trk></gpx>